[[{"header":{"parameterUnit":"m.s-1","parameterCategory":1,"la1":30.6,"la2":29.2853,"lo1":-89.7004,"lo2":-87.6739,"dy":0.0162,"dx":0.0183,"nx":112,"ny":82,"refTime":"2026-03-13T12:00:00:Z","depth":0,"parameterNumber":2,"parameterNumberName":"U-component_of_WINDS"},"data":[0.0,0.0,0.0,0.0,0.0,0.0,0.0,0.0,0.0,0.0,0.0,0.0,0.0,0.0,0.0,0.0,0.0,0.0,0.0,0.0,0.0,0.0,0.0,0.0,0.0,0.0,0.0,0.0,0.0,0.0,0.0,0.0,0.0,0.0,0.0,0.0,0.0,0.0,0.0,0.0,0.0,0.0,0.0,0.0,0.0,0.0,0.0,0.0,0.0,0.0,0.0,0.0,0.0,0.0,0.0,0.0,0.0,0.0,0.0,0.0,0.0,0.0,0.0,0.0,0.0,0.0,0.0,0.0,0.0,0.0,0.0,0.0,0.0,0.0,0.0,0.0,0.0,0.0,0.0,0.0,0.0,0.0,0.0,0.0,0.0,0.0,0.0,0.0,0.0,0.0,0.0,-1.8331,-1.9772,-2.0511,-2.0317,-1.8822,-1.7021,-1.4934,0.0,0.0,0.0,0.0,0.0,0.0,0.0,0.0,0.0,0.0,0.0,0.0,0.0,0.0,0.0,0.0,0.0,0.0,0.0,0.0,0.0,0.0,0.0,0.0,0.0,0.0,0.0,0.0,0.0,0.0,0.0,0.0,0.0,0.0,0.0,0.0,0.0,0.0,0.0,0.0,0.0,0.0,0.0,0.0,0.0,0.0,0.0,0.0,0.0,0.0,0.0,0.0,0.0,0.0,0.0,0.0,0.0,0.0,0.0,0.0,0.0,0.0,0.0,0.0,0.0,0.0,0.0,0.0,0.0,0.0,0.0,0.0,0.0,0.0,0.0,0.0,0.0,0.0,0.0,0.0,0.0,0.0,0.0,0.0,0.0,0.0,0.0,0.0,0.0,0.0,0.0,0.0,0.0,0.0,0.0,0.0,0.0,0.0,0.0,0.0,0.0,0.0,0.0,0.0,-1.6208,-2.0217,-2.1118,-2.111,-2.0364,-1.9124,-1.7361,-1.495,0.0,0.0,0.0,0.0,0.0,0.0,0.0,0.0,0.0,0.0,0.0,0.0,0.0,0.0,0.0,0.0,0.0,0.0,0.0,0.0,0.0,0.0,0.0,0.0,0.0,0.0,0.0,0.0,0.0,0.0,0.0,0.0,0.0,0.0,0.0,0.0,0.0,0.0,0.0,0.0,0.0,0.0,0.0,0.0,0.0,0.0,0.0,0.0,0.0,0.0,0.0,0.0,0.0,0.0,0.0,0.0,0.0,0.0,0.0,0.0,0.0,0.0,0.0,0.0,0.0,0.0,0.0,0.0,0.0,0.0,0.0,0.0,0.0,0.0,0.0,0.0,0.0,0.0,0.0,0.0,0.0,0.0,0.0,0.0,0.0,0.0,0.0,0.0,0.0,0.0,0.0,0.0,0.0,0.0,0.0,0.0,0.0,0.0,0.0,0.0,0.0,0.0,0.0,-1.705,-1.8377,-2.1419,-2.2025,-2.1836,-2.0928,-1.9311,-1.7478,-1.5471,-1.3204,0.0,0.0,0.0,0.0,0.0,0.0,0.0,0.0,0.0,0.0,0.0,0.0,0.0,0.0,0.0,0.0,0.0,0.0,0.0,0.0,0.0,0.0,0.0,0.0,0.0,0.0,0.0,0.0,0.0,0.0,0.0,0.0,0.0,0.0,0.0,0.0,0.0,0.0,0.0,0.0,0.0,0.0,0.0,0.0,0.0,0.0,0.0,0.0,0.0,0.0,0.0,0.0,0.0,0.0,0.0,0.0,0.0,0.0,0.0,0.0,0.0,0.0,0.0,0.0,0.0,0.0,0.0,0.0,0.0,0.0,0.0,0.0,0.0,0.0,0.0,0.0,0.0,0.0,0.0,0.0,0.0,0.0,0.0,0.0,0.0,0.0,0.0,0.0,0.0,0.0,0.0,0.0,0.0,0.0,0.0,0.0,0.0,0.0,0.0,0.0,0.0,0.0,-1.9467,-2.0561,-2.2061,-2.2497,-2.2281,-2.1224,-1.9129,-1.7232,-1.5765,-1.2992,0.0,0.0,0.0,0.0,0.0,0.0,0.0,0.0,0.0,0.0,0.0,0.0,0.0,0.0,0.0,0.0,0.0,0.0,0.0,0.0,0.0,0.0,0.0,0.0,0.0,0.0,0.0,0.0,0.0,0.0,0.0,0.0,0.0,0.0,0.0,0.0,0.0,0.0,0.0,0.0,0.0,0.0,0.0,0.0,0.0,0.0,0.0,0.0,0.0,0.0,0.0,0.0,0.0,0.0,0.0,0.0,0.0,0.0,0.0,0.0,0.0,0.0,0.0,0.0,0.0,0.0,0.0,0.0,0.0,0.0,0.0,0.0,0.0,0.0,0.0,0.0,0.0,0.0,0.0,0.0,0.0,0.0,0.0,0.0,0.0,0.0,0.0,0.0,0.0,0.0,0.0,0.0,0.0,0.0,0.0,0.0,0.0,0.0,0.0,0.0,0.0,0.0,-1.9609,-2.1575,-2.1883,-2.2387,-2.2146,-2.0777,-1.8345,-1.6449,-1.5394,-1.217,0.0,0.0,0.0,0.0,0.0,0.0,0.0,0.0,0.0,0.0,0.0,0.0,0.0,0.0,0.0,0.0,0.0,0.0,0.0,0.0,0.0,0.0,0.0,0.0,0.0,0.0,0.0,0.0,0.0,0.0,0.0,0.0,0.0,0.0,0.0,0.0,0.0,0.0,0.0,0.0,0.0,0.0,0.0,0.0,0.0,0.0,0.0,0.0,0.0,0.0,0.0,0.0,0.0,0.0,0.0,0.0,0.0,0.0,0.0,0.0,0.0,0.0,0.0,0.0,0.0,0.0,0.0,0.0,0.0,0.0,0.0,0.0,0.0,0.0,0.0,0.0,0.0,0.0,0.0,0.0,0.0,0.0,0.0,0.0,0.0,0.0,0.0,0.0,0.0,0.0,0.0,0.0,0.0,0.0,0.0,0.0,0.0,0.0,0.0,0.0,0.0,0.0,-1.9829,-2.1285,0.0,-2.2393,-2.1824,-2.0582,-1.8331,-1.6472,-1.5255,0.0,0.0,0.0,0.0,0.0,0.0,0.0,0.0,0.0,0.0,0.0,0.0,0.0,0.0,0.0,0.0,0.0,0.0,0.0,0.0,0.0,0.0,0.0,0.0,0.0,0.0,0.0,0.0,0.0,0.0,0.0,0.0,0.0,0.0,0.0,0.0,0.0,0.0,0.0,0.0,0.0,0.0,0.0,0.0,0.0,0.0,0.0,0.0,0.0,0.0,0.0,0.0,0.0,0.0,0.0,0.0,0.0,0.0,0.0,0.0,0.0,0.0,0.0,0.0,0.0,0.0,0.0,0.0,0.0,0.0,0.0,0.0,0.0,0.0,0.0,0.0,0.0,0.0,0.0,0.0,0.0,0.0,0.0,0.0,0.0,0.0,0.0,0.0,0.0,0.0,0.0,0.0,0.0,0.0,0.0,0.0,0.0,0.0,0.0,0.0,0.0,0.0,-1.8761,-2.0038,-2.0968,0.0,-2.1863,-2.1029,-1.9318,-1.7395,-1.5728,-1.4445,0.0,0.0,0.0,0.0,0.0,0.0,0.0,0.0,0.0,0.0,0.0,0.0,0.0,0.0,0.0,0.0,0.0,0.0,0.0,0.0,0.0,0.0,0.0,0.0,0.0,0.0,0.0,0.0,0.0,0.0,0.0,0.0,0.0,0.0,0.0,0.0,0.0,0.0,0.0,0.0,0.0,0.0,0.0,0.0,0.0,0.0,0.0,0.0,0.0,0.0,0.0,0.0,0.0,0.0,0.0,0.0,0.0,0.0,0.0,0.0,0.0,0.0,0.0,0.0,0.0,0.0,0.0,0.0,0.0,0.0,0.0,0.0,0.0,0.0,0.0,0.0,0.0,0.0,0.0,0.0,0.0,0.0,0.0,0.0,0.0,0.0,0.0,0.0,0.0,0.0,0.0,0.0,0.0,0.0,0.0,0.0,0.0,0.0,0.0,0.0,0.0,0.0,-1.8676,-2.0173,-2.0777,-2.0331,-2.0628,-1.968,-1.6728,-1.5273,-1.4012,0.0,0.0,0.0,0.0,0.0,0.0,0.0,0.0,0.0,0.0,0.0,0.0,0.0,0.0,0.0,0.0,0.0,0.0,0.0,0.0,0.0,0.0,0.0,0.0,0.0,0.0,0.0,0.0,0.0,0.0,0.0,0.0,0.0,0.0,0.0,0.0,0.0,0.0,0.0,0.0,0.0,0.0,0.0,0.0,0.0,0.0,0.0,0.0,0.0,0.0,0.0,0.0,0.0,0.0,0.0,0.0,0.0,0.0,0.0,0.0,0.0,0.0,0.0,0.0,0.0,0.0,0.0,0.0,0.0,0.0,0.0,0.0,0.0,0.0,0.0,0.0,0.0,0.0,0.0,0.0,0.0,0.0,0.0,0.0,0.0,0.0,0.0,0.0,0.0,0.0,0.0,0.0,0.0,0.0,0.0,0.0,0.0,0.0,0.0,0.0,0.0,0.0,0.0,-1.7778,-1.8173,-1.8468,-1.9226,-1.8915,-1.7802,-1.5757,-1.5049,-1.3925,-1.2077,0.0,0.0,0.0,0.0,0.0,0.0,0.0,0.0,0.0,0.0,0.0,0.0,0.0,0.0,0.0,0.0,0.0,0.0,0.0,0.0,0.0,0.0,0.0,0.0,0.0,0.0,0.0,0.0,0.0,0.0,0.0,0.0,0.0,0.0,0.0,0.0,0.0,0.0,0.0,0.0,0.0,0.0,0.0,0.0,0.0,0.0,0.0,0.0,0.0,0.0,0.0,0.0,0.0,0.0,0.0,0.0,0.0,0.0,0.0,0.0,0.0,0.0,0.0,0.0,0.0,0.0,0.0,0.0,0.0,0.0,0.0,0.0,0.0,0.0,0.0,0.0,0.0,0.0,0.0,0.0,0.0,0.0,0.0,0.0,0.0,0.0,0.0,0.0,0.0,0.0,0.0,0.0,0.0,0.0,0.0,0.0,0.0,0.0,0.0,0.0,0.0,0.0,-1.7263,-1.7484,-1.7499,-1.7855,-1.7759,-1.6754,-1.4551,-1.4288,-1.3354,-1.1249,0.0,0.0,0.0,0.0,0.0,0.0,0.0,0.0,0.0,0.0,0.0,0.0,0.0,0.0,0.0,0.0,0.0,0.0,0.0,0.0,0.0,0.0,0.0,0.0,0.0,0.0,0.0,0.0,0.0,0.0,0.0,0.0,0.0,0.0,0.0,0.0,0.0,0.0,0.0,0.0,0.0,0.0,0.0,0.0,0.0,0.0,0.0,0.0,0.0,0.0,0.0,0.0,0.0,0.0,0.0,0.0,0.0,0.0,0.0,0.0,0.0,0.0,0.0,0.0,0.0,0.0,0.0,0.0,0.0,0.0,0.0,0.0,0.0,0.0,0.0,0.0,0.0,0.0,0.0,0.0,0.0,0.0,0.0,0.0,0.0,0.0,0.0,0.0,0.0,0.0,0.0,0.0,0.0,0.0,0.0,0.0,0.0,0.0,0.0,0.0,0.0,0.0,-1.6982,-1.7416,-1.7147,-1.6369,-1.6817,-1.6067,-1.3332,-1.3193,-1.2433,-1.0523,0.0,0.0,0.0,0.0,0.0,0.0,0.0,0.0,0.0,0.0,0.0,0.0,0.0,0.0,0.0,0.0,0.0,0.0,0.0,0.0,0.0,0.0,0.0,0.0,0.0,0.0,0.0,0.0,0.0,0.0,0.0,0.0,0.0,0.0,0.0,0.0,0.0,0.0,0.0,0.0,0.0,0.0,0.0,0.0,0.0,0.0,0.0,0.0,0.0,0.0,0.0,0.0,0.0,0.0,0.0,0.0,0.0,0.0,0.0,0.0,-1.4029,0.0,0.0,0.0,0.0,0.0,0.0,0.0,0.0,0.0,0.0,0.0,0.0,0.0,0.0,0.0,0.0,0.0,0.0,0.0,0.0,0.0,0.0,0.0,0.0,0.0,0.0,0.0,0.0,0.0,0.0,0.0,0.0,0.0,0.0,0.0,0.0,0.0,0.0,0.0,0.0,0.0,-1.6005,-1.5024,-1.4406,-1.5344,-1.4619,-1.3806,-1.3152,-1.2556,-1.17,-1.0484,-0.9412,0.0,0.0,0.0,0.0,0.0,0.0,0.0,0.0,0.0,0.0,0.0,0.0,0.0,0.0,0.0,0.0,0.0,0.0,0.0,0.0,0.0,0.0,0.0,0.0,0.0,0.0,0.0,0.0,0.0,0.0,0.0,0.0,0.0,0.0,0.0,0.0,0.0,0.0,0.0,0.0,0.0,0.0,0.0,0.0,0.0,0.0,0.0,0.0,0.0,0.0,0.0,0.0,0.0,0.0,0.0,0.0,0.0,0.0,0.0,0.0,-1.5991,0.0,0.0,0.0,0.0,0.0,0.0,0.0,0.0,0.0,0.0,0.0,0.0,0.0,0.0,0.0,0.0,0.0,0.0,0.0,0.0,0.0,0.0,0.0,0.0,0.0,0.0,0.0,0.0,0.0,0.0,0.0,0.0,0.0,0.0,0.0,0.0,0.0,0.0,0.0,0.0,-1.5617,-1.4494,-1.3808,-1.4756,-1.4046,-1.3421,-1.3305,-1.2402,-1.1592,-1.097,-0.9495,0.0,0.0,0.0,0.0,0.0,0.0,0.0,0.0,0.0,0.0,0.0,0.0,0.0,0.0,0.0,0.0,0.0,0.0,0.0,0.0,0.0,0.0,0.0,0.0,0.0,0.0,0.0,0.0,0.0,0.0,0.0,0.0,0.0,0.0,0.0,0.0,0.0,0.0,0.0,0.0,0.0,0.0,0.0,0.0,0.0,0.0,0.0,0.0,0.0,0.0,0.0,0.0,0.0,-1.9884,-2.0136,-2.0079,-1.9809,-1.9837,-2.0015,-1.8353,-1.8054,-1.8647,-1.753,0.0,0.0,0.0,0.0,0.0,0.0,0.0,0.0,0.0,0.0,0.0,0.0,0.0,0.0,0.0,0.0,0.0,0.0,0.0,0.0,0.0,0.0,0.0,0.0,-1.6082,-1.5284,0.0,0.0,0.0,0.0,0.0,0.0,0.0,0.0,0.0,0.0,0.0,0.0,-1.5391,-1.4731,-1.4165,-1.4574,-1.4172,-1.381,-1.3671,-1.2556,-1.1773,-1.1574,-0.9817,-0.8437,0.0,0.0,0.0,0.0,0.0,0.0,0.0,0.0,0.0,0.0,0.0,0.0,0.0,0.0,0.0,0.0,0.0,0.0,0.0,0.0,0.0,0.0,0.0,0.0,0.0,0.0,0.0,0.0,0.0,0.0,0.0,0.0,-1.4181,-1.5636,0.0,0.0,0.0,0.0,0.0,0.0,0.0,0.0,0.0,0.0,0.0,0.0,0.0,-1.9068,-2.0489,-2.1149,-2.1826,-2.2582,-2.3242,-2.3454,-2.3299,-2.3248,-2.2678,-2.1677,-2.1414,0.0,-2.0305,-1.82,0.0,0.0,0.0,0.0,0.0,0.0,0.0,0.0,0.0,0.0,0.0,0.0,0.0,0.0,0.0,0.0,0.0,0.0,0.0,0.0,0.0,0.0,-1.6998,-1.6276,-1.6663,-1.6891,0.0,-1.4547,-1.3348,-1.2721,-1.1771,0.0,0.0,0.0,0.0,0.0,0.0,0.0,-1.4944,-1.4713,-1.4605,-1.5061,-1.4323,-1.3938,-1.426,-1.2913,-1.1965,-1.1771,-1.0108,-0.8789,-0.8054,-0.7424,0.0,0.0,0.0,0.0,0.0,0.0,0.0,0.0,0.0,0.0,0.0,0.0,0.0,0.0,0.0,0.0,0.0,0.0,0.0,0.0,0.0,0.0,0.0,0.0,0.0,0.0,0.0,0.0,0.0,-1.4574,-1.5722,-1.6912,-1.6774,-1.6771,0.0,0.0,0.0,0.0,0.0,0.0,0.0,0.0,0.0,-2.0641,-2.1065,-2.1779,-2.278,-2.3509,-2.4063,-2.4432,-2.5037,-2.5274,-2.5187,-2.5093,-2.4623,-2.3902,-2.362,-2.3375,-2.2971,-2.0378,-1.9899,-2.0631,0.0,0.0,0.0,0.0,-1.9121,-1.8774,-1.912,-1.9216,-1.9041,-1.8284,0.0,0.0,0.0,0.0,0.0,0.0,0.0,0.0,0.0,0.0,-1.9266,-1.8471,-1.8592,-1.8767,-1.8449,-1.7383,-1.6031,0.0,-1.4195,-1.3846,-1.3234,0.0,0.0,0.0,0.0,-1.3587,-1.5337,-1.4785,-1.4421,-1.4914,-1.4076,-1.3641,-1.407,-1.298,-1.2248,-1.2198,-1.0557,-0.9291,-0.8624,-0.7992,-0.744,0.0,0.0,0.0,0.0,0.0,0.0,0.0,0.0,0.0,0.0,0.0,0.0,0.0,0.0,0.0,0.0,0.0,0.0,0.0,0.0,0.0,0.0,0.0,0.0,0.0,0.0,0.0,0.0,-1.5846,-1.6756,-1.7885,-1.799,-1.8012,0.0,0.0,0.0,0.0,0.0,0.0,-2.0122,-2.0715,-2.1642,-2.302,-2.3596,-2.4202,-2.4814,-2.5613,-2.6017,-2.6017,-2.6644,-2.6918,-2.6918,-2.6754,-2.6408,-2.5891,-2.5467,-2.5332,-2.5201,-2.2497,-2.1854,-2.2412,-2.1216,-2.0466,-2.0174,-2.096,-2.0916,-2.0526,-2.1048,-2.1244,-2.1101,-2.0183,-1.9639,-1.9312,-1.9256,0.0,0.0,0.0,0.0,-2.0807,-2.0203,-2.0441,-2.0716,-2.0216,-2.0217,-2.0302,-2.0302,-1.9844,-1.8847,0.0,-1.6302,-1.5877,-1.4809,0.0,0.0,0.0,0.0,-1.3971,-1.5296,-1.4891,-1.4526,-1.4626,-1.4091,-1.3841,-1.4107,-1.3378,-1.2778,-1.2522,-1.1144,-0.9954,-0.9132,-0.8376,-0.7678,-0.7066,0.0,0.0,0.0,0.0,0.0,0.0,0.0,0.0,0.0,0.0,0.0,0.0,0.0,0.0,0.0,0.0,0.0,0.0,0.0,0.0,0.0,0.0,0.0,0.0,0.0,0.0,0.0,0.0,0.0,-1.8476,-1.8812,0.0,0.0,0.0,0.0,-2.0177,-2.0901,-2.1957,-2.3397,-2.3495,-2.4117,-2.5393,-2.5467,-2.5799,-2.6465,-2.7273,-2.7688,-2.7688,-2.848,-2.8865,-2.8854,-2.8854,-2.828,-2.7284,-2.7007,-2.6757,-2.6332,-2.3962,-2.338,-2.3907,-2.3074,-2.2854,-2.3071,-2.3818,-2.3867,-2.3671,-2.4337,-2.4235,-2.3638,-2.2661,-2.1369,-2.0428,-2.148,-2.128,0.0,0.0,-2.1934,-2.1277,-2.0859,-2.0598,-2.0419,-2.0394,-2.0764,-2.114,-2.114,-2.1452,-2.1038,0.0,-1.6901,-1.579,-1.5967,0.0,-1.4675,-1.474,-1.5258,-1.5245,-1.4157,-1.5051,-1.5398,-1.4341,-1.4761,-1.5,-1.4768,-1.4426,-1.373,-1.2562,-1.1884,-1.0872,-0.9434,-0.8429,-0.7778,-0.7474,-0.6535,0.0,0.0,0.0,0.0,0.0,0.0,0.0,0.0,0.0,0.0,0.0,0.0,0.0,0.0,0.0,0.0,0.0,0.0,0.0,0.0,0.0,0.0,0.0,0.0,0.0,0.0,0.0,0.0,-2.1193,-2.1342,0.0,-2.1436,-2.1721,-2.213,-2.2634,-2.2929,-2.3764,-2.5346,-2.5355,-2.5987,-2.7478,-2.7451,-2.7774,-2.8519,-2.8695,-2.877,-2.877,-2.892,-2.9005,-2.9005,-2.9005,-2.8705,-2.8142,-2.7713,-2.7529,-2.7481,-2.6333,-2.5685,-2.5259,-2.3971,-2.3589,-2.3748,-2.3538,-2.3216,-2.2905,-2.2976,-2.3411,-2.3952,-2.4064,-2.3751,-2.3414,-2.3863,-2.3764,-2.3717,-2.4699,-2.4374,-2.3634,-2.3327,-2.2822,-2.2212,-2.1528,-2.1513,-2.1594,-2.1434,-2.1523,-2.1431,-2.0727,-1.9423,-1.82,-1.7559,-1.6479,-1.5798,-1.6044,-1.5693,-1.5353,-1.5214,-1.5456,-1.5433,-1.4905,-1.4898,-1.4824,-1.4509,-1.401,-1.3258,-1.2179,-1.1428,-1.0614,-0.9683,-0.9024,-0.833,-0.7576,-0.6925,-0.6248,0.0,0.0,0.0,0.0,0.0,0.0,0.0,0.0,0.0,0.0,0.0,0.0,0.0,0.0,0.0,0.0,0.0,0.0,0.0,0.0,0.0,0.0,0.0,0.0,0.0,0.0,-2.1106,-2.2983,-2.3553,-2.3739,-2.3596,-2.4116,-2.4547,-2.4795,-2.5042,-2.5767,-2.7069,-2.7056,-2.76,-2.8898,-2.8861,-2.9062,-2.9589,-2.9675,-2.9691,-2.971,-2.9793,-2.9666,-2.939,-2.939,-2.9161,-2.8707,-2.8261,-2.8149,-2.8246,-2.7821,-2.7299,-2.6664,-2.5478,-2.504,-2.502,-2.4531,-2.4047,-2.3608,-2.3395,-2.3594,-2.407,-2.482,-2.47,-2.4319,-2.4634,-2.4685,-2.4751,-2.5328,-2.5052,-2.4505,-2.408,-2.3524,-2.2923,-2.2205,-2.1978,-2.1901,-2.1897,-2.1619,-2.1372,-2.142,-2.0668,-1.9769,-1.8884,-1.7704,-1.6997,-1.7375,-1.6745,-1.6272,-1.6431,-1.6249,-1.5902,-1.5281,-1.504,-1.4747,-1.4346,-1.3889,-1.3189,-1.2129,-1.1474,-1.0745,-0.9844,-0.9257,-0.861,-0.7853,-0.7066,-0.6381,-0.584,0.0,0.0,0.0,0.0,0.0,0.0,0.0,0.0,0.0,0.0,0.0,0.0,0.0,0.0,0.0,0.0,0.0,0.0,0.0,0.0,0.0,0.0,0.0,-1.9165,-2.0425,-2.1953,-2.3706,-2.524,-2.5842,-2.5063,-2.6657,-2.7396,-2.6536,-2.7281,-2.8036,-2.8608,-2.8638,-2.8955,-2.9626,-2.9645,-2.9645,-2.9673,-3.0261,-3.0535,-3.0542,-3.112,-3.0993,-3.0246,-3.0246,-2.9794,-2.903,-2.8767,-2.865,-2.8589,-2.825,-2.8116,-2.8043,-2.7569,-2.7224,-2.7006,-2.6972,-2.6569,-2.6048,-2.5958,-2.5125,-2.4223,-2.4996,-2.4213,-2.3083,-2.384,-2.401,-2.3969,-2.3959,-2.3881,-2.3658,-2.2942,-2.2545,-2.2325,-2.2299,-2.208,-2.2036,-2.2557,-2.1852,-2.1046,-2.0796,-2.0524,-2.0228,-1.9861,-1.8936,-1.8346,-1.8679,-1.8423,0.0,-1.7561,-1.7438,-1.6855,-1.5413,-1.524,-1.4999,-1.4368,-1.4176,-1.3588,-1.243,-1.2086,-1.1289,-0.9856,-0.9077,-0.8535,-0.8264,-0.689,-0.6153,-0.6077,0.0,0.0,0.0,0.0,0.0,0.0,0.0,0.0,0.0,0.0,0.0,0.0,0.0,0.0,0.0,0.0,0.0,0.0,0.0,0.0,0.0,-1.9529,-2.0747,-2.1406,-2.2869,-2.4511,-2.6201,-2.6909,-2.7166,-2.6956,-2.7911,-2.8478,-2.823,-2.902,-2.9522,-2.9545,-2.9529,-2.9823,-3.0443,-3.048,-3.0752,-3.1333,-3.1357,-3.1359,-3.1377,-3.1396,-3.1286,-3.1072,-3.1072,-3.0632,-2.9867,-2.9789,-2.9424,-2.887,-2.8589,-2.8281,-2.797,-2.7309,-2.7083,-2.7044,-2.6216,-2.5785,-2.567,-2.6155,-2.6263,-2.6206,-2.6428,-2.6351,-2.6075,-2.5694,-2.5585,-2.5522,-2.5332,-2.4842,-2.43,-2.3958,-2.3383,-2.2729,-2.2154,-2.1949,-2.1889,-2.1845,-2.1597,-2.1485,-2.1804,-2.1587,-2.1036,-1.9924,-1.931,-1.9025,-1.9122,-1.8593,0.0,-1.7493,-1.7418,-1.719,-1.664,-1.6318,-1.5806,-1.4958,-1.4226,-1.3139,-1.1556,-1.0801,-1.0164,-0.9597,-0.8687,-0.7875,-0.722,-0.6448,-0.5857,0.0,0.0,0.0,0.0,0.0,0.0,0.0,0.0,0.0,0.0,0.0,0.0,0.0,0.0,0.0,0.0,0.0,0.0,0.0,0.0,0.0,0.0,-2.1479,-2.2779,-2.429,-2.5325,-2.643,-2.7748,-2.8324,-2.8589,-2.8495,-2.9308,-2.9791,-2.9701,-3.049,-3.0894,-3.078,-3.078,-3.0932,-3.1286,-3.1295,-3.1539,-3.2006,-3.214,-3.2194,-3.2194,-3.2354,-3.2228,-3.1898,-3.1898,-3.1458,-3.0705,-3.0705,-3.0448,-2.9996,-2.9844,-2.9342,0.0,0.0,0.0,0.0,0.0,-2.6069,-2.5934,-2.6139,-2.6322,-2.6466,-2.6335,-2.6496,-2.6639,-2.6171,-2.5793,-2.5512,-2.5482,-2.4807,-2.4135,-2.41,-2.3596,-2.301,-2.2653,-2.2476,-2.2321,-2.2052,-2.176,-2.1593,-2.1807,-2.1451,0.0,-2.0063,-1.9909,-1.9918,-1.9918,-1.9445,-1.8971,-1.8644,-1.8386,-1.7987,-1.7306,-1.6562,-1.5703,-1.4682,-1.3839,0.0,0.0,0.0,-1.0152,-0.9372,-0.8604,0.0,0.0,0.0,0.0,0.0,0.0,0.0,0.0,-0.4274,-0.3978,0.0,0.0,0.0,0.0,0.0,0.0,0.0,0.0,0.0,0.0,0.0,0.0,0.0,0.0,0.0,0.0,-2.3692,-2.5041,-2.7237,-2.7691,-2.8081,-2.8758,-2.9542,-2.9975,-2.988,-3.0676,-3.1147,-3.0988,-3.1605,-3.2006,-3.2016,0.0,0.0,0.0,0.0,-3.2102,-3.2195,-3.2734,-3.3012,-3.3012,-3.3545,-3.344,-3.2729,-3.2729,-3.2302,-3.1544,-3.1544,-3.1488,-3.1403,-3.1359,-3.0698,-2.9575,-2.8413,-2.7757,-2.7439,-2.7213,-2.696,-2.6644,-2.614,0.0,0.0,-2.5565,-2.5645,-2.5854,-2.5765,-2.525,-2.4717,-2.4925,-2.4359,-2.366,-2.3735,-2.3454,-2.3177,-2.3319,-2.3182,-2.2935,-2.2655,-2.2069,-2.1511,-2.1238,-2.0706,-2.0278,-2.0248,-2.0448,-2.0666,-2.0729,-2.0431,-2.0196,-2.0195,-1.9714,-1.8902,-1.7679,0.0,0.0,-1.4181,-1.3488,-1.2865,-1.2348,-1.1716,-1.0664,-0.9108,-0.8739,-0.8361,-0.7895,-0.7501,-0.6975,-0.6332,-0.5952,-0.5277,-0.4345,-0.4478,-0.4242,0.0,0.0,0.0,0.0,0.0,0.0,0.0,0.0,0.0,0.0,0.0,0.0,0.0,0.0,0.0,-2.4388,-2.6403,-2.7884,-2.8305,-2.9583,-3.0442,-3.0377,-3.0528,-3.0866,-3.1483,-3.1709,-3.1911,-3.2089,-3.2023,-3.2016,-3.2076,-3.187,-3.1985,-3.2477,-3.2483,-3.2797,-3.3454,-3.3569,-3.3629,-3.3629,0.0,0.0,-3.3568,-3.3568,-3.3128,-3.2375,-3.2375,-3.2008,-3.1384,-3.118,-3.0712,-3.0003,-2.8443,-2.7592,-2.7243,-2.7195,-2.731,-2.7423,-2.7046,-2.7256,-2.7495,-2.6577,-2.6297,-2.6233,-2.5587,-2.5288,0.0,-2.4975,-2.4788,-2.4462,-2.3691,-2.3414,-2.3207,-2.2665,-2.2484,-2.236,-2.203,-2.178,-2.1501,-2.1187,-2.0972,-2.0751,-2.0476,-1.9966,-1.9772,-2.033,-1.9892,-1.9504,-1.9561,-1.9325,-1.8964,-1.8422,-1.7576,-1.6566,-1.5369,-1.4664,-1.3539,-1.1871,-1.0924,-0.9929,-0.8742,-0.8885,-0.8621,-0.7824,-0.7476,-0.7052,-0.6531,-0.6238,-0.5807,-0.524,-0.4519,-0.3857,0.0,0.0,0.0,0.0,0.0,0.0,0.0,0.0,0.0,0.0,0.0,-2.1098,-2.2251,0.0,-2.5043,-2.6987,-2.8395,-2.9501,-3.0196,-3.1072,-3.1431,-3.0865,-3.079,-3.1128,-3.1962,-3.2297,-3.2529,-3.2693,-3.2814,-3.2917,-3.2959,-3.281,-3.2889,-3.3183,-3.3201,-3.3385,-3.3807,-3.3807,-3.3807,-3.3807,-3.3807,-3.3807,-3.3807,-3.3766,-3.3533,-3.3153,-3.3126,-3.2875,-3.2446,-3.1691,-3.1166,-3.0659,-2.9217,-2.8394,-2.7997,-2.76,-2.7461,-2.743,-2.726,-2.7398,-2.7566,-2.7021,-2.6839,-2.6817,-2.6576,-2.6106,-2.5649,-2.5692,-2.5314,-2.4821,-2.4456,-2.3881,-2.3335,-2.3105,-2.2663,-2.2209,-2.1871,-2.1751,-2.1583,-2.1181,-2.0943,-2.073,-2.0515,-1.9752,-1.94,-2.0093,-1.945,-1.8976,-1.9233,-1.8667,-1.811,-1.7693,-1.7054,-1.6224,-1.5139,-1.4247,-1.3044,-1.1407,-1.0829,-1.0057,-0.8954,-0.9032,-0.8673,-0.7766,-0.746,-0.7061,-0.6595,-0.6263,-0.5745,-0.5031,-0.4603,-0.4098,0.0,0.0,0.0,0.0,0.0,0.0,0.0,0.0,-1.9756,-2.073,-2.2134,-2.353,-2.467,-2.6049,-2.7528,-2.9167,-3.0029,-3.0818,-3.1796,-3.1984,-3.174,-3.0976,-3.1084,-3.1488,-3.212,-3.2734,-3.3123,-3.3231,-3.3578,-3.3815,-3.3868,-3.3834,-3.3807,-3.3807,-3.3807,-3.3807,-3.3807,-3.3807,-3.3807,-3.3807,-3.3807,-3.3775,-3.378,-3.3726,-3.3657,-3.3587,-3.3441,-3.3383,-3.3314,-3.2334,-3.1708,-3.128,-3.0144,-2.9467,-2.9036,-2.8237,-2.7731,-2.7421,-2.7421,-2.7318,-2.7197,-2.7197,-2.7149,-2.7149,-2.7413,-2.6857,-2.6189,-2.6462,-2.5922,-2.5274,-2.5337,-2.4536,-2.372,-2.3801,-2.3018,-2.2176,-2.1829,-2.1622,-2.1385,-2.0927,-2.0615,-2.0379,-2.026,-1.9571,-1.9265,-1.9954,-1.9159,-1.8585,-1.8873,-1.7997,-1.7118,-1.6507,-1.6066,-1.5455,-1.4584,-1.3512,-1.2387,-1.1185,-1.0976,-1.0411,-0.9338,-0.9245,-0.8782,-0.7843,-0.7594,-0.7209,-0.6673,-0.6311,-0.571,-0.4908,-0.4822,-0.4445,-2.1434,-2.0473,0.0,-1.9601,-1.9474,-1.9959,0.0,0.0,-2.201,-2.3582,-2.4642,-2.5339,-2.556,-2.7529,-2.9233,-2.9457,-3.1399,-3.2604,-3.1767,-3.17,-3.1601,-3.1193,-3.2101,-3.2701,-3.2569,-3.3235,-3.3786,-3.4055,-3.3891,-3.3895,-3.4148,-3.3934,-3.3807,-3.3807,-3.3807,-3.3807,-3.3807,-3.3807,-3.3807,-3.3807,-3.3807,-3.378,-3.3712,-3.3698,-3.3512,-3.3142,-3.2779,-3.2616,-3.2616,-3.2413,-3.2091,-3.1653,-3.0802,-3.0277,-2.9883,-2.9118,-2.8562,-2.8179,-2.8179,-2.7748,-2.7197,-2.7197,-2.7005,-2.6758,-2.6808,-2.6723,-2.6639,-2.6656,-2.6588,-2.6351,-2.5739,-2.5211,-2.4663,-2.4032,-2.2981,-2.2035,-2.168,-2.1021,-2.0348,-1.9997,-1.9871,-1.9675,-1.931,-1.9159,-1.9292,-1.9919,-1.9104,-1.837,-1.8227,-1.758,-1.6729,-1.5664,-1.5562,-1.5261,-1.4563,-1.3512,-1.2513,-1.1597,-1.1134,-1.0524,-0.9669,-0.9629,-0.9195,-0.8261,-0.8153,-0.7717,-0.6953,-0.6731,-0.6418,-0.6006,-0.5353,-0.4418,-2.3239,0.0,0.0,0.0,-2.1956,-2.2465,-2.3108,-2.3737,-2.4379,-2.5071,-2.6263,-2.713,-2.7008,-2.8734,-3.0273,0.0,-3.1922,-3.2954,-3.2787,-3.292,-3.257,-3.1352,-3.2631,-3.3414,-3.2835,-3.2941,-3.3353,-3.4148,-3.3908,-3.3793,-3.3895,-3.3766,-3.3684,-3.3684,-3.3684,-3.3684,-3.3684,-3.3684,-3.3684,-3.3684,-3.3684,-3.3671,-3.3629,-3.3605,-3.3339,-3.2923,-3.2747,-3.255,-3.2384,-3.2351,-3.2109,-3.1699,-3.137,-3.1043,-3.0598,-2.9433,-2.888,-2.8714,-2.8714,-2.851,-2.8203,-2.7924,-2.7622,-2.73,-2.706,-2.6858,-2.6691,-2.6691,-2.6522,-2.6266,-2.5965,-2.5273,-2.4563,-2.4167,-2.3361,-2.2475,-2.171,-2.1272,-2.0771,-1.9962,-1.9584,-1.9332,-1.9139,-1.8898,-1.8841,-1.9087,-1.8245,-1.7712,-1.8002,-1.7058,-1.6028,-1.5201,-1.4691,-1.414,-1.3565,-1.3103,-1.2471,-1.1597,-1.1353,-1.0897,-1.0072,-0.9703,-0.9135,-0.8324,-0.7925,-0.7468,-0.695,-0.6696,-0.6455,-0.6174,-0.541,-0.4606,-2.3986,0.0,0.0,-2.3236,-2.4061,-2.4854,-2.4131,-2.5261,-2.6464,-2.6457,-2.7559,-2.8452,-2.827,-2.9482,-3.0661,-3.1117,-3.2032,-3.2904,-3.3478,-3.3368,-3.2687,-3.1318,-3.2001,-3.2533,-3.241,-3.2676,-3.3204,-3.4037,-3.3855,-3.3726,-3.3698,-3.3643,-3.3633,-3.3605,-3.3605,-3.3605,-3.3605,-3.3605,-3.3545,-3.3473,-3.3473,-3.3383,-3.3247,-3.3081,-3.2829,-3.2502,-3.2401,-3.2214,-3.1985,-3.1985,-3.1805,-3.1564,-3.1564,-3.1408,-3.1055,-3.0008,-2.9484,-2.9314,-2.9314,-2.9179,-2.8927,-2.8613,-2.8339,-2.8011,-2.7385,-2.7029,-2.6774,-2.6452,-2.6157,-2.5924,-2.5924,-2.5185,-2.4428,-2.4337,-2.3647,-2.2797,-2.2028,-2.1689,-2.1256,-2.024,-1.9812,-1.9478,-1.9003,-1.8688,-1.8383,-1.8054,-1.7369,-1.7089,-1.7523,-1.6248,-1.5192,-1.489,-1.4004,-1.335,-1.3095,-1.2709,-1.2142,-1.1408,-1.1204,-1.0832,-1.0164,-0.9544,-0.8906,-0.8275,-0.7655,-0.7181,-0.6836,-0.659,-0.6409,-0.6248,-0.5365,-0.4751,0.0,0.0,-2.5556,-2.3669,-2.5062,-2.6689,-2.5825,-2.6915,-2.8129,-2.8129,-2.8635,-2.906,-2.9078,-2.9586,-3.0275,-3.1071,-3.1886,-3.2675,-3.3397,-3.2174,-3.1129,-3.103,-2.9676,-2.9406,0.0,-3.2747,-3.377,-3.382,-3.3788,-3.378,-3.3698,-3.3698,-3.3657,-3.3605,-3.3605,-3.3605,-3.3605,-3.3605,-3.3444,-3.3111,-3.3111,-3.2876,-3.2419,-3.1967,-3.175,-3.1714,-3.1389,-3.1249,-3.123,-3.123,-3.123,-3.121,-3.121,-3.121,-3.119,-3.114,-3.0683,-3.0074,-3.0074,-2.96,-2.8993,-2.8977,-2.8959,-2.8734,-2.7544,-2.7182,-2.696,-2.5847,-2.5465,-2.5406,-2.5406,-2.5024,-2.4592,-2.4592,-2.3677,-2.2798,-2.2762,-2.2199,-2.149,-2.0812,-2.0658,-2.0188,-1.8768,-1.85,-1.8094,-1.6942,-1.6718,-1.6682,-1.6566,-1.5092,-1.4251,-1.4761,-1.3733,-1.3212,-1.3729,-1.2466,-1.147,-1.1032,-1.0477,-1.0009,-0.9721,-0.9073,-0.8561,-0.8198,-0.7558,-0.7048,-0.6715,-0.6496,-0.6432,-0.6468,-0.5334,-0.4727,0.0,0.0,-2.5044,-2.5316,-2.6469,-2.7463,-2.7163,-2.7949,-2.8735,-2.8735,-2.9003,-2.9198,-2.906,-2.9715,-3.0478,-3.1097,-3.1833,-3.2597,-3.3328,-3.2966,-3.2208,-3.1125,-3.1497,0.0,0.0,0.0,0.0,-3.3584,-3.3633,-3.3591,-3.3577,-3.352,-3.3495,-3.3466,-3.3466,-3.372,-3.4265,-3.4265,-3.4459,-3.4891,-3.458,-3.3946,-3.3055,-3.2913,-3.2418,-3.1695,-3.1582,-3.1408,-3.119,-3.119,-3.119,-3.119,-3.119,-3.119,-3.119,-3.119,-3.0787,-3.0292,-3.0701,-3.0666,-3.0378,-2.9888,-2.9736,-2.9509,-2.8303,-2.7592,-2.7054,-2.6315,-2.5563,-2.4977,-2.4883,-2.4538,-2.4183,-2.4099,-2.3764,-2.3224,-2.2397,-2.202,-2.1543,-2.0559,-2.0154,-1.9698,-1.879,-1.8417,-1.7758,-1.6331,-1.625,-1.6265,-1.5936,-1.513,-1.4502,-1.4284,-1.3438,-1.2851,-1.2818,-1.2193,-1.158,-1.1104,-1.0872,-1.0474,-0.9867,-0.9025,-0.8419,-0.8062,-0.6833,-0.6322,-0.6568,-0.6136,-0.6223,-0.6742,-0.5508,-0.4994,0.0,-2.5589,-2.5977,-2.6843,-2.7743,-2.8439,-2.8416,-2.8603,-2.8791,-2.8791,-2.8612,-2.8408,-2.8238,-2.8622,-2.9357,-3.0567,-3.1164,-3.1915,-3.3256,-3.3183,-3.2607,-3.156,-3.2131,-3.2428,0.0,0.0,0.0,-3.3482,-3.3563,-3.352,-3.3509,-3.3466,-3.3422,-3.3393,-3.3256,-3.3574,-3.4387,-3.4239,-3.4503,-3.5153,-3.471,-3.4116,-3.3382,-3.3142,-3.2612,-3.1901,-3.1644,-3.1408,-3.119,-3.119,-3.119,-3.119,-3.1151,-3.1131,-3.1131,-3.1131,-3.0757,-3.0293,-3.072,-3.074,-3.0472,-3.0008,-2.9838,-2.9645,-2.8437,-2.7745,-2.7223,-2.6471,-2.5545,-2.4782,-2.4683,-2.4261,-2.3839,-2.3739,-2.3739,-2.3468,-2.2476,-2.2258,-2.1917,-2.0787,-2.036,-1.9924,-1.9157,-1.8302,-1.7216,-1.5828,-1.5657,-1.5558,-1.53,-1.4987,-1.4614,-1.4127,-1.3215,-1.2508,-1.2155,-1.1671,-1.1172,-1.0599,-1.0538,-1.0222,-0.9545,-0.8692,-0.8149,-0.7939,-0.6593,-0.6018,-0.6242,-0.5748,-0.5761,-0.6199,-0.516,-0.4782,-2.5,-2.6497,-2.8241,-2.8087,-2.8825,-2.9533,-2.9436,-2.8877,-2.8358,-2.8321,-2.7568,-2.686,0.0,0.0,-2.7246,-2.9557,-2.995,-3.077,-3.315,-3.2837,-3.2319,0.0,0.0,0.0,0.0,0.0,0.0,-3.3516,0.0,-3.3534,-3.3462,-3.3448,-3.3404,-3.3349,-3.3008,-3.321,-3.4032,-3.3741,-3.3765,-3.4103,-3.3717,-3.3529,-3.344,-3.2733,-3.2361,-3.2259,-3.1546,-3.1224,-3.119,-3.119,-3.119,-3.119,-3.1055,-3.0995,-3.0975,-3.0955,-3.0555,-3.0038,-3.0166,-2.9848,-2.9406,-2.9406,-2.9406,-2.9188,-2.8088,-2.7732,-2.7479,-2.6344,-2.5478,-2.4837,-2.48,-2.4222,-2.3611,-2.3575,-2.356,-2.3399,-2.2912,-2.2822,-2.2491,-2.1389,-2.115,-2.0784,-1.9737,-1.8113,-1.6596,-1.5461,-1.4937,-1.4674,-1.4674,-1.4627,-1.4477,-1.4199,-1.3114,-1.2263,-1.1836,-1.1031,-1.0271,-0.9652,-0.9545,-0.9306,-0.8804,-0.8142,-0.7795,-0.7795,-0.6768,-0.6091,-0.5795,-0.536,-0.5099,-0.5005,-0.4388,-0.4122,-2.6702,-2.7515,-2.8067,-2.8596,-2.8953,-2.8982,-2.837,-2.8088,-2.7777,-2.7185,-2.696,-2.6665,0.0,0.0,0.0,-2.8925,-3.002,0.0,-3.3169,-3.3241,0.0,0.0,0.0,-3.374,-3.3836,-3.3657,0.0,0.0,-3.3166,-3.3001,-3.297,-3.2749,-3.2602,-3.2569,-3.3017,-3.3618,-3.4446,-3.548,-3.5913,-3.5711,-3.5607,-3.5087,-3.4201,-3.4015,-3.3343,-3.2293,-3.2107,-3.1718,-3.119,-3.119,-3.119,-3.119,-3.1055,-3.0797,-3.0477,-3.0372,-2.9733,-2.8919,-2.8966,-2.9157,-2.9406,-2.9406,-2.9406,-2.9284,-2.863,-2.81,-2.7549,-2.6799,-2.6096,-2.5407,-2.487,-2.4268,-2.3702,-2.3268,-2.2817,-2.2337,-2.1874,-2.1779,-2.1585,-2.0944,-2.0377,-1.9782,-1.9036,-1.7648,-1.6302,-1.5364,-1.4722,-1.4373,-1.4466,-1.4466,-1.4233,-1.3658,-1.3165,-1.2594,-1.1926,-1.1478,-1.0832,-0.9875,-0.9811,-0.9438,-0.8616,-0.799,-0.7652,-0.7652,-0.6232,-0.558,-0.5795,-0.4943,-0.4744,-0.5123,-0.4536,-0.4315,-2.7608,-2.8167,-2.8448,-2.8895,-2.9005,-2.8785,-2.797,-2.753,-2.6943,-2.5786,-2.5363,0.0,0.0,0.0,0.0,0.0,0.0,0.0,-3.2653,-3.3528,-3.3888,0.0,-3.4049,0.0,-3.4269,-3.3649,-3.344,0.0,-3.3388,-3.3065,-3.3065,-3.3178,-3.3266,-3.3266,-3.3522,-3.3944,-3.455,-3.5725,-3.6203,-3.6002,-3.6002,-3.5606,-3.493,-3.4575,-3.3756,-3.2618,0.0,-3.1763,-3.1072,-3.1072,-3.1072,-3.1052,-3.0915,-3.0576,-3.0161,-3.0097,-2.9361,-2.8439,-2.8487,-2.8543,-2.8614,-2.8614,-2.8614,-2.8567,-2.8295,-2.7962,-2.7599,-2.7242,-2.6678,-2.5986,-2.5335,-2.4708,-2.4038,-2.3209,-2.2726,-2.2299,-2.1561,-2.1264,-2.0896,-2.0105,-1.9636,-1.9057,-1.8156,-1.7305,-1.6361,-1.5162,-1.4661,-1.4281,-1.3844,-1.3847,-1.3671,-1.3184,-1.2759,-1.228,-1.1694,-1.1502,-1.0948,-0.9836,-0.9703,-0.9245,-0.8278,-0.7791,-0.7565,-0.7565,-0.6187,-0.5495,-0.5568,-0.4566,-0.4223,-0.4495,-0.4093,-0.3948,-2.8085,-2.857,-2.9005,-2.9005,-2.8932,-2.862,-2.7824,-2.6943,-2.586,-2.4355,0.0,0.0,-2.1776,0.0,-2.3704,-2.5957,0.0,-2.9504,-3.1878,-3.3495,-3.4305,-3.3959,-3.4014,-3.4198,-3.4493,-3.3212,-3.2897,-3.4207,-3.3733,-3.3419,-3.3473,-3.403,-3.4394,-3.4498,-3.4222,-3.4254,-3.4624,-3.5278,-3.56,-3.56,-3.5577,-3.5549,-3.5475,-3.4746,-3.3901,-3.2961,-3.231,-3.1537,-3.0712,-3.0712,-3.0712,-3.0692,-3.0551,-3.0204,-2.9793,-2.9793,-2.9111,-2.8231,-2.8343,-2.8042,-2.76,-2.76,-2.76,-2.76,-2.76,-2.7534,-2.7484,-2.7484,-2.7006,-2.6347,-2.5763,-2.511,-2.4344,-2.3272,-2.2898,-2.2525,-2.148,-2.0848,-2.0194,-1.9133,-1.8934,-1.8528,-1.7349,-1.7081,-1.6495,-1.497,-1.4685,-1.4256,-1.313,-1.3104,-1.304,-1.2725,-1.2181,-1.1678,-1.1276,-1.1217,-1.0727,-0.9588,-0.9406,-0.889,-0.7901,-0.7601,-0.7467,-0.7467,-0.6317,-0.5582,-0.5304,-0.4263,-0.3716,-0.3583,-0.3444,-0.3385,-2.8635,-2.89,-2.9005,-2.9005,-2.8503,-2.7805,-2.6998,-2.5676,0.0,0.0,0.0,-2.1757,-2.0878,-2.242,0.0,-2.5251,0.0,0.0,0.0,0.0,-3.3247,0.0,0.0,0.0,0.0,0.0,0.0,0.0,0.0,-3.3536,-3.3874,-3.3696,-3.387,-3.4466,-3.4436,-3.4723,-3.5397,-3.5532,-3.56,-3.56,-3.5543,-3.5514,-3.5492,-3.5249,-3.4139,-3.2428,-3.2313,0.0,-2.9651,-2.9651,-2.9651,-2.9651,-2.9524,-2.9164,-2.8748,-2.8638,-2.8231,-2.7735,-2.776,-2.7685,-2.76,-2.76,-2.76,-2.76,-2.76,-2.7255,-2.6867,-2.6867,-2.6424,-2.5818,-2.5273,-2.4668,-2.4013,-2.3336,-2.2445,-2.1524,-2.0741,-1.9693,-1.8845,-1.8632,-1.8498,-1.8182,-1.7461,-1.6927,-1.6219,-1.511,-1.4617,-1.405,-1.3113,-1.3012,-1.2774,-1.2141,-1.1769,-1.1402,-1.0998,-1.0769,-1.019,-0.9164,-0.9086,-0.8613,-0.7601,-0.7419,-0.7338,-0.7338,-0.6046,-0.5363,-0.5304,-0.4187,-0.3555,-0.3441,-0.3413,-0.3302,-2.8697,-2.894,-2.897,-2.8994,-2.837,-2.7534,-2.6735,0.0,0.0,0.0,0.0,-2.0827,-1.9988,0.0,0.0,0.0,0.0,0.0,0.0,0.0,0.0,0.0,0.0,0.0,0.0,0.0,0.0,0.0,0.0,-3.3897,-3.3714,-3.4219,-3.4726,-3.5064,-3.5081,-3.525,-3.56,-3.56,-3.5577,-3.5543,-3.5514,-3.5251,-3.4826,-3.4421,-3.3301,-3.1661,-3.1347,0.0,-2.9241,-2.9241,-2.9241,-2.9241,-2.9157,-2.8834,-2.8376,-2.8328,-2.8002,-2.76,-2.76,-2.76,-2.7549,-2.7229,-2.7331,-2.76,-2.76,-2.7178,-2.6709,-2.6709,-2.6256,-2.5687,-2.5132,-2.4788,-2.4309,-2.3317,-2.2116,-2.0869,-1.9721,-1.8974,-1.837,-1.775,-1.7556,-1.7307,-1.6645,-1.6269,-1.5744,-1.4768,-1.4443,-1.3927,-1.2878,-1.2808,-1.261,-1.1972,-1.1469,-1.1099,-1.0922,-1.0429,-0.9821,-0.9053,-0.8712,-0.8217,-0.7521,-0.7306,-0.723,-0.729,-0.5991,-0.5304,-0.5304,-0.4076,-0.3471,-0.3385,-0.3221,-0.3081,-2.8456,-2.8753,-2.8893,-2.894,-2.8178,-2.7222,-2.6406,-2.4793,0.0,0.0,0.0,-1.9948,-1.932,0.0,0.0,0.0,0.0,0.0,0.0,0.0,0.0,0.0,0.0,0.0,0.0,0.0,0.0,0.0,0.0,-3.432,-3.3897,-3.4805,-3.5346,-3.5346,-3.5341,-3.5324,-3.5324,-3.534,-3.531,-3.5251,-3.4968,-3.4475,-3.3802,-3.3137,-3.2072,-3.0712,-3.0217,0.0,0.0,-2.8772,-2.8772,-2.8772,-2.8772,-2.8535,-2.8158,-2.8158,-2.7919,-2.76,-2.76,-2.7524,-2.7331,-2.6852,-2.7023,-2.7382,-2.724,-2.68,-2.6324,-2.6324,-2.5878,-2.5273,-2.4694,-2.4523,-2.4134,-2.2815,-2.156,-2.0274,-1.8936,-1.8438,-1.7972,-1.7031,-1.6683,-1.6392,-1.5788,-1.5585,-1.5235,-1.4315,-1.4183,-1.3741,-1.2543,-1.2492,-1.2353,-1.1843,-1.1309,-1.0939,-1.0814,-1.0142,-0.9477,-0.8909,-0.8343,-0.7824,-0.7434,-0.7219,-0.7085,-0.7063,-0.5882,-0.5195,-0.5058,-0.3907,-0.333,-0.3274,-0.3028,-0.2888,-2.7886,-2.8244,-2.881,-2.8828,-2.7654,-2.6315,-2.5491,0.0,0.0,0.0,-1.9875,-1.9283,-1.9211,0.0,0.0,0.0,0.0,0.0,0.0,0.0,0.0,0.0,0.0,0.0,0.0,0.0,0.0,0.0,-3.3715,-3.4759,-3.5363,-3.4895,-3.459,-3.459,-3.4464,-3.442,-3.442,-3.4485,-3.4504,-3.448,-3.3257,-3.2654,-3.2547,-3.1746,-3.0705,-2.9546,-2.95,-2.8801,0.0,-2.7735,-2.7735,-2.7735,-2.7735,-2.771,-2.766,-2.766,-2.765,-2.76,-2.76,-2.7229,-2.6774,-2.6736,-2.6736,-2.6669,-2.6149,-2.5591,-2.5174,-2.5174,-2.4635,-2.3923,-2.3195,-2.2912,-2.2517,-2.1206,-2.0339,-1.963,-1.8947,-1.7924,-1.7115,-1.7014,-1.6322,-1.5788,-1.5701,-1.5313,-1.4697,-1.3888,-1.376,-1.3352,-1.2188,-1.206,-1.1908,-1.1475,-1.1344,-1.1079,-1.0586,-0.9911,-0.9214,-0.8493,-0.8017,-0.7563,-0.7166,-0.7112,-0.6837,-0.6317,-0.5519,-0.4862,-0.4288,-0.3516,-0.3079,-0.2944,-0.2916,-0.2833,-2.7493,-2.813,-2.8634,-2.8196,-2.6843,-2.5401,-2.46,0.0,0.0,-2.0417,-1.9708,-1.9137,-1.9137,-1.9782,0.0,0.0,0.0,0.0,0.0,0.0,0.0,0.0,0.0,0.0,0.0,0.0,0.0,0.0,-3.3465,-3.39,-3.4095,-3.4356,-3.4484,-3.4435,-3.397,-3.3701,-3.3684,-3.3724,-3.3543,-3.3199,-3.2661,-3.1985,-3.118,-3.0442,-2.9682,-2.8894,-2.8495,-2.8052,0.0,-2.76,-2.76,-2.76,-2.76,-2.76,-2.76,-2.76,-2.7357,-2.7074,-2.7074,-2.6654,-2.6095,-2.5783,-2.5577,-2.5536,-2.5728,-2.5328,-2.4808,-2.4808,-2.4276,-2.3569,-2.2877,-2.2286,-2.1631,-2.068,-2.0172,-1.9681,-1.8753,-1.8176,-1.7688,-1.712,-1.6476,-1.5821,-1.5087,-1.4529,-1.3902,-1.3086,-1.2964,-1.2641,-1.1714,-1.1943,-1.1889,-1.1127,-1.1091,-1.0912,-1.0376,-0.9713,-0.9,-0.8273,-0.7771,-0.74,-0.7117,-0.6756,-0.6399,-0.6091,-0.5081,-0.4395,-0.4091,-0.3327,-0.2942,-0.2888,-0.2805,-0.2635,-2.6309,-2.7162,-2.7846,-2.7318,-2.6113,-2.4791,0.0,0.0,-2.0518,-2.0047,-1.9485,-1.9095,-1.9095,-1.9757,-2.0753,0.0,0.0,0.0,0.0,0.0,0.0,0.0,0.0,0.0,0.0,0.0,0.0,-3.2874,-3.3033,-3.3031,-3.29,-3.3167,-3.3362,-3.3456,-3.2779,-3.2401,-3.2422,-3.2442,-3.2238,-3.1814,-3.1448,-3.0773,-2.9847,-2.9159,-2.8657,-2.8263,-2.7809,0.0,0.0,-2.76,-2.76,-2.76,-2.76,-2.7484,-2.7331,-2.728,-2.6878,-2.6363,-2.6336,-2.5933,-2.5342,-2.4978,-2.4637,-2.4452,-2.4979,-2.4794,-2.4379,-2.4379,-2.3708,-2.2781,-2.2039,-2.1302,-2.0581,-2.0085,-1.9868,-1.9564,-1.8683,-1.8248,-1.777,-1.7051,-1.6159,-1.5249,-1.4417,-1.3761,-1.3117,-1.2482,-1.2236,-1.1895,-1.124,-1.1421,-1.1358,-1.0636,-1.066,-1.0565,-1.0261,-0.9551,-0.8814,-0.8151,-0.7581,-0.7198,-0.6987,-0.6372,-0.5905,-0.5624,-0.4615,-0.3959,-0.3683,-0.3107,-0.2833,-0.2833,-0.2635,-0.2338,-2.4049,-2.5009,-2.6222,-2.6222,-2.5606,-2.4592,0.0,-2.2083,-2.1043,-1.9431,-1.9113,-1.9095,-1.9095,-1.9757,-2.0572,0.0,0.0,0.0,0.0,0.0,0.0,0.0,0.0,0.0,0.0,0.0,0.0,-3.2014,-3.226,0.0,-3.2399,-3.1218,-3.0745,-3.121,-3.0654,-3.0329,-3.0329,-3.041,-3.0438,-3.0413,-2.9206,-2.8633,-2.8592,-2.7914,-2.7615,-2.76,-2.76,0.0,0.0,-2.76,-2.76,-2.76,-2.76,-2.7229,-2.6709,-2.6563,-2.6122,-2.5591,-2.5453,-2.5007,-2.4509,-2.4509,-2.4102,-2.3628,-2.3628,-2.3628,-2.3628,-2.3628,-2.2537,-2.123,-2.0355,-1.9616,-1.9131,-1.9098,-1.9098,-1.9031,-1.8831,-1.7879,-1.6963,-1.6736,-1.5106,-1.3712,-1.3703,-1.3047,-1.2428,-1.2158,-1.1654,-1.1178,-1.0839,-1.0345,-1.0015,-1.0021,-1.0015,-1.0089,-1.0279,-0.9431,-0.8663,-0.814,-0.7412,-0.6918,-0.6712,-0.5987,-0.5328,-0.4725,-0.4125,-0.3522,-0.2916,-0.2775,-0.2691,-0.2691,-0.2352,-0.1911,-2.328,-2.4194,-2.5135,-2.4074,-2.3622,-2.3006,-2.1423,-2.0862,-2.0373,-1.9331,-1.9095,-1.9095,-1.9095,-1.9313,-2.0101,-2.2011,0.0,0.0,0.0,0.0,0.0,0.0,0.0,0.0,0.0,0.0,-3.1083,-3.065,-3.0762,-3.0635,-3.0163,-2.9501,-2.958,-3.0553,-2.9904,-2.9556,-2.9617,-2.9651,-2.9496,-2.9165,-2.8786,-2.8353,-2.7914,-2.7705,-2.76,0.0,0.0,0.0,0.0,-2.76,-2.76,-2.7575,-2.7152,-2.68,-2.651,-2.6041,-2.5425,-2.4851,-2.4794,-2.4408,-2.3868,-2.3868,-2.3382,-2.2781,-2.2781,-2.3095,-2.333,-2.2738,-2.1585,-2.0452,-2.0161,-1.9584,-1.9075,-1.8942,-1.8875,-1.8697,-1.8003,-1.7547,-1.7028,-1.6136,-1.5193,-1.4272,-1.3508,-1.2869,-1.2222,-1.1339,-1.1059,-1.0674,-0.9881,-0.9901,-0.9862,-0.955,-0.9288,-0.9253,-0.9599,-0.934,-0.876,-0.7825,-0.7537,-0.723,-0.6779,-0.5793,-0.5115,-0.4847,-0.3876,-0.3257,-0.2962,-0.293,-0.2751,-0.2486,-0.1914,-0.1353,-2.1849,-2.2727,-2.3451,-2.2481,-2.2246,-2.1902,-2.0608,-2.03,-2.0065,-1.9276,-1.9036,-1.8984,-1.8984,-1.9138,-1.9783,-2.1299,0.0,0.0,0.0,0.0,0.0,0.0,0.0,0.0,0.0,-3.0344,-3.0262,-2.9705,-2.9496,-2.9248,-2.8826,-2.8391,-2.8504,-2.927,-2.8841,-2.8625,-2.8642,-2.8657,-2.8521,-2.8203,-2.8203,-2.8004,-2.76,-2.76,-2.76,-2.76,0.0,0.0,0.0,-2.7163,-2.7034,-2.6733,-2.6363,-2.6014,-2.5673,-2.5259,-2.4681,-2.406,-2.4002,-2.3721,-2.3378,-2.3125,-2.2525,-2.1908,-2.1908,-2.2187,-2.2353,-2.1585,-2.073,-2.0031,-1.9781,-1.9363,-1.8975,-1.8841,-1.8741,-1.8428,-1.7482,-1.706,-1.652,-1.5429,-1.4665,-1.3918,-1.3076,-1.2435,-1.1765,-1.0943,-1.0485,-1.0009,-0.937,-0.9364,-0.9262,-0.885,-0.8587,-0.849,-0.8624,-0.8624,-0.827,-0.745,-0.731,-0.6966,-0.6341,-0.5362,-0.4692,-0.4415,-0.3414,-0.2895,-0.2895,-0.2772,-0.2463,-0.2002,-0.1386,-0.0867,0.0,-2.0717,-2.1405,-2.1351,-2.1369,-2.1206,-2.0391,-2.0264,0.0,-1.9259,-1.8923,-1.8806,-1.885,-1.9257,-1.9647,-1.9823,0.0,0.0,0.0,0.0,0.0,0.0,0.0,0.0,0.0,-2.9389,-2.955,-2.9074,-2.8637,-2.8365,-2.8317,-2.7966,-2.772,-2.7675,-2.766,-2.7645,-2.76,-2.76,-2.76,-2.76,-2.76,-2.7575,-2.7549,-2.7575,-2.7575,0.0,0.0,0.0,0.0,-2.6457,-2.6014,-2.5398,-2.5342,-2.4979,-2.4452,-2.4292,-2.3868,-2.336,-2.3168,-2.3078,-2.2914,-2.2206,-2.1553,-2.1028,-2.0965,-2.0996,-2.0901,-2.0291,-2.0063,-1.9879,-1.9198,-1.8875,-1.8707,-1.863,-1.8462,-1.8056,-1.7104,-1.6393,-1.5623,-1.4708,-1.3727,-1.2943,-1.258,-1.1873,-1.1243,-1.0851,-0.9938,-0.9259,-0.921,-0.8765,-0.8317,-0.7987,-0.7954,-0.7792,-0.7493,-0.7493,-0.7376,-0.7092,-0.6827,-0.6306,-0.5552,-0.4782,-0.4139,-0.3617,-0.2789,-0.2484,-0.2669,-0.2327,-0.1891,-0.1394,-0.0836,-0.044,-1.7491,0.0,-2.0427,-1.9811,-2.0137,-2.0373,0.0,-1.9866,0.0,0.0,0.0,0.0,0.0,0.0,0.0,0.0,0.0,0.0,0.0,0.0,0.0,0.0,0.0,0.0,0.0,-2.9387,-2.9051,-2.8543,-2.8845,-2.892,-2.8544,-2.891,-2.8903,-2.8368,-2.8353,-2.8113,-2.76,-2.76,-2.76,-2.76,-2.76,-2.7357,-2.6945,-2.7382,-2.7357,0.0,0.0,0.0,-2.6457,-2.5892,-2.5563,-2.5342,-2.4908,-2.4567,-2.4292,-2.3793,-2.3407,-2.3168,-2.3108,-2.275,-2.2144,-2.0942,-2.0441,-2.0226,-1.9715,-1.9944,-2.0291,-2.0128,-1.9715,-1.9131,-1.825,-1.7978,-1.7731,-1.6879,-1.6602,-1.6324,-1.5376,-1.5057,-1.4708,-1.3912,-1.3534,-1.3279,-1.295,-1.234,-1.1614,-1.0719,-0.976,-0.8937,-0.836,-0.7982,-0.7722,-0.7619,-0.7335,-0.7143,-0.704,-0.733,-0.734,-0.6978,-0.651,-0.6034,-0.5603,-0.4632,-0.3911,-0.3516,-0.2668,-0.2276,-0.2309,-0.1913,-0.1681,-0.1549,-0.0725,-0.0132,-1.6153,-1.791,-1.963,-1.9204,-1.9703,-2.0156,-1.9624,0.0,0.0,0.0,0.0,0.0,0.0,0.0,0.0,0.0,0.0,0.0,0.0,0.0,0.0,0.0,0.0,0.0,0.0,-2.8873,-2.8519,-2.8027,-2.8607,-2.8863,-2.8618,-2.922,-2.9307,-2.8622,-2.8607,-2.8263,-2.76,-2.76,-2.76,-2.76,-2.76,-2.7255,-2.6616,-2.6945,-2.6733,0.0,0.0,0.0,-2.5453,-2.5063,-2.4842,-2.4691,-2.4093,-2.3994,-2.4052,-2.3153,-2.272,-2.2598,-2.2279,-2.1741,-2.1069,-2.0355,-1.9879,-1.9551,-1.9108,-1.9231,-1.9485,-1.9485,-1.8988,-1.8317,-1.7731,-1.7242,-1.6749,-1.6149,-1.5939,-1.5623,-1.478,-1.4601,-1.4394,-1.363,-1.3492,-1.3317,-1.2699,-1.1964,-1.1128,-1.0152,-0.9113,-0.8304,-0.7921,-0.7649,-0.7423,-0.7237,-0.7045,-0.6848,-0.6683,-0.6876,-0.6806,-0.6346,-0.6046,-0.558,-0.4888,-0.4156,-0.3422,-0.2651,-0.2252,-0.1951,-0.1681,-0.1277,-0.1076,-0.0975,0.0,0.0705,-1.5572,-1.7287,-1.9,-1.89,-1.9577,-2.0165,0.0,0.0,0.0,0.0,0.0,0.0,0.0,0.0,0.0,0.0,0.0,0.0,0.0,0.0,0.0,0.0,0.0,0.0,-2.8446,-2.8231,-2.8027,-2.7625,-2.8334,-2.8742,-2.8742,-2.9475,-2.9579,-2.8906,-2.8681,-2.8241,-2.7597,-2.7569,-2.7473,-2.7306,-2.7382,-2.6982,-2.6203,-2.6283,-2.5933,-2.5259,0.0,0.0,-2.4424,-2.4308,-2.4197,-2.4079,-2.3559,-2.3578,-2.371,-2.2632,-2.2111,-2.1865,-2.1175,-2.0549,-2.0031,-1.9933,-1.9485,-1.8975,-1.8808,-1.8674,-1.8563,-1.8563,-1.8114,-1.756,-1.7129,-1.6428,-1.5799,-1.5658,-1.549,-1.518,-1.4573,-1.443,-1.4258,-1.363,-1.3419,-1.307,-1.2215,-1.1266,-1.0342,-0.9493,-0.8424,-0.772,-0.7688,-0.7507,-0.7245,-0.6891,-0.6832,-0.6716,-0.642,-0.6317,-0.605,-0.5514,-0.5484,-0.4987,-0.3861,-0.3489,-0.2751,-0.1614,-0.1715,-0.1547,-0.1109,-0.0672,-0.0403,-0.0269,0.0873,0.1577,-1.5875,-1.7409,-1.8537,-1.7976,-1.895,-1.9816,0.0,0.0,0.0,0.0,0.0,0.0,0.0,0.0,0.0,0.0,0.0,0.0,0.0,0.0,0.0,0.0,0.0,-2.8589,-2.8328,-2.7929,-2.7685,-2.7625,-2.8753,-2.9457,-2.9457,-3.0582,-3.0898,-3.0238,-2.9047,-2.8144,-2.7534,-2.7473,-2.6919,-2.5919,-2.631,-2.5919,-2.4823,-2.5342,-2.5231,-2.4624,0.0,-2.4657,-2.4928,-2.4303,-2.4287,-2.4662,-2.4562,-2.3956,-2.3123,-2.293,-2.2163,-2.1155,-2.0484,-2.0063,-1.9737,-1.9198,-1.8808,-1.8583,-1.8549,-1.8114,-1.7584,-1.7423,-1.7413,-1.7095,-1.5666,-1.518,-1.4867,-1.4057,-1.3848,-1.3811,-1.3702,-1.3674,-1.3637,-1.3528,-1.3083,-1.2579,-1.2108,-1.1033,-1.0037,-0.9347,-0.842,-0.773,-0.7571,-0.7103,-0.6784,-0.6737,-0.6572,-0.6453,-0.642,-0.5984,-0.5481,-0.4948,-0.4915,-0.4317,-0.2954,-0.2587,-0.2153,-0.1614,-0.1344,-0.1176,-0.1109,-0.0571,-0.0336,-0.0269,0.1141,0.1844,-1.4765,-1.6343,-1.7643,-1.6797,-1.8743,-2.0665,0.0,0.0,0.0,0.0,0.0,0.0,0.0,0.0,0.0,0.0,0.0,0.0,0.0,0.0,0.0,0.0,0.0,-2.8207,-2.7944,-2.7735,-2.775,-2.8124,-2.9052,-2.9702,-2.9963,-3.0887,-3.1053,-3.0314,-2.8999,-2.784,-2.6905,-2.6434,-2.5987,-2.5481,-2.5701,-2.5315,-2.4408,-2.4987,-2.4872,-2.4215,0.0,-2.4278,-2.4492,-2.4147,-2.433,-2.473,-2.4085,-2.3652,-2.3259,-2.1793,-2.0673,-1.9813,-1.9386,-1.9154,-1.9065,-1.8741,-1.8293,-1.791,-1.7774,-1.7242,-1.6532,-1.5904,-1.5877,-1.5842,-1.4966,-1.4446,-1.4021,-1.3601,-1.3492,-1.3492,-1.3492,-1.3492,-1.3339,-1.2806,-1.2469,-1.1946,-1.0901,-1.0045,-0.9346,-0.8684,-0.7948,-0.745,-0.7366,-0.7051,-0.6869,-0.6861,-0.6672,-0.636,-0.591,-0.5533,-0.5054,-0.4422,-0.392,-0.3286,-0.2453,-0.2085,-0.1715,-0.1344,-0.1176,-0.1109,-0.1109,-0.0269,0.0235,0.047,0.1745,0.2549,-1.4411,-1.5731,-1.6968,0.0,0.0,0.0,0.0,0.0,0.0,0.0,0.0,0.0,0.0,0.0,0.0,0.0,0.0,0.0,0.0,0.0,0.0,-2.8183,-2.8134,-2.7978,-2.76,-2.7549,-2.7748,-2.8245,-2.8765,-2.9208,-2.9584,-3.0088,-3.0075,-2.945,-2.8168,-2.6986,-2.5944,-2.4989,-2.4646,-2.4922,-2.5035,-2.4724,-2.4015,-2.4458,-2.4304,-2.3803,-2.3803,-2.3866,-2.4004,-2.4004,-2.4298,-2.4632,-2.3701,-2.3296,-2.2938,-2.0478,-1.9198,-1.8707,-1.8549,-1.8371,-1.8158,-1.8158,-1.7628,-1.6957,-1.6828,-1.6263,-1.5517,-1.4816,-1.4573,-1.4553,-1.4366,-1.3912,-1.3492,-1.3492,-1.3455,-1.3419,-1.3419,-1.3236,-1.2856,-1.2094,-1.1675,-1.1007,-0.9669,-0.9074,-0.8589,-0.8063,-0.7559,-0.7285,-0.7285,-0.7127,-0.7053,-0.7053,-0.6643,-0.594,-0.49,-0.4672,-0.4287,-0.3627,-0.2956,-0.242,-0.2087,-0.1749,-0.1446,-0.1109,-0.1109,-0.1042,-0.0908,0.0134,0.0873,0.131,0.245,0.3255,-1.626,-1.6646,-1.701,-1.8198,0.0,0.0,0.0,0.0,0.0,0.0,0.0,0.0,0.0,0.0,0.0,0.0,0.0,0.0,0.0,0.0,-2.7685,-2.766,-2.7635,-2.76,-2.7427,-2.7427,-2.7391,-2.7307,-2.7416,-2.7478,-2.7521,-2.7554,-2.7558,-2.7487,-2.6142,-2.5151,-2.4536,-2.3193,-2.2857,-2.3539,-2.3985,-2.3826,-2.3198,-2.3236,-2.3218,-2.3158,-2.3158,-2.3471,-2.4004,-2.4004,-2.4221,-2.4492,-2.4422,-2.3201,-2.1281,-1.9521,-1.8707,-1.8516,-1.8516,-1.792,-1.7217,-1.7217,-1.6585,-1.5816,-1.5816,-1.5278,-1.4673,-1.4601,-1.4122,-1.3601,-1.3564,-1.3528,-1.3492,-1.3492,-1.3346,-1.3229,-1.3229,-1.2489,-1.1818,-1.1744,-1.0689,-0.9631,-0.9112,-0.8551,-0.8021,-0.7599,-0.751,-0.7464,-0.7464,-0.7313,-0.7171,-0.7171,-0.61,-0.4754,-0.3228,-0.3084,-0.285,-0.2356,-0.2255,-0.2052,-0.1648,-0.1614,-0.1446,-0.1109,-0.1109,-0.084,-0.037,0.0605,0.1344,0.1878,0.3119,0.3756,-1.5105,-1.5995,-1.6839,-1.6873,0.0,0.0,0.0,0.0,0.0,0.0,0.0,0.0,0.0,0.0,0.0,0.0,0.0,0.0,0.0,-2.7463,-2.7437,-2.7346,-2.7346,-2.7321,-2.7284,-2.6959,-2.6869,-2.7234,-2.6945,-2.6736,-2.668,-2.6676,-2.6476,-2.6018,-2.4748,-2.3978,-2.3766,-2.2457,-2.1936,-2.2207,-2.2394,-2.2337,-2.2133,-2.2794,-2.3108,-2.309,-2.3059,-2.3173,-2.3325,-2.2875,-2.2778,-2.2823,-2.2331,-2.108,-1.9452,-1.8762,-1.8438,-1.8303,-1.7706,-1.7285,-1.6897,-1.6411,-1.5666,-1.5029,-1.5029,-1.4502,-1.3912,-1.3912,-1.3702,-1.3492,-1.3492,-1.3039,-1.2579,-1.2579,-1.202,-1.1502,-1.1502,-1.1205,-1.0757,-1.0126,-0.9599,-0.8998,-0.8203,-0.7863,-0.7676,-0.7522,-0.7484,-0.7484,-0.7484,-0.7423,-0.7117,-0.646,-0.4816,-0.3456,-0.2728,-0.21,-0.171,-0.1514,-0.1715,-0.1749,-0.1614,-0.1412,-0.0941,-0.0235,-0.0235,0.0134,0.0872,0.1577,0.2147,0.2613,0.342,0.3925,-1.4516,-1.5404,-1.6441,0.0,0.0,0.0,0.0,0.0,0.0,0.0,0.0,0.0,0.0,0.0,0.0,0.0,0.0,0.0,-2.7376,-2.735,-2.7233,-2.6959,-2.6919,-2.6814,-2.659,-2.6203,-2.6129,-2.6552,-2.6019,-2.5648,-2.5619,-2.5403,-2.5054,-2.4567,-2.3583,-2.2979,-2.2797,-2.1771,-2.1142,-2.0953,-2.0789,-2.0976,-2.1518,-2.2043,-2.2303,-2.2286,-2.2005,-2.1882,-2.1862,-2.1435,-2.1321,-2.1307,-2.0525,-1.9585,-1.8638,-1.8397,-1.8124,-1.7774,-1.7113,-1.6576,-1.6088,-1.5525,-1.4859,-1.4258,-1.4258,-1.3912,-1.3492,-1.3419,-1.3229,-1.3003,-1.2936,-1.2469,-1.1933,-1.1601,-1.0932,-1.0415,-1.0415,-1.0153,-0.9744,-0.9036,-0.8699,-0.8318,-0.7633,-0.7484,-0.7484,-0.7484,-0.7484,-0.7484,-0.7484,-0.7211,-0.6451,-0.5054,-0.3652,-0.2597,-0.2135,-0.1478,-0.1112,-0.1091,-0.1317,-0.1446,-0.1446,-0.121,-0.0672,0.0269,0.0302,0.0806,0.1844,0.2347,0.2815,0.3251,0.3723,0.4115,-1.502,-1.5157,0.0,0.0,0.0,0.0,0.0,0.0,0.0,0.0,0.0,0.0,0.0,0.0,0.0,0.0,0.0,0.0,-2.7207,-2.7181,-2.6985,-2.6363,-2.6283,-2.6014,-2.5259,-2.5175,-2.5119,-2.5007,-2.4423,-2.4102,-2.4089,-2.3442,-2.3095,-2.3083,-2.2556,-2.2046,-2.1493,-2.0968,-2.0402,-1.9785,-1.9239,-1.9866,-2.1468,-2.0868,-2.0571,-2.0543,-1.9808,-1.9485,-1.9502,-1.976,-2.0007,-2.0096,-1.9437,-1.9109,-1.8944,-1.8462,-1.7706,-1.6897,-1.6862,-1.5877,-1.4601,-1.4601,-1.4086,-1.3492,-1.3492,-1.3492,-1.3455,-1.3236,-1.2622,-1.194,-1.1737,-1.1842,-1.1712,-1.0714,-1.034,-1.0153,-1.0153,-0.941,-0.8699,-0.8699,-0.8055,-0.7484,-0.7484,-0.7484,-0.7484,-0.7484,-0.7484,-0.7484,-0.7484,-0.6546,-0.5098,-0.3025,-0.2792,-0.2355,-0.1279,-0.1139,-0.1087,-0.1086,-0.1093,-0.111,-0.1109,-0.1076,-0.0638,0.0302,0.0336,0.1007,0.2417,0.2815,0.3284,0.3825,0.4133,0.4363,-1.4924,-1.58,0.0,0.0,0.0,0.0,0.0,0.0,0.0,0.0,0.0,0.0,0.0,0.0,0.0,0.0,0.0,-2.7063,-2.651,-2.6431,-2.6176,-2.5481,-2.5398,-2.5287,-2.5063,-2.4681,-2.4408,-2.4379,-2.3767,-2.323,-2.2852,-2.2648,-2.2343,-2.1995,-2.182,-2.1656,-2.1493,-2.0968,-2.0389,-1.9799,-1.9104,-1.9119,-1.9738,-1.9415,-1.9245,-1.924,-1.8848,-1.8673,-1.8657,-1.8543,-1.8451,-1.8377,-1.8508,-1.8478,-1.8218,-1.7548,-1.7148,-1.6759,-1.5658,-1.4994,-1.4502,-1.3977,-1.3593,-1.3309,-1.3309,-1.3193,-1.3083,-1.301,-1.2409,-1.162,-1.0832,-1.0271,-0.982,-0.9523,-0.8841,-0.8313,-0.8313,-0.805,-0.7863,-0.7863,-0.7672,-0.7484,-0.7484,-0.7484,-0.7484,-0.7484,-0.7484,-0.7207,-0.6468,-0.5345,-0.4169,-0.2944,-0.2171,-0.1615,-0.1239,-0.119,-0.1176,-0.1154,-0.118,-0.1086,-0.0911,-0.0404,0.0369,0.1409,0.1944,0.2714,0.3727,0.3861,0.3995,0.4167,0.4348,0.4471,-1.5324,0.0,0.0,0.0,0.0,0.0,0.0,0.0,0.0,0.0,0.0,0.0,0.0,0.0,0.0,0.0,-2.5936,-2.6229,-2.5728,-2.5646,-2.5398,-2.4709,-2.4652,-2.4538,-2.4266,-2.3914,-2.3691,-2.3691,-2.3335,-2.2957,-2.2631,-2.2606,-2.2456,-2.2159,-2.1933,-2.1693,-2.1412,-2.0893,-2.0261,-1.9561,-1.8856,-1.8491,-1.8336,-1.8064,-1.794,-1.7934,-1.7469,-1.7344,-1.7409,-1.7253,-1.7061,-1.6915,-1.7209,-1.7145,-1.6881,-1.6428,-1.6139,-1.5842,-1.4922,-1.4358,-1.397,-1.3521,-1.3236,-1.3083,-1.3083,-1.301,-1.2826,-1.2415,-1.1737,-1.0875,-0.9857,-0.8993,-0.8394,-0.8394,-0.794,-0.7484,-0.7484,-0.7484,-0.7484,-0.7484,-0.7446,-0.7369,-0.7369,-0.733,-0.7249,-0.7249,-0.698,-0.6356,-0.5306,-0.4258,-0.3248,-0.2311,-0.1649,-0.1289,-0.1231,-0.1219,-0.1204,-0.1185,-0.1136,-0.0827,-0.0244,0.0139,0.1005,0.2424,0.2908,0.3567,0.4473,0.4473,0.4473,0.4476,0.4545,0.4605,0.0,0.0,0.0,0.0,0.0,0.0,0.0,0.0,0.0,0.0,0.0,0.0,0.0,0.0,0.0,0.0,-2.4709,-2.5119,-2.4922,-2.4922,-2.4681,-2.4089,-2.4015,-2.378,-2.3168,-2.3108,-2.3108,-2.3108,-2.3108,-2.3108,-2.3108,-2.3035,-2.3005,-2.2975,-2.2459,-2.1861,-2.1242,-2.0682,-1.9983,-1.9183,-1.8555,-1.7945,-1.7351,-1.6927,-1.6722,-1.6634,-1.5941,-1.5802,-1.6036,-1.6015,-1.5909,-1.5743,-1.5716,-1.5549,-1.5291,-1.5223,-1.4935,-1.4601,-1.4494,-1.3897,-1.32,-1.32,-1.3046,-1.2863,-1.2863,-1.2826,-1.2562,-1.1632,-1.0726,-0.9857,-0.8927,-0.8093,-0.7484,-0.7484,-0.7484,-0.7484,-0.7484,-0.7484,-0.7484,-0.7484,-0.7334,-0.7184,-0.718,-0.7022,-0.6861,-0.6788,-0.6086,-0.5193,-0.4105,-0.3287,-0.239,-0.1414,-0.1296,-0.1296,-0.1296,-0.1232,-0.1178,-0.1178,-0.0929,-0.0293,0.0805,0.0655,0.1416,0.3306,0.3378,0.3851,0.469,0.469,0.469,0.469,0.4701,0.4764,0.0,0.0,0.0,0.0,0.0,0.0,0.0,0.0,0.0,0.0,0.0,0.0,0.0,0.0,0.0,-2.4789,-2.4925,-2.4879,-2.435,-2.4292,-2.406,-2.3395,-2.3318,-2.3258,-2.3108,-2.3108,-2.3108,-2.3108,-2.3108,0.0,-2.3108,-2.2586,-2.2279,-2.2156,-2.1487,-2.098,-2.0751,-2.0177,-1.956,0.0,-1.8246,-1.7636,-1.7081,-1.6608,-1.6147,-1.569,-1.5526,-1.5498,-1.5547,-1.5394,-1.5297,-1.5221,-1.5085,-1.512,-1.5223,-1.4601,-1.4474,-1.4494,-1.376,-1.3375,-1.3156,-1.301,-1.282,-1.2673,-1.2673,-1.2114,-1.1446,-1.1223,-1.0126,-0.8965,-0.8737,-0.8093,-0.7484,-0.7484,-0.7484,-0.7484,-0.7484,-0.7484,-0.7446,-0.7296,-0.7219,-0.7142,-0.698,-0.6942,-0.6668,-0.597,-0.558,-0.4802,-0.3285,-0.2782,-0.2235,-0.1375,-0.1296,-0.1296,-0.1296,-0.1094,-0.0975,-0.0975,-0.0194,0.0771,0.1848,0.1782,0.2289,0.3525,0.4106,0.4506,0.469,0.469,0.469,0.4692,0.4751,0.488,0.0,0.0,0.0,0.0,0.0,0.0,0.0,0.0,0.0,0.0,0.0,0.0,0.0,0.0,0.0,-2.4105,-2.4105,-2.3989,-2.3662,-2.3632,-2.3484,-2.3125,-2.3108,-2.3108,-2.3108,-2.3108,0.0,0.0,0.0,-2.2914,-2.2549,-2.2187,-2.1772,-2.1302,-2.0899,-2.0515,-2.0139,-1.9823,-1.9308,-1.8616,-1.8228,-1.7725,-1.7182,-1.6717,-1.6321,-1.6005,-1.5811,-1.5534,-1.5235,-1.4953,-1.4428,-1.3824,-1.3748,-1.3704,-1.3683,-1.3444,-1.3473,-1.365,-1.3317,-1.3083,-1.29,-1.279,-1.2636,-1.2452,-1.2452,-1.1818,-1.1037,-1.0619,-0.9642,-0.8623,-0.8208,-0.7825,-0.7484,-0.7484,-0.7484,-0.7484,-0.7369,-0.7373,-0.7296,-0.7099,-0.6988,-0.6872,-0.6791,-0.6321,-0.5815,-0.5389,-0.4533,-0.3638,-0.2781,-0.2235,-0.1766,-0.1335,-0.1296,-0.1257,-0.11,-0.0982,-0.0864,-0.0746,-0.0157,0.0588,0.1526,0.2025,0.2902,0.4262,0.4638,0.4828,0.4828,0.4828,0.4828,0.4865,0.4966,0.5108,0.0,0.0,0.0,0.0,0.0,0.0,0.0,0.0,0.0,0.0,0.0,0.0,0.0,0.0,0.0,-2.3083,-2.3108,-2.3108,-2.3108,0.0,0.0,0.0,0.0,0.0,0.0,0.0,0.0,0.0,0.0,-2.2598,-2.1939,-2.1659,-2.1175,-2.0398,-2.0268,-1.9911,-1.9342,-1.9299,-1.8944,-1.8236,-1.8236,-1.799,-1.748,-1.7087,-1.6843,-1.6677,-1.626,-1.572,-1.5059,-1.4544,-1.3614,-1.2481,-1.2358,-1.217,-1.2,-1.2236,-1.2474,-1.2685,-1.2949,-1.2851,-1.2599,-1.2562,-1.2452,-1.2268,-1.212,-1.1521,-1.0732,-0.9933,-0.9107,-0.836,-0.7676,-0.7484,-0.7446,-0.7446,-0.7407,-0.7369,-0.7219,-0.718,-0.7099,-0.6903,-0.6556,-0.6289,-0.6131,-0.5389,-0.473,-0.4574,-0.3407,-0.2431,-0.2315,-0.1728,-0.1296,-0.1296,-0.1257,-0.1139,-0.0904,-0.0825,-0.0707,-0.055,-0.0236,0.0353,0.1135,0.219,0.3443,0.4976,0.5018,0.5018,0.5018,0.5018,0.5015,0.5054,0.5207,0.5321,0.0,0.0,0.0,0.0,0.0,0.0,0.0,0.0,0.0,0.0,0.0,0.0,0.0,0.0,0.0,0.0,0.0,0.0,0.0,0.0,0.0,0.0,0.0,0.0,0.0,0.0,0.0,0.0,-2.2445,-2.2002,-2.192,-2.0623,-1.9759,-1.9497,-1.8911,-1.8496,-1.8202,-1.8202,-1.8168,-1.8042,-1.8042,-1.8012,-1.793,-1.7861,-1.7399,-1.6677,-1.626,-1.572,-1.5029,-1.4022,-1.3191,-1.242,-1.1725,-1.1623,-1.1815,-1.1694,-1.2009,-1.2523,-1.238,-1.2459,-1.2562,-1.2415,-1.2335,-1.215,-1.1484,-1.0689,-0.9895,-0.9074,-0.828,-0.7638,-0.7518,-0.7369,-0.7257,-0.7257,-0.7099,-0.7019,-0.718,-0.7061,-0.6865,-0.6676,-0.586,-0.5002,-0.4297,-0.4064,-0.3715,-0.2938,-0.2627,-0.2237,-0.1532,-0.1375,-0.1296,-0.1296,-0.11,-0.0943,-0.0904,-0.0589,-0.0353,-0.0353,0.0549,0.1449,0.227,0.3166,0.4068,0.4979,0.5018,0.5018,0.5018,0.5018,0.5093,0.5243,0.5282,0.5476,0.0,0.0,0.0,0.0,0.0,0.0,0.0,0.0,0.0,0.0,0.0,0.0,0.0,0.0,0.0,0.0,0.0,0.0,0.0,0.0,0.0,0.0,0.0,0.0,0.0,0.0,0.0,0.0,-2.1188,-2.0577,-1.9773,-1.9058,-1.8437,-1.7849,-1.7578,-1.736,-1.7262,-1.7539,-1.7773,-1.8008,-1.7579,-1.7364,-1.7364,-1.6906,-1.6961,-1.7389,-1.6545,-1.5629,-1.4684,-1.3557,-1.2547,-1.1663,-1.1334,-1.127,-1.1411,-1.1483,-1.1734,-1.1998,-1.1633,-1.1623,-1.1663,-1.1136,-1.0944,-1.0907,-1.0539,-0.9863,-0.915,-0.8813,-0.8131,-0.7484,-0.7373,-0.7257,-0.718,-0.7061,-0.6868,-0.6753,-0.6834,-0.6795,-0.6521,-0.5822,-0.4963,-0.4222,-0.3869,-0.3404,-0.2938,-0.2549,-0.2119,-0.1689,-0.1335,-0.1296,-0.1257,-0.11,-0.0982,-0.0825,-0.0589,-0.0393,-0.0236,-0.0157,0.0314,0.0941,0.1801,0.262,0.348,0.4304,0.4779,0.5018,0.5018,0.5129,0.5207,0.5321,0.5515,0.5747,0.0,0.0,0.0,0.0,0.0,0.0,0.0,0.0,0.0,0.0,0.0,0.0,0.0,0.0,0.0,0.0,0.0,0.0,0.0,0.0,0.0,0.0,0.0,0.0,0.0,0.0,0.0,0.0,-1.9814,-1.9164,-1.8057,-1.7781,-1.7357,-1.6728,-1.6697,-1.6697,-1.6697,-1.7168,-1.744,-1.7528,-1.7101,-1.6793,-1.6515,-1.5921,-1.6237,-1.7232,-1.6263,-1.5244,-1.4164,-1.3224,-1.2181,-1.121,-1.1146,-1.1066,-1.1055,-1.1221,-1.1275,-1.1284,-1.0939,-1.0797,-1.0694,-1.0083,-0.9895,-0.9857,-0.9669,-0.9145,-0.8585,-0.836,-0.7863,-0.733,-0.718,-0.7103,-0.7026,-0.6868,-0.6676,-0.6528,-0.6528,-0.6367,-0.5899,-0.4885,-0.4027,-0.3404,-0.3209,-0.2626,-0.2198,-0.2198,-0.1689,-0.1296,-0.1296,-0.1257,-0.1139,-0.0904,-0.0825,-0.0628,-0.0314,-0.0236,-0.0157,0.0,0.0196,0.0706,0.1567,0.2387,0.3246,0.4107,0.4701,0.5018,0.5018,0.5207,0.5321,0.5398,0.5747,0.5941,0.0,0.0,0.0,0.0,0.0,0.0,0.0,0.0,0.0,0.0,0.0,0.0,0.0,0.0,0.0,0.0,0.0,0.0,0.0,0.0,0.0,0.0,0.0,0.0,0.0,0.0,0.0,0.0,-1.8594,-1.8077,-1.7996,-1.7211,-1.676,-1.6697,-1.6697,-1.6697,-1.6697,-1.7168,-1.7044,-1.6294,-1.6713,-1.6446,-1.5569,-1.5534,-1.5455,-1.5323,-1.5025,-1.4378,-1.3519,-1.3089,-1.2332,-1.1453,-1.1257,-1.1053,-1.0807,-1.0701,-1.0475,-1.0286,-1.0269,-1.0132,-0.997,-0.9933,-0.9895,-0.9744,-0.8998,-0.8618,-0.8271,-0.7484,-0.7099,-0.6942,-0.6903,-0.6791,-0.6637,-0.6598,-0.6451,-0.63,-0.63,-0.567,-0.4846,-0.4025,-0.3171,-0.2314,-0.157,-0.1375,-0.1375,-0.1375,-0.1335,-0.1296,-0.1296,-0.1061,-0.0904,-0.0904,-0.055,-0.0314,-0.0314,-0.0118,0.0,0.0,0.0784,0.1606,0.2387,0.3285,0.4107,0.4937,0.4979,0.5018,0.5018,0.5207,0.5401,0.5598,0.5786,0.6022,0.0,0.0,0.0,0.0,0.0,0.0,0.0,0.0,0.0,0.0,0.0,0.0,0.0,0.0,0.0,0.0,0.0,0.0,0.0,0.0,0.0,0.0,0.0,0.0,0.0,0.0,0.0,0.0,0.0,-1.6739,-1.6336,-1.6029,-1.5889,-1.5889,-1.5889,-1.6016,-1.6299,-1.6486,-1.6344,-1.5946,-1.5815,-1.5282,-1.4396,-1.4122,-1.3825,-1.352,-1.3446,-1.3383,-1.3322,-1.2696,-1.2054,-1.1418,-1.1162,-1.1027,-1.0868,-1.0275,-1.0114,-1.0067,-0.9271,-0.9049,-0.9036,-0.8542,-0.8351,-0.8275,-0.7863,-0.7676,-0.7557,-0.7134,-0.6942,-0.6865,-0.6753,-0.6637,-0.6563,-0.6451,-0.5944,-0.5473,-0.5473,-0.4807,-0.3988,-0.3132,-0.2314,-0.1649,-0.1335,-0.1296,-0.1303,-0.1284,-0.1151,-0.1066,-0.1083,-0.0873,-0.0668,-0.051,-0.0393,-0.0236,-0.0118,-0.0039,0.0235,0.0784,0.1136,0.1918,0.3285,0.3636,0.4185,0.4979,0.5132,0.5207,0.5207,0.5401,0.5595,0.5789,0.606,0.6486,0.0,0.0,0.0,0.0,0.0,0.0,0.0,0.0,0.0,0.0,0.0,0.0,0.0,0.0,0.0,0.0,0.0,0.0,0.0,0.0,0.0,0.0,0.0,0.0,0.0,0.0,0.0,0.0,0.0,0.0,-1.541,-1.541,-1.541,-1.541,-1.541,-1.5557,-1.587,-1.5805,-1.5545,-1.5087,-1.4713,-1.4076,-1.3239,-1.2971,-1.2729,-1.2489,-1.2489,-1.2694,-1.2935,-1.2442,-1.1986,-1.1543,-1.1256,-1.1082,-1.089,-1.0095,-0.9786,-0.9653,-0.8648,-0.8305,-0.8208,-0.7599,-0.7407,-0.7369,-0.718,-0.7065,-0.6988,-0.6826,-0.6753,-0.6676,-0.6525,-0.6486,-0.6409,-0.5983,-0.5434,-0.4849,-0.4263,-0.3756,-0.321,-0.2627,-0.1845,-0.1296,-0.1296,-0.1218,-0.1185,-0.1164,-0.0952,-0.0829,-0.0843,-0.0635,-0.0432,-0.0314,-0.0236,-0.0157,0.0,0.0275,0.0667,0.1254,0.184,0.262,0.3752,0.4105,0.4538,0.5093,0.5285,0.5437,0.5515,0.5634,0.5786,0.5902,0.618,0.6718,0.0,0.0,0.0,0.0,0.0,0.0,0.0,0.0,0.0,0.0,0.0,0.0,0.0,0.0,0.0,0.0,0.0,0.0,0.0,0.0,0.0,0.0,0.0,0.0,0.0,0.0,0.0,0.0,-1.541,-1.541,-1.541,-1.541,-1.541,-1.541,-1.5381,-1.5381,-1.5352,-1.5149,-1.4573,-1.364,-1.3468,-1.295,-1.2163,-1.2183,-1.224,-1.2291,-1.2298,-1.2305,-1.2305,-1.2305,-1.2138,-1.1886,-1.1543,-1.1222,-1.087,-1.0074,-0.9445,-0.8911,-0.8435,-0.7939,-0.7446,-0.7257,-0.718,-0.7142,-0.6942,-0.6753,-0.6602,-0.6602,-0.6451,-0.63,-0.63,-0.63,-0.6064,-0.5198,-0.4963,-0.4496,-0.2862,-0.247,-0.247,-0.247,-0.1846,-0.1296,-0.1296,-0.1061,-0.0904,-0.0904,-0.0708,-0.059,-0.059,-0.0432,-0.0275,-0.0275,-0.0118,0.0,0.0,0.0784,0.1293,0.1332,0.2893,0.383,0.383,0.4771,0.5321,0.5321,0.5518,0.5712,0.5902,0.5902,0.5902,0.5902,0.6219,0.6795,-1.2517,0.0,0.0,0.0,0.0,0.0,0.0,0.0,0.0,0.0,0.0,0.0,0.0,0.0,0.0,0.0,0.0,0.0,0.0,0.0,0.0,0.0,0.0,0.0,0.0,0.0,0.0,0.0,-1.541,-1.541,-1.541,-1.541,-1.541,-1.541,-1.4971,-1.4667,-1.454,-1.399,-1.3303,-1.2469,-1.2653,-1.2288,-1.1478,-1.1991,-1.2131,-1.2033,-1.2211,-1.2305,-1.2305,-1.2305,-1.2258,-1.2131,-1.1623,-1.1062,-1.0446,-0.9547,-0.8823,-0.8193,-0.7676,-0.7409,-0.7257,-0.7061,-0.698,-0.6945,-0.6753,-0.6641,-0.6563,-0.6412,-0.6338,-0.63,-0.63,-0.63,-0.6064,-0.5198,-0.4574,-0.3832,-0.2744,-0.2041,-0.1649,-0.1649,-0.1453,-0.1257,-0.1061,-0.0943,-0.0869,-0.0764,-0.0524,-0.0403,-0.0443,-0.0242,-0.008,-0.0079,-0.0039,0.0,0.0,0.0784,0.1567,0.2113,0.3207,0.4144,0.4849,0.5162,0.5359,0.5518,0.5712,0.5825,0.5902,0.5902,0.598,0.6219,0.7442,0.8475,0.0,0.0,0.0,0.0,0.0,0.0,0.0,-1.4544,0.0,0.0,0.0,0.0,0.0,0.0,0.0,0.0,0.0,0.0,0.0,0.0,0.0,0.0,0.0,0.0,0.0,-1.541,-1.541,-1.541,-1.541,-1.541,-1.541,-1.541,-1.5294,-1.503,-1.4608,-1.4183,-1.3795,-1.3053,-1.2443,-1.1927,-1.1848,-1.1535,-1.1127,-1.1519,-1.1776,-1.1913,-1.2087,-1.2191,-1.2305,-1.2305,-1.2305,-1.2215,-1.1436,-1.0836,-1.0251,-0.9126,-0.8364,-0.7816,-0.7362,-0.7142,-0.7061,-0.6826,-0.6788,-0.6749,-0.6525,-0.649,-0.6451,-0.6338,-0.63,-0.63,-0.63,-0.6025,-0.5553,-0.4691,-0.3871,-0.3015,-0.2196,-0.1531,-0.1178,-0.1296,-0.1218,-0.11,-0.0943,-0.0746,-0.0631,-0.056,-0.0321,-0.02,-0.0241,-0.008,0.0,0.0,0.0,0.0157,0.051,0.1332,0.2152,0.2971,0.391,0.4691,0.5282,0.5476,0.5592,0.5712,0.5944,0.606,0.606,0.606,0.6141,0.6338,0.7595,0.8627,0.0,0.0,0.0,0.0,0.0,0.0,-1.4747,-1.4514,-1.408,0.0,0.0,0.0,0.0,0.0,0.0,0.0,0.0,0.0,0.0,0.0,0.0,0.0,0.0,0.0,-1.5342,-1.5342,-1.5361,-1.541,-1.541,-1.541,-1.541,-1.5323,-1.503,-1.4469,-1.4154,-1.3696,-1.3061,-1.2258,-1.1803,-1.1648,-1.1045,-1.0848,-1.0949,-1.0982,-1.1296,-1.1859,-1.1893,-1.2037,-1.2305,-1.2305,-1.2268,-1.2087,-1.1076,-1.0444,-0.9956,-0.8706,-0.797,-0.7499,-0.7249,-0.7022,-0.6826,-0.6641,-0.6563,-0.6525,-0.6335,-0.63,-0.63,-0.63,-0.63,-0.6261,-0.618,-0.5592,-0.4768,-0.3871,-0.3054,-0.2276,-0.1453,-0.1061,-0.0982,-0.1178,-0.1021,-0.0864,-0.0825,-0.055,-0.0275,-0.0275,-0.0118,0.0,0.0,0.0,0.0,0.0,0.0079,0.0471,0.1215,0.2113,0.2971,0.3791,0.4771,0.5321,0.5359,0.5705,0.5902,0.5941,0.618,0.63,0.63,0.63,0.6338,0.6451,0.7253,0.8055,-1.5785,-1.582,-1.5762,0.0,0.0,0.0,-1.3671,-1.3862,-1.4168,0.0,0.0,0.0,0.0,0.0,0.0,0.0,0.0,0.0,0.0,0.0,0.0,0.0,0.0,0.0,-1.4873,-1.4902,-1.5049,-1.5391,-1.541,-1.541,-1.541,-1.4942,-1.4558,-1.4273,-1.3235,-1.2481,-1.2081,-1.1382,-1.0958,-1.0832,-1.0713,-1.0651,-1.0687,-1.0882,-1.1182,-1.1523,-1.1764,-1.2037,-1.2305,-1.2305,-1.1929,-1.131,-1.0858,-0.9762,-0.8337,-0.8079,-0.7417,-0.6673,-0.6719,-0.6679,-0.6637,-0.6412,-0.6377,-0.6335,-0.63,-0.63,-0.63,-0.63,-0.63,-0.6141,-0.5434,-0.5121,-0.4613,-0.3095,-0.2627,-0.2237,-0.1218,-0.0943,-0.0864,-0.0746,-0.0707,-0.0589,-0.0432,-0.0353,-0.0236,-0.0079,-0.004,0.0,0.0,0.0,0.0,0.0,0.0628,0.1097,0.1293,0.2699,0.3675,0.4027,0.4849,0.5437,0.5783,0.5864,0.6018,0.6219,0.6261,0.63,0.63,0.63,0.6644,0.7292,0.8093,0.8894,-1.7081,-1.6936,-1.6721,-1.6733,0.0,0.0,0.0,0.0,-1.3614,0.0,0.0,0.0,0.0,0.0,0.0,0.0,0.0,0.0,0.0,0.0,0.0,0.0,0.0,0.0,-1.4443,-1.4463,-1.4513,-1.4728,-1.4971,-1.4926,-1.4505,-1.4409,-1.3974,-1.3144,-1.2412,-1.1803,-1.132,-1.0895,-1.0688,-1.0593,-1.0593,-1.0593,-1.0593,-1.0747,-1.1015,-1.1395,-1.1583,-1.1897,-1.2261,-1.1768,-1.1099,-1.034,-1.0179,-0.9218,-0.7855,-0.7533,-0.6913,-0.6281,-0.6529,-0.6525,-0.6451,-0.6338,-0.63,-0.63,-0.63,-0.63,-0.63,-0.63,-0.5983,-0.5553,-0.5121,-0.438,-0.3524,-0.2588,-0.2002,-0.1531,-0.0903,-0.0668,-0.0589,-0.0471,-0.0353,-0.0314,-0.0314,-0.0236,-0.0118,0.0,0.0,0.0,0.0,0.0,0.0159,0.0589,0.1058,0.1644,0.2465,0.3402,0.4146,0.4654,0.5279,0.5709,0.5899,0.6022,0.618,0.63,0.63,0.63,0.63,0.63,0.649,0.6911,0.771,0.8551,0.0,0.0,0.0,0.0,0.0,-1.5272,0.0,0.0,0.0,0.0,0.0,0.0,0.0,0.0,0.0,0.0,0.0,0.0,0.0,0.0,0.0,0.0,0.0,0.0,-1.3851,-1.387,-1.3938,-1.4077,-1.4171,-1.4005,-1.3472,-1.3617,-1.3126,-1.1913,-1.1704,-1.1351,-1.0776,-1.0649,-1.0593,-1.0593,-1.0593,-1.0593,-1.0593,-1.0593,-1.0777,-1.1139,-1.1157,-1.1365,-1.1654,-1.0883,-1.0078,-0.9291,-0.9291,-0.8606,-0.7529,-0.7018,-0.6532,-0.611,-0.6426,-0.6451,-0.63,-0.63,-0.63,-0.63,-0.63,-0.63,-0.6261,-0.6103,-0.5553,-0.4927,-0.4613,-0.3485,-0.2353,-0.204,-0.1374,-0.0786,-0.0589,-0.0432,-0.0275,-0.0236,-0.0118,-0.0039,-0.0196,-0.0118,0.0,0.0,0.0,0.0,0.0,0.0157,0.051,0.1215,0.1606,0.2348,0.3752,0.4146,0.4654,0.5356,0.5709,0.5941,0.598,0.618,0.63,0.63,0.63,0.63,0.63,0.6451,0.6528,0.6567,0.7369,0.8169,0.0,0.0,0.0,0.0,-1.6859,0.0,0.0,0.0,0.0,0.0,0.0,0.0,0.0,0.0,0.0,0.0,0.0,0.0,0.0,0.0,0.0,0.0,0.0,0.0,0.0,-1.3052,-1.3315,-1.3958,-1.2852,-1.239,-1.2949,-1.2287,-1.1747,-1.1383,-1.1084,-1.0839,-1.0624,-1.0624,-1.0593,-1.0593,-1.0593,-1.0593,-1.0593,-1.0593,-1.0445,-1.0177,-1.0287,-1.0084,-0.9661,-0.9691,-0.914,-0.8271,-0.8271,-0.7538,-0.65,-0.661,-0.6373,-0.603,-0.6276,-0.6338,-0.63,-0.63,-0.63,-0.63,-0.63,-0.63,-0.6141,-0.5356,-0.5082,-0.4652,-0.3173,-0.251,-0.204,-0.1256,-0.0825,-0.0589,-0.0393,-0.0314,-0.0236,-0.0079,0.0,0.0,-0.0039,0.0,0.0,0.0,0.0,0.0,0.0,0.0667,0.1176,0.1293,0.262,0.3675,0.4027,0.4732,0.5356,0.5786,0.586,0.6018,0.6261,0.63,0.63,0.63,0.63,0.63,0.63,0.7026,0.7369,0.7369,0.8208,0.9008,0.0,0.0,0.0,0.0,0.0,0.0,-1.4224,0.0,-1.3561,0.0,0.0,0.0,0.0,0.0,0.0,0.0,0.0,0.0,0.0,0.0,0.0,0.0,0.0,0.0,0.0,0.0,0.0,0.0,-1.2014,-1.1471,-1.1504,-1.13,-1.0997,-1.0636,-1.0472,-1.0443,-1.0593,-1.0593,-1.0593,-1.0586,-1.0388,-1.02,-0.997,-0.9806,-0.9588,-0.9349,-0.9327,-0.9305,-0.9249,-0.8648,-0.8205,-0.7855,-0.7288,-0.6764,-0.6302,-0.6391,-0.6235,-0.6013,-0.6245,-0.63,-0.63,-0.63,-0.63,-0.6222,-0.5709,-0.5473,-0.5196,-0.4336,-0.3636,-0.3052,-0.2352,-0.1726,-0.1139,-0.0667,-0.0471,-0.0353,-0.0157,-0.0118,-0.0118,0.0,0.0,0.0,0.0,0.0,0.0,0.0,0.0,0.0196,0.0706,0.1058,0.1684,0.2659,0.3363,0.4027,0.4582,0.5129,0.5556,0.5712,0.5983,0.618,0.63,0.63,0.63,0.63,0.63,0.63,0.63,0.6644,0.7292,0.8208,0.9008,0.9576,-1.7613,0.0,0.0,0.0,0.0,0.0,0.0,0.0,0.0,0.0,0.0,0.0,0.0,0.0,0.0,0.0,0.0,0.0,0.0,0.0,0.0,0.0,0.0,0.0,0.0,0.0,0.0,0.0,0.0,-1.0416,-1.0306,-1.0325,-1.0222,-0.9987,-1.0043,-1.0261,-1.0586,-1.0593,-1.0593,-1.0586,-1.0148,-0.9775,-0.948,-0.9037,-0.8708,-0.8443,-0.8348,-0.8344,-0.836,-0.7506,-0.7276,-0.7326,-0.6606,-0.6277,-0.6231,-0.628,-0.619,-0.6108,-0.6259,-0.63,-0.63,-0.63,-0.6141,-0.5828,-0.5121,-0.4649,-0.4142,-0.3244,-0.2465,-0.1843,-0.1608,-0.102,-0.0471,-0.0353,-0.0275,-0.0196,-0.0039,0.0,0.0,0.0,0.0,0.0,0.0,0.0,0.0,0.0,0.0,0.0314,0.1176,0.1488,0.2192,0.3636,0.4066,0.446,0.5093,0.5482,0.5715,0.5792,0.6106,0.6317,0.6358,0.6358,0.6358,0.6358,0.6358,0.6337,0.63,0.676,0.7561,0.8703,0.9311,0.9803,0.0,0.0,0.0,-1.5049,0.0,0.0,0.0,0.0,-1.4318,0.0,0.0,0.0,0.0,0.0,0.0,0.0,0.0,0.0,0.0,0.0,0.0,0.0,0.0,0.0,0.0,0.0,0.0,0.0,-0.9588,0.0,-0.977,-0.9219,-0.9126,-0.9708,-0.9967,-1.0261,-1.0586,-1.0593,-1.0593,-1.0593,-0.9869,-0.9512,-0.9486,-0.8608,-0.7869,-0.7265,-0.7241,-0.6855,-0.6223,-0.6294,-0.6342,-0.6338,-0.63,-0.6166,-0.6047,-0.6242,-0.6296,-0.6293,-0.6296,-0.63,-0.63,-0.63,-0.5747,-0.5004,-0.4766,-0.41,-0.3242,-0.2233,-0.1921,-0.1725,-0.0864,-0.0471,-0.0314,-0.0314,-0.0157,0.0,0.0,0.0,0.0,0.0,0.0,0.0,0.0,0.0,0.0,0.0,0.0,0.0314,0.1176,0.1996,0.2817,0.3713,0.4652,0.5359,0.5559,0.5786,0.6018,0.6261,0.63,0.6361,0.6501,0.6504,0.6504,0.6504,0.6504,0.6436,0.63,0.7863,0.8661,0.8703,0.8737,0.9571,0.0,0.0,-1.6404,-1.5117,0.0,0.0,0.0,0.0,0.0,0.0,0.0,0.0,0.0,0.0,0.0,0.0,0.0,0.0,0.0,0.0,0.0,0.0,0.0,0.0,0.0,0.0,0.0,0.0,-0.9256,0.0,0.0,-0.8869,-0.8898,-0.9098,-0.9579,-0.9967,-1.0267,-1.0492,-1.0364,-0.9875,-0.9437,-0.8808,-0.7952,-0.746,-0.6902,-0.6346,-0.6207,-0.6123,-0.6101,-0.6002,-0.6101,-0.63,-0.63,-0.6166,-0.6013,-0.6242,-0.6235,-0.6122,-0.6265,-0.63,-0.6261,-0.6099,-0.5473,-0.4649,-0.3871,-0.2973,-0.2035,-0.1098,-0.0746,-0.0589,-0.0275,-0.0157,-0.0118,-0.0118,-0.0039,0.0,0.0,0.0,0.0,0.0,0.0,0.0,0.0,0.0,0.0,0.0,0.0522,0.1204,0.2004,0.2884,0.3804,0.4805,0.5246,0.5565,0.5894,0.6018,0.6202,0.64,0.6351,0.6364,0.6508,0.6511,0.6559,0.662,0.6624,0.66,0.6552,0.7553,0.8312,0.8854,0.941,1.0212,-1.5998,-1.6095,0.0,-1.5088,-1.4861,0.0,-1.3504,0.0,0.0,0.0,0.0,0.0,0.0,0.0,0.0,0.0,0.0,0.0,0.0,0.0,0.0,0.0,0.0,0.0,0.0,0.0,-0.9786,-0.9591,-0.8959,0.0,0.0,0.0,-0.8751,-0.8931,-0.9432,-0.9826,-1.0114,-1.0158,-0.9939,-0.9422,-0.8739,-0.7953,-0.7079,-0.6535,-0.6133,-0.5789,-0.5647,-0.5748,-0.5989,-0.5897,-0.6034,-0.6293,-0.6238,-0.6118,-0.6013,-0.6242,-0.6235,-0.6125,-0.6265,-0.6064,-0.5709,-0.5512,-0.4688,-0.3558,-0.2779,-0.1881,-0.102,-0.0353,-0.0118,0.0,0.0,0.0,0.0,0.0,0.0,0.0,0.0,0.0,0.0,0.0,0.0,0.0,0.0,0.0295,0.0502,0.0495,0.1028,0.1808,0.2914,0.3691,0.4469,0.5461,0.5703,0.5921,0.6204,0.6247,0.6281,0.6436,0.6351,0.6388,0.6546,0.6552,0.6624,0.678,0.678,0.685,0.7063,0.7793,0.8602,0.9546,1.0418,1.1035]},{"header":{"parameterUnit":"m.s-1","parameterCategory":1,"la1":30.6,"la2":29.2853,"lo1":-89.7004,"lo2":-87.6739,"dy":0.0162,"dx":0.0183,"nx":112,"ny":82,"refTime":"2026-03-13T12:00:00:Z","depth":0,"parameterNumber":3,"parameterNumberName":"V-component_of_WINDS"},"data":[0.0,0.0,0.0,0.0,0.0,0.0,0.0,0.0,0.0,0.0,0.0,0.0,0.0,0.0,0.0,0.0,0.0,0.0,0.0,0.0,0.0,0.0,0.0,0.0,0.0,0.0,0.0,0.0,0.0,0.0,0.0,0.0,0.0,0.0,0.0,0.0,0.0,0.0,0.0,0.0,0.0,0.0,0.0,0.0,0.0,0.0,0.0,0.0,0.0,0.0,0.0,0.0,0.0,0.0,0.0,0.0,0.0,0.0,0.0,0.0,0.0,0.0,0.0,0.0,0.0,0.0,0.0,0.0,0.0,0.0,0.0,0.0,0.0,0.0,0.0,0.0,0.0,0.0,0.0,0.0,0.0,0.0,0.0,0.0,0.0,0.0,0.0,0.0,0.0,0.0,0.0,0.674,0.922,1.0848,1.1003,1.2077,1.2057,1.0408,0.0,0.0,0.0,0.0,0.0,0.0,0.0,0.0,0.0,0.0,0.0,0.0,0.0,0.0,0.0,0.0,0.0,0.0,0.0,0.0,0.0,0.0,0.0,0.0,0.0,0.0,0.0,0.0,0.0,0.0,0.0,0.0,0.0,0.0,0.0,0.0,0.0,0.0,0.0,0.0,0.0,0.0,0.0,0.0,0.0,0.0,0.0,0.0,0.0,0.0,0.0,0.0,0.0,0.0,0.0,0.0,0.0,0.0,0.0,0.0,0.0,0.0,0.0,0.0,0.0,0.0,0.0,0.0,0.0,0.0,0.0,0.0,0.0,0.0,0.0,0.0,0.0,0.0,0.0,0.0,0.0,0.0,0.0,0.0,0.0,0.0,0.0,0.0,0.0,0.0,0.0,0.0,0.0,0.0,0.0,0.0,0.0,0.0,0.0,0.0,0.0,0.0,0.0,0.0,0.5541,0.8607,1.03,1.1136,1.0999,1.2508,1.2556,1.0419,0.0,0.0,0.0,0.0,0.0,0.0,0.0,0.0,0.0,0.0,0.0,0.0,0.0,0.0,0.0,0.0,0.0,0.0,0.0,0.0,0.0,0.0,0.0,0.0,0.0,0.0,0.0,0.0,0.0,0.0,0.0,0.0,0.0,0.0,0.0,0.0,0.0,0.0,0.0,0.0,0.0,0.0,0.0,0.0,0.0,0.0,0.0,0.0,0.0,0.0,0.0,0.0,0.0,0.0,0.0,0.0,0.0,0.0,0.0,0.0,0.0,0.0,0.0,0.0,0.0,0.0,0.0,0.0,0.0,0.0,0.0,0.0,0.0,0.0,0.0,0.0,0.0,0.0,0.0,0.0,0.0,0.0,0.0,0.0,0.0,0.0,0.0,0.0,0.0,0.0,0.0,0.0,0.0,0.0,0.0,0.0,0.0,0.0,0.0,0.0,0.0,0.0,0.0,0.4949,0.644,0.9369,1.0802,1.1519,1.1393,1.2934,1.2992,1.0833,1.0063,0.0,0.0,0.0,0.0,0.0,0.0,0.0,0.0,0.0,0.0,0.0,0.0,0.0,0.0,0.0,0.0,0.0,0.0,0.0,0.0,0.0,0.0,0.0,0.0,0.0,0.0,0.0,0.0,0.0,0.0,0.0,0.0,0.0,0.0,0.0,0.0,0.0,0.0,0.0,0.0,0.0,0.0,0.0,0.0,0.0,0.0,0.0,0.0,0.0,0.0,0.0,0.0,0.0,0.0,0.0,0.0,0.0,0.0,0.0,0.0,0.0,0.0,0.0,0.0,0.0,0.0,0.0,0.0,0.0,0.0,0.0,0.0,0.0,0.0,0.0,0.0,0.0,0.0,0.0,0.0,0.0,0.0,0.0,0.0,0.0,0.0,0.0,0.0,0.0,0.0,0.0,0.0,0.0,0.0,0.0,0.0,0.0,0.0,0.0,0.0,0.0,0.0,0.6513,0.7636,0.9851,1.1125,1.1847,1.1947,1.327,1.3252,1.1297,1.0335,0.0,0.0,0.0,0.0,0.0,0.0,0.0,0.0,0.0,0.0,0.0,0.0,0.0,0.0,0.0,0.0,0.0,0.0,0.0,0.0,0.0,0.0,0.0,0.0,0.0,0.0,0.0,0.0,0.0,0.0,0.0,0.0,0.0,0.0,0.0,0.0,0.0,0.0,0.0,0.0,0.0,0.0,0.0,0.0,0.0,0.0,0.0,0.0,0.0,0.0,0.0,0.0,0.0,0.0,0.0,0.0,0.0,0.0,0.0,0.0,0.0,0.0,0.0,0.0,0.0,0.0,0.0,0.0,0.0,0.0,0.0,0.0,0.0,0.0,0.0,0.0,0.0,0.0,0.0,0.0,0.0,0.0,0.0,0.0,0.0,0.0,0.0,0.0,0.0,0.0,0.0,0.0,0.0,0.0,0.0,0.0,0.0,0.0,0.0,0.0,0.0,0.0,0.7113,0.8799,1.0467,1.1345,1.2056,1.267,1.3328,1.3143,1.1733,1.0441,0.0,0.0,0.0,0.0,0.0,0.0,0.0,0.0,0.0,0.0,0.0,0.0,0.0,0.0,0.0,0.0,0.0,0.0,0.0,0.0,0.0,0.0,0.0,0.0,0.0,0.0,0.0,0.0,0.0,0.0,0.0,0.0,0.0,0.0,0.0,0.0,0.0,0.0,0.0,0.0,0.0,0.0,0.0,0.0,0.0,0.0,0.0,0.0,0.0,0.0,0.0,0.0,0.0,0.0,0.0,0.0,0.0,0.0,0.0,0.0,0.0,0.0,0.0,0.0,0.0,0.0,0.0,0.0,0.0,0.0,0.0,0.0,0.0,0.0,0.0,0.0,0.0,0.0,0.0,0.0,0.0,0.0,0.0,0.0,0.0,0.0,0.0,0.0,0.0,0.0,0.0,0.0,0.0,0.0,0.0,0.0,0.0,0.0,0.0,0.0,0.0,0.0,0.7022,0.8735,0.0,1.1844,1.2473,1.2986,1.4098,1.3914,1.1945,0.0,0.0,0.0,0.0,0.0,0.0,0.0,0.0,0.0,0.0,0.0,0.0,0.0,0.0,0.0,0.0,0.0,0.0,0.0,0.0,0.0,0.0,0.0,0.0,0.0,0.0,0.0,0.0,0.0,0.0,0.0,0.0,0.0,0.0,0.0,0.0,0.0,0.0,0.0,0.0,0.0,0.0,0.0,0.0,0.0,0.0,0.0,0.0,0.0,0.0,0.0,0.0,0.0,0.0,0.0,0.0,0.0,0.0,0.0,0.0,0.0,0.0,0.0,0.0,0.0,0.0,0.0,0.0,0.0,0.0,0.0,0.0,0.0,0.0,0.0,0.0,0.0,0.0,0.0,0.0,0.0,0.0,0.0,0.0,0.0,0.0,0.0,0.0,0.0,0.0,0.0,0.0,0.0,0.0,0.0,0.0,0.0,0.0,0.0,0.0,0.0,0.0,0.6096,0.7417,0.9036,0.0,1.1963,1.248,1.2817,1.3867,1.3672,1.1645,0.0,0.0,0.0,0.0,0.0,0.0,0.0,0.0,0.0,0.0,0.0,0.0,0.0,0.0,0.0,0.0,0.0,0.0,0.0,0.0,0.0,0.0,0.0,0.0,0.0,0.0,0.0,0.0,0.0,0.0,0.0,0.0,0.0,0.0,0.0,0.0,0.0,0.0,0.0,0.0,0.0,0.0,0.0,0.0,0.0,0.0,0.0,0.0,0.0,0.0,0.0,0.0,0.0,0.0,0.0,0.0,0.0,0.0,0.0,0.0,0.0,0.0,0.0,0.0,0.0,0.0,0.0,0.0,0.0,0.0,0.0,0.0,0.0,0.0,0.0,0.0,0.0,0.0,0.0,0.0,0.0,0.0,0.0,0.0,0.0,0.0,0.0,0.0,0.0,0.0,0.0,0.0,0.0,0.0,0.0,0.0,0.0,0.0,0.0,0.0,0.0,0.0,0.6821,0.8459,0.9882,1.0896,1.1612,1.2031,1.2098,1.2423,1.2073,0.0,0.0,0.0,0.0,0.0,0.0,0.0,0.0,0.0,0.0,0.0,0.0,0.0,0.0,0.0,0.0,0.0,0.0,0.0,0.0,0.0,0.0,0.0,0.0,0.0,0.0,0.0,0.0,0.0,0.0,0.0,0.0,0.0,0.0,0.0,0.0,0.0,0.0,0.0,0.0,0.0,0.0,0.0,0.0,0.0,0.0,0.0,0.0,0.0,0.0,0.0,0.0,0.0,0.0,0.0,0.0,0.0,0.0,0.0,0.0,0.0,0.0,0.0,0.0,0.0,0.0,0.0,0.0,0.0,0.0,0.0,0.0,0.0,0.0,0.0,0.0,0.0,0.0,0.0,0.0,0.0,0.0,0.0,0.0,0.0,0.0,0.0,0.0,0.0,0.0,0.0,0.0,0.0,0.0,0.0,0.0,0.0,0.0,0.0,0.0,0.0,0.0,0.0,0.6824,0.8258,0.9614,1.0878,1.182,1.2235,1.1901,1.3053,1.2788,1.0429,0.0,0.0,0.0,0.0,0.0,0.0,0.0,0.0,0.0,0.0,0.0,0.0,0.0,0.0,0.0,0.0,0.0,0.0,0.0,0.0,0.0,0.0,0.0,0.0,0.0,0.0,0.0,0.0,0.0,0.0,0.0,0.0,0.0,0.0,0.0,0.0,0.0,0.0,0.0,0.0,0.0,0.0,0.0,0.0,0.0,0.0,0.0,0.0,0.0,0.0,0.0,0.0,0.0,0.0,0.0,0.0,0.0,0.0,0.0,0.0,0.0,0.0,0.0,0.0,0.0,0.0,0.0,0.0,0.0,0.0,0.0,0.0,0.0,0.0,0.0,0.0,0.0,0.0,0.0,0.0,0.0,0.0,0.0,0.0,0.0,0.0,0.0,0.0,0.0,0.0,0.0,0.0,0.0,0.0,0.0,0.0,0.0,0.0,0.0,0.0,0.0,0.0,0.7063,0.8528,0.9725,1.0518,1.1811,1.2229,1.1292,1.253,1.2399,1.004,0.0,0.0,0.0,0.0,0.0,0.0,0.0,0.0,0.0,0.0,0.0,0.0,0.0,0.0,0.0,0.0,0.0,0.0,0.0,0.0,0.0,0.0,0.0,0.0,0.0,0.0,0.0,0.0,0.0,0.0,0.0,0.0,0.0,0.0,0.0,0.0,0.0,0.0,0.0,0.0,0.0,0.0,0.0,0.0,0.0,0.0,0.0,0.0,0.0,0.0,0.0,0.0,0.0,0.0,0.0,0.0,0.0,0.0,0.0,0.0,0.0,0.0,0.0,0.0,0.0,0.0,0.0,0.0,0.0,0.0,0.0,0.0,0.0,0.0,0.0,0.0,0.0,0.0,0.0,0.0,0.0,0.0,0.0,0.0,0.0,0.0,0.0,0.0,0.0,0.0,0.0,0.0,0.0,0.0,0.0,0.0,0.0,0.0,0.0,0.0,0.0,0.0,0.7428,0.897,0.995,0.9958,1.1531,1.1943,1.044,1.1318,1.1294,0.9706,0.0,0.0,0.0,0.0,0.0,0.0,0.0,0.0,0.0,0.0,0.0,0.0,0.0,0.0,0.0,0.0,0.0,0.0,0.0,0.0,0.0,0.0,0.0,0.0,0.0,0.0,0.0,0.0,0.0,0.0,0.0,0.0,0.0,0.0,0.0,0.0,0.0,0.0,0.0,0.0,0.0,0.0,0.0,0.0,0.0,0.0,0.0,0.0,0.0,0.0,0.0,0.0,0.0,0.0,0.0,0.0,0.0,0.0,0.0,0.0,0.5141,0.0,0.0,0.0,0.0,0.0,0.0,0.0,0.0,0.0,0.0,0.0,0.0,0.0,0.0,0.0,0.0,0.0,0.0,0.0,0.0,0.0,0.0,0.0,0.0,0.0,0.0,0.0,0.0,0.0,0.0,0.0,0.0,0.0,0.0,0.0,0.0,0.0,0.0,0.0,0.0,0.0,0.7548,0.8307,0.8937,0.9611,1.038,1.069,1.0322,1.1157,1.1079,0.9691,0.9371,0.0,0.0,0.0,0.0,0.0,0.0,0.0,0.0,0.0,0.0,0.0,0.0,0.0,0.0,0.0,0.0,0.0,0.0,0.0,0.0,0.0,0.0,0.0,0.0,0.0,0.0,0.0,0.0,0.0,0.0,0.0,0.0,0.0,0.0,0.0,0.0,0.0,0.0,0.0,0.0,0.0,0.0,0.0,0.0,0.0,0.0,0.0,0.0,0.0,0.0,0.0,0.0,0.0,0.0,0.0,0.0,0.0,0.0,0.0,0.0,0.586,0.0,0.0,0.0,0.0,0.0,0.0,0.0,0.0,0.0,0.0,0.0,0.0,0.0,0.0,0.0,0.0,0.0,0.0,0.0,0.0,0.0,0.0,0.0,0.0,0.0,0.0,0.0,0.0,0.0,0.0,0.0,0.0,0.0,0.0,0.0,0.0,0.0,0.0,0.0,0.0,0.7723,0.8411,0.9075,0.9977,1.0536,1.0893,1.1065,1.1414,1.1416,1.0851,0.9918,0.0,0.0,0.0,0.0,0.0,0.0,0.0,0.0,0.0,0.0,0.0,0.0,0.0,0.0,0.0,0.0,0.0,0.0,0.0,0.0,0.0,0.0,0.0,0.0,0.0,0.0,0.0,0.0,0.0,0.0,0.0,0.0,0.0,0.0,0.0,0.0,0.0,0.0,0.0,0.0,0.0,0.0,0.0,0.0,0.0,0.0,0.0,0.0,0.0,0.0,0.0,0.0,0.0,0.6557,0.7032,0.7135,0.7853,0.86,0.9254,0.7649,0.7803,0.8994,0.6707,0.0,0.0,0.0,0.0,0.0,0.0,0.0,0.0,0.0,0.0,0.0,0.0,0.0,0.0,0.0,0.0,0.0,0.0,0.0,0.0,0.0,0.0,0.0,0.0,0.8528,0.832,0.0,0.0,0.0,0.0,0.0,0.0,0.0,0.0,0.0,0.0,0.0,0.0,0.8162,0.9005,0.9804,1.071,1.1173,1.1588,1.1989,1.1993,1.198,1.2038,1.0714,0.9642,0.0,0.0,0.0,0.0,0.0,0.0,0.0,0.0,0.0,0.0,0.0,0.0,0.0,0.0,0.0,0.0,0.0,0.0,0.0,0.0,0.0,0.0,0.0,0.0,0.0,0.0,0.0,0.0,0.0,0.0,0.0,0.0,0.223,0.3466,0.0,0.0,0.0,0.0,0.0,0.0,0.0,0.0,0.0,0.0,0.0,0.0,0.0,0.4578,0.5851,0.6643,0.7092,0.7229,0.8088,0.8711,0.9119,0.9246,0.9656,1.031,1.0043,0.0,0.9739,0.8198,0.0,0.0,0.0,0.0,0.0,0.0,0.0,0.0,0.0,0.0,0.0,0.0,0.0,0.0,0.0,0.0,0.0,0.0,0.0,0.0,0.0,0.0,1.0163,1.0146,1.0412,1.0452,0.0,0.796,0.6313,0.5949,0.5981,0.0,0.0,0.0,0.0,0.0,0.0,0.0,0.9293,1.0041,1.0733,1.1557,1.1547,1.1799,1.2533,1.2857,1.2663,1.19,1.194,1.1326,0.9814,0.9168,0.0,0.0,0.0,0.0,0.0,0.0,0.0,0.0,0.0,0.0,0.0,0.0,0.0,0.0,0.0,0.0,0.0,0.0,0.0,0.0,0.0,0.0,0.0,0.0,0.0,0.0,0.0,0.0,0.0,0.2113,0.2613,0.2716,0.232,0.1874,0.0,0.0,0.0,0.0,0.0,0.0,0.0,0.0,0.0,0.5051,0.5448,0.6245,0.7567,0.8095,0.8403,0.8472,0.933,0.986,1.008,1.0362,1.0866,1.1497,1.0951,1.115,1.1704,0.9857,0.899,0.8731,0.0,0.0,0.0,0.0,0.656,0.6487,0.703,0.7328,0.7404,0.7087,0.0,0.0,0.0,0.0,0.0,0.0,0.0,0.0,0.0,0.0,1.011,1.0935,1.1227,1.1276,1.1085,1.0087,0.8909,0.0,0.795,0.7734,0.5858,0.0,0.0,0.0,0.0,0.8552,0.9913,1.0619,1.1267,1.1997,1.1969,1.2229,1.3035,1.3094,1.2907,1.2494,1.2225,1.1576,1.0508,0.9914,0.948,0.0,0.0,0.0,0.0,0.0,0.0,0.0,0.0,0.0,0.0,0.0,0.0,0.0,0.0,0.0,0.0,0.0,0.0,0.0,0.0,0.0,0.0,0.0,0.0,0.0,0.0,0.0,0.0,0.2581,0.2936,0.2414,0.2648,0.2491,0.0,0.0,0.0,0.0,0.0,0.0,0.33,0.3769,0.4798,0.652,0.6989,0.7805,0.9031,0.9291,0.9437,0.9437,1.0161,1.0535,1.0535,1.0945,1.1414,1.1902,1.1372,1.1947,1.3049,1.1125,1.0483,1.063,0.9585,0.8819,0.8356,0.8548,0.8398,0.8163,0.8745,0.8936,0.8821,0.8283,0.791,0.7461,0.6466,0.0,0.0,0.0,0.0,0.7419,0.8837,0.945,0.9965,1.1148,1.1584,1.1751,1.1751,1.1835,1.1409,0.0,0.9843,0.9564,0.7546,0.0,0.0,0.0,0.0,0.9535,1.0537,1.1298,1.1948,1.2437,1.2576,1.2907,1.3564,1.3525,1.3319,1.3023,1.2541,1.1968,1.1253,1.0507,0.9938,0.9593,0.0,0.0,0.0,0.0,0.0,0.0,0.0,0.0,0.0,0.0,0.0,0.0,0.0,0.0,0.0,0.0,0.0,0.0,0.0,0.0,0.0,0.0,0.0,0.0,0.0,0.0,0.0,0.0,0.0,0.3822,0.3529,0.0,0.0,0.0,0.0,0.2656,0.2845,0.3576,0.5,0.5101,0.6125,0.8312,0.8398,0.8821,0.9633,0.9927,1.0043,1.0043,1.0436,1.0577,1.0609,1.0609,1.075,1.0989,1.1603,1.2264,1.2843,1.1687,1.1498,1.1887,1.163,1.124,1.0881,1.1265,1.1835,1.2224,1.0931,1.1109,1.1593,0.9795,0.858,0.7714,0.7265,0.6812,0.0,0.0,0.8585,0.8651,0.9755,1.0382,1.0771,1.0901,1.1569,1.2174,1.2174,1.2762,1.2955,0.0,1.1267,1.0852,1.027,0.0,0.9852,0.9826,1.0316,1.0849,1.1286,1.2324,1.3007,1.297,1.3466,1.3927,1.423,1.4521,1.4218,1.3065,1.3373,1.316,1.2185,1.0814,1.0182,1.0334,0.9037,0.0,0.0,0.0,0.0,0.0,0.0,0.0,0.0,0.0,0.0,0.0,0.0,0.0,0.0,0.0,0.0,0.0,0.0,0.0,0.0,0.0,0.0,0.0,0.0,0.0,0.0,0.0,0.0,0.3404,0.3811,0.0,0.3371,0.344,0.3604,0.3788,0.4146,0.4673,0.5416,0.5825,0.6539,0.762,0.8001,0.8425,0.8924,0.9462,0.9731,0.9731,1.0312,1.0593,1.0593,1.0593,1.084,1.1263,1.0916,1.1473,1.256,1.1587,1.1977,1.3149,1.2578,1.2084,1.1679,1.1576,1.1167,1.0681,1.0622,1.0515,1.0353,0.9937,0.9566,0.9252,0.9011,0.8885,0.8956,0.9667,0.9693,0.9699,1.0416,1.0582,1.0595,1.0792,1.108,1.1391,1.1729,1.2053,1.2373,1.2826,1.2978,1.2656,1.1512,1.1539,1.1584,1.1104,1.1297,1.1754,1.2403,1.2998,1.3416,1.3569,1.3923,1.4284,1.4604,1.4382,1.394,1.3291,1.3176,1.2791,1.2038,1.1761,1.1232,1.0357,1.0053,0.9285,0.0,0.0,0.0,0.0,0.0,0.0,0.0,0.0,0.0,0.0,0.0,0.0,0.0,0.0,0.0,0.0,0.0,0.0,0.0,0.0,0.0,0.0,0.0,0.0,0.0,0.0,0.4318,0.3717,0.4632,0.4992,0.4187,0.4388,0.4633,0.4792,0.5152,0.5595,0.6125,0.6527,0.701,0.7608,0.797,0.8265,0.8484,0.9285,0.9683,0.9689,1.0477,1.0834,1.0734,1.0734,1.0903,1.1163,1.0743,1.1195,1.2135,1.1738,1.2297,1.3404,1.3193,1.3104,1.3059,1.277,1.1957,1.0977,1.0878,1.0198,0.9451,0.9839,0.9823,0.9672,0.9673,0.9755,0.9906,1.0041,0.9995,0.9994,1.0252,1.0259,1.0266,1.0473,1.0631,1.092,1.1612,1.1799,1.2122,1.3191,1.368,1.365,1.2798,1.2981,1.3013,1.2336,1.2504,1.2799,1.304,1.3664,1.4007,1.3881,1.4397,1.478,1.4791,1.4445,1.4113,1.3861,1.3317,1.2834,1.2459,1.2173,1.1609,1.0686,1.0828,1.0567,0.9889,0.0,0.0,0.0,0.0,0.0,0.0,0.0,0.0,0.0,0.0,0.0,0.0,0.0,0.0,0.0,0.0,0.0,0.0,0.0,0.0,0.0,0.0,0.0,0.2843,0.404,0.5018,0.4958,0.5972,0.6473,0.5959,0.591,0.5823,0.564,0.5799,0.628,0.7166,0.7207,0.7623,0.8495,0.8501,0.8501,0.8544,0.9505,0.9995,1.0034,1.0944,1.1242,1.1009,1.1009,1.0881,1.0638,1.1223,1.1466,1.1514,1.2174,1.2481,1.2596,1.3558,1.4323,1.4893,1.4913,1.4388,1.3452,1.1898,1.0439,0.9329,0.9658,0.9355,0.8919,0.9181,0.9337,0.9442,0.9468,0.9558,0.9589,0.9327,0.957,0.9881,0.9987,1.0325,1.0867,1.1868,1.2144,1.2335,1.2901,1.3329,1.374,1.4232,1.4302,1.4141,1.3633,1.3977,0.0,1.3173,1.4311,1.4846,1.3939,1.4976,1.5464,1.4878,1.4873,1.4861,1.4683,1.3872,1.3423,1.3504,1.1991,1.125,1.1426,1.1217,1.1571,1.253,0.0,0.0,0.0,0.0,0.0,0.0,0.0,0.0,0.0,0.0,0.0,0.0,0.0,0.0,0.0,0.0,0.0,0.0,0.0,0.0,0.0,0.4129,0.4861,0.4599,0.5306,0.5998,0.6321,0.6213,0.6054,0.5914,0.6028,0.6086,0.6033,0.6168,0.6613,0.7366,0.7431,0.7852,0.8765,0.8776,0.8891,0.9133,0.9925,1.0303,1.0309,1.1041,1.1349,1.1309,1.1309,1.1149,1.0908,1.1064,1.1038,1.0902,1.1514,1.2151,1.271,1.2698,1.2629,1.2575,1.2857,1.2891,1.2729,1.2581,1.1934,1.1191,1.132,1.0949,1.0436,1.0283,1.024,1.0344,1.0753,1.0705,1.0629,1.0918,1.0904,1.078,1.0626,1.0646,1.0944,1.1585,1.1757,1.2001,1.278,1.3293,1.3759,1.4277,1.4617,1.4764,1.4607,1.4429,0.0,1.4581,1.4942,1.5175,1.5115,1.5689,1.5875,1.5422,1.5256,1.4949,1.4366,1.3794,1.3519,1.3642,1.294,1.2421,1.2136,1.1544,1.1131,0.0,0.0,0.0,0.0,0.0,0.0,0.0,0.0,0.0,0.0,0.0,0.0,0.0,0.0,0.0,0.0,0.0,0.0,0.0,0.0,0.0,0.0,0.4811,0.56,0.5916,0.6285,0.662,0.6983,0.6767,0.6666,0.6973,0.6935,0.7015,0.7302,0.7531,0.7846,0.8283,0.8283,0.8542,0.9082,0.9122,0.9193,0.9405,1.0172,1.0577,1.0577,1.1378,1.173,1.161,1.161,1.145,1.1176,1.1176,1.1082,1.0955,1.1307,1.1892,0.0,0.0,0.0,0.0,0.0,1.226,1.2544,1.2433,1.2135,1.1818,1.2106,1.1797,1.1273,1.1075,1.0915,1.0829,1.0849,1.0786,1.0714,1.0793,1.1003,1.1099,1.0714,1.0811,1.1129,1.1694,1.1661,1.1724,1.2464,1.3178,0.0,1.4048,1.4631,1.5044,1.5044,1.4988,1.5023,1.5335,1.5703,1.5984,1.6209,1.6418,1.644,1.6163,1.5815,0.0,0.0,0.0,1.4134,1.3797,1.367,0.0,0.0,0.0,0.0,0.0,0.0,0.0,0.0,1.1393,1.1313,0.0,0.0,0.0,0.0,0.0,0.0,0.0,0.0,0.0,0.0,0.0,0.0,0.0,0.0,0.0,0.0,0.5388,0.6214,0.6854,0.6968,0.7099,0.737,0.7537,0.7892,0.8533,0.8292,0.8273,0.8776,0.9175,0.9405,0.937,0.0,0.0,0.0,0.0,0.97,0.9728,1.0557,1.0965,1.0965,1.1879,1.2171,1.1953,1.1953,1.1757,1.1442,1.1442,1.1422,1.143,1.1491,1.1861,1.2402,1.2725,1.3351,1.3906,1.2581,1.2429,1.278,1.2155,0.0,0.0,1.2365,1.2198,1.1748,1.1708,1.1474,1.1134,1.0612,1.0592,1.0627,1.0167,1.0751,1.1336,1.0812,1.1057,1.156,1.2141,1.1951,1.1832,1.2355,1.3191,1.3839,1.3884,1.4552,1.5118,1.5164,1.5466,1.5708,1.5742,1.6432,1.6982,1.7147,0.0,0.0,1.6937,1.6471,1.6246,1.6276,1.5797,1.5089,1.416,1.4436,1.5084,1.6098,1.5421,1.5666,1.6879,1.6187,1.5163,1.3887,1.269,1.2276,0.0,0.0,0.0,0.0,0.0,0.0,0.0,0.0,0.0,0.0,0.0,0.0,0.0,0.0,0.0,0.5128,0.5974,0.6759,0.709,0.7376,0.7802,0.8496,0.861,0.8778,0.9176,0.9167,0.8887,0.8374,0.8994,0.937,0.9235,0.9858,1.0586,1.1381,1.1423,1.1533,1.1724,1.1928,1.1991,1.1991,0.0,0.0,1.2218,1.2218,1.2058,1.1784,1.1784,1.165,1.1423,1.1969,1.2721,1.3476,1.3225,1.3644,1.4371,1.4082,1.3728,1.3412,1.3818,1.322,1.2386,1.2784,1.2826,1.2689,1.241,1.2265,0.0,1.2589,1.2698,1.2734,1.273,1.2912,1.2963,1.2531,1.2495,1.2715,1.3204,1.3314,1.3468,1.3957,1.4313,1.4631,1.5014,1.5045,1.5171,1.5599,1.5367,1.5514,1.6523,1.6947,1.7263,1.7558,1.8161,1.8119,1.7069,1.7322,1.6982,1.5682,1.5931,1.5928,1.5452,1.6111,1.6386,1.6176,1.6125,1.6315,1.674,1.6684,1.6571,1.6369,1.4896,1.4334,0.0,0.0,0.0,0.0,0.0,0.0,0.0,0.0,0.0,0.0,0.0,0.4726,0.5291,0.0,0.6041,0.7042,0.7212,0.7458,0.8197,0.8399,0.8569,0.8851,0.8902,0.8999,0.9278,0.9797,0.9906,0.9491,1.0307,1.0815,1.0749,1.1137,1.1566,1.2078,1.2084,1.2151,1.2305,1.2305,1.2305,1.2305,1.2305,1.2305,1.2305,1.2415,1.2371,1.2272,1.2344,1.2291,1.2212,1.2804,1.3551,1.4296,1.4368,1.4312,1.4188,1.4063,1.3992,1.4052,1.438,1.4073,1.352,1.3694,1.3749,1.3664,1.3142,1.3123,1.3245,1.3161,1.3213,1.3267,1.3038,1.3238,1.3371,1.2906,1.2855,1.3017,1.3501,1.3658,1.3849,1.4388,1.4766,1.5096,1.5354,1.5293,1.5362,1.584,1.5645,1.5853,1.6904,1.7067,1.7489,1.8482,1.8652,1.8582,1.8325,1.7991,1.7389,1.6404,1.6675,1.6697,1.6363,1.6765,1.6975,1.6894,1.6561,1.6736,1.7406,1.7092,1.7046,1.7189,1.6884,1.6591,0.0,0.0,0.0,0.0,0.0,0.0,0.0,0.0,0.472,0.5097,0.5442,0.5976,0.6929,0.6767,0.7055,0.8744,0.8434,0.8366,0.9494,0.955,0.9477,0.9507,0.9355,0.9365,0.9705,1.0557,1.1002,1.0797,1.1726,1.2224,1.2077,1.2231,1.2305,1.2305,1.2305,1.2305,1.2305,1.2305,1.2305,1.2305,1.2305,1.2335,1.2378,1.2526,1.2709,1.2893,1.3215,1.3361,1.3375,1.385,1.4492,1.5172,1.5567,1.5258,1.4556,1.4233,1.4321,1.4618,1.4618,1.4563,1.4499,1.4499,1.4588,1.4588,1.4043,1.4055,1.4146,1.3629,1.3566,1.358,1.3084,1.3426,1.3798,1.3261,1.3256,1.349,1.3973,1.4041,1.4154,1.4755,1.522,1.5567,1.5722,1.5743,1.581,1.6015,1.5969,1.6191,1.6956,1.7041,1.7572,1.8905,1.877,1.8874,1.9531,1.8428,1.7649,1.7514,1.7439,1.7327,1.7154,1.7205,1.7424,1.7824,1.7207,1.7351,1.8335,1.776,1.7572,1.7772,1.8563,1.8517,0.5096,0.5081,0.0,0.569,0.5977,0.6389,0.0,0.0,0.6966,0.7435,0.7711,0.7838,0.7784,0.822,0.859,0.8726,0.9115,0.9658,1.0437,1.0453,1.0689,1.1546,1.0975,1.0783,1.1533,1.1933,1.184,1.1106,1.1835,1.2003,1.126,1.1892,1.2305,1.2305,1.2305,1.2305,1.2305,1.2305,1.2305,1.2305,1.2305,1.2378,1.2562,1.2599,1.3032,1.3897,1.4637,1.495,1.495,1.5201,1.5738,1.639,1.6206,1.6482,1.695,1.6516,1.5791,1.5023,1.5023,1.4793,1.4499,1.4499,1.4854,1.5294,1.5206,1.5196,1.5226,1.5158,1.5158,1.5061,1.4637,1.4999,1.5337,1.4872,1.4889,1.518,1.5716,1.5591,1.5543,1.6086,1.6272,1.6509,1.6934,1.6988,1.6807,1.6275,1.6065,1.611,1.6448,1.694,1.7323,1.7435,1.8302,1.9057,1.9546,1.8428,1.7871,1.8248,1.7732,1.7602,1.8041,1.8062,1.8243,1.8664,1.8583,1.8747,1.9168,1.9206,1.9251,1.9343,1.9635,1.9426,0.639,0.0,0.0,0.0,0.732,0.7462,0.7314,0.7399,0.757,0.7845,0.8155,0.8457,0.8776,0.8957,0.94,0.0,1.0526,1.0827,1.1852,1.1536,1.1414,1.1957,1.1475,1.118,1.1306,1.1827,1.1893,1.1136,1.1966,1.2342,1.2003,1.2415,1.2636,1.2636,1.2636,1.2636,1.2636,1.2636,1.2636,1.2636,1.2636,1.2673,1.2783,1.29,1.347,1.4358,1.4708,1.5092,1.549,1.5561,1.6053,1.6766,1.6636,1.7075,1.7666,1.695,1.6423,1.604,1.604,1.5925,1.5673,1.5044,1.5272,1.5683,1.5077,1.5118,1.541,1.541,1.5661,1.5899,1.5717,1.5946,1.6181,1.6072,1.5906,1.5847,1.6138,1.6103,1.6083,1.6346,1.6616,1.6879,1.7157,1.7393,1.7455,1.7186,1.6977,1.7029,1.746,1.7819,1.8156,1.84,1.8636,1.8936,1.9328,1.8888,1.8798,1.9349,1.9131,1.8922,1.8844,1.8993,1.8991,1.8807,1.8957,1.9142,1.9357,1.9446,1.9794,2.0354,2.055,2.0565,0.6906,0.0,0.0,0.7803,0.8109,0.8075,0.7579,0.7693,0.7965,0.8057,0.8524,0.9073,0.9562,0.9757,1.0296,1.175,1.1698,1.1814,1.2851,1.231,1.1897,1.21,1.1727,1.1401,1.1278,1.1813,1.1962,1.1471,1.2114,1.2526,1.2599,1.2746,1.2826,1.29,1.29,1.29,1.29,1.29,1.3003,1.3185,1.3185,1.3361,1.3644,1.4042,1.4573,1.5242,1.5455,1.5842,1.6341,1.6341,1.6689,1.7182,1.7182,1.7545,1.793,1.7282,1.698,1.6882,1.6882,1.6804,1.6575,1.5779,1.5871,1.6132,1.5415,1.5488,1.585,1.5894,1.6226,1.6595,1.6595,1.6868,1.7144,1.7239,1.7063,1.6869,1.6979,1.6907,1.6794,1.6685,1.6921,1.7157,1.7337,1.7618,1.7908,1.8212,1.8144,1.8087,1.8185,1.8405,1.8761,1.9274,1.9012,1.8978,1.9414,1.9156,1.9197,1.971,1.9602,1.9341,1.9016,1.9248,1.9208,1.8807,1.9067,1.9272,1.9438,1.9482,1.9871,2.0515,2.0743,2.0892,0.0,0.0,0.6877,0.7548,0.7872,0.8032,0.805,0.8293,0.8466,0.8466,0.9269,0.9971,0.9977,1.0768,1.1546,1.1927,1.22,1.2543,1.3113,1.2593,1.2262,1.2458,1.1952,1.1732,0.0,1.2244,1.2291,1.2268,1.2298,1.2378,1.2599,1.2599,1.2709,1.29,1.29,1.29,1.29,1.29,1.3258,1.397,1.397,1.4466,1.5463,1.6376,1.6793,1.6862,1.7579,1.7906,1.794,1.794,1.794,1.7974,1.7974,1.7974,1.8008,1.7978,1.7715,1.7363,1.7363,1.709,1.6697,1.6646,1.6677,1.6715,1.6879,1.6944,1.6969,1.7108,1.7257,1.7379,1.7379,1.7891,1.8447,1.8447,1.8582,1.871,1.8722,1.8422,1.7992,1.7463,1.7373,1.7472,1.7733,1.7787,1.8173,1.9277,1.9446,1.9064,1.8039,1.8186,1.8656,1.9324,1.9209,1.9359,2.0023,1.9059,1.8535,1.8822,1.8285,1.8056,1.8235,1.85,1.8678,1.8798,1.9064,1.93,1.9501,1.9555,1.9576,1.9543,1.9822,1.9976,0.0,0.0,0.7866,0.8903,0.9276,0.9389,0.9419,0.9658,0.9894,0.9894,0.9775,0.9805,1.0326,1.0523,1.0943,1.1859,1.2339,1.2799,1.3339,1.3194,1.2931,1.2536,1.2606,0.0,0.0,0.0,0.0,1.2682,1.2826,1.2936,1.2973,1.3119,1.3236,1.3309,1.3309,1.341,1.3627,1.3627,1.3878,1.4319,1.4857,1.547,1.6122,1.641,1.6696,1.6897,1.7148,1.7545,1.8008,1.8008,1.8008,1.8008,1.8008,1.8008,1.8008,1.8008,1.8271,1.8563,1.7994,1.7705,1.7539,1.7256,1.7168,1.7209,1.7472,1.7283,1.7111,1.7708,1.7941,1.8023,1.812,1.8617,1.9107,1.9212,1.9287,1.9358,1.9427,1.9354,1.9186,1.8963,1.9167,1.9273,1.8913,1.9113,1.9464,1.9899,1.9889,1.9776,1.9591,1.9235,1.9201,1.9751,1.9416,1.96,2.0663,2.0495,2.0467,2.0773,2.0609,2.0068,1.9107,1.941,1.9362,1.8878,1.9295,1.953,1.9489,1.9609,2.0196,2.122,2.1493,2.1959,0.0,0.7823,0.8409,0.9506,0.9654,0.955,0.968,0.9675,0.9668,0.9668,0.94,0.9333,0.9896,1.01,1.054,1.1657,1.2119,1.2612,1.331,1.3281,1.3091,1.2711,1.286,1.2855,0.0,0.0,0.0,1.2894,1.301,1.3119,1.32,1.3309,1.3419,1.3492,1.3775,1.4079,1.4464,1.471,1.5182,1.5835,1.6602,1.7149,1.7424,1.7252,1.7294,1.7502,1.7361,1.7545,1.8008,1.8008,1.8008,1.8008,1.8076,1.811,1.811,1.811,1.8664,1.9299,1.8687,1.8654,1.8903,1.8615,1.8555,1.8569,1.8822,1.8627,1.8492,1.9057,1.9162,1.9102,1.9198,1.9385,1.9565,1.9656,1.9656,1.9736,2.0017,2.0085,2.0083,2.003,2.0271,2.0319,1.9838,2.0105,2.0382,2.035,2.0359,2.046,2.0629,2.0253,2.0115,2.046,2.0109,2.0212,2.1106,2.1109,2.1179,2.1493,2.1545,2.1134,2.0181,2.0478,2.0427,1.99,2.0366,2.0563,2.0496,2.064,2.1224,2.2258,2.2462,2.2865,0.7198,0.7786,0.85,0.9432,0.9123,0.8678,0.9,0.8554,0.8098,0.8087,0.8363,0.8663,0.0,0.0,1.0391,1.1346,1.1684,1.216,1.31,1.2935,1.2812,0.0,0.0,0.0,0.0,0.0,0.0,1.3076,0.0,1.3083,1.3266,1.3302,1.3411,1.3601,1.431,1.4916,1.5375,1.6094,1.7065,1.8276,1.8979,1.9309,1.9307,1.8851,1.8637,1.8578,1.8213,1.8027,1.8008,1.8008,1.8008,1.8008,1.8202,1.8303,1.8337,1.8371,1.8954,1.9694,1.9497,1.9944,2.059,2.059,2.059,2.0628,2.0784,2.0803,2.0848,2.1096,2.0863,2.0565,2.058,2.0235,1.99,1.9913,1.9901,2.0029,2.0585,2.0684,2.0699,2.07,2.0694,2.0648,2.0527,2.0744,2.0864,2.0704,2.0941,2.1103,2.1103,2.1183,2.1262,2.1402,2.1192,2.1133,2.1353,2.0967,2.0828,2.1057,2.1127,2.1212,2.132,2.1561,2.1709,2.1709,2.2051,2.2247,2.2306,2.2435,2.2536,2.2577,2.2705,2.2794,0.858,0.9173,0.9733,1.0232,1.0217,1.0015,0.9873,0.9672,0.9497,0.9294,0.8923,0.8696,0.0,0.0,0.0,1.1031,1.1825,0.0,1.3317,1.3346,0.0,0.0,0.0,1.3933,1.4756,1.4678,0.0,0.0,1.468,1.4178,1.425,1.4752,1.5073,1.5144,1.566,1.6125,1.6476,1.7209,1.8053,1.9038,1.9232,1.9449,1.9746,1.9639,1.9202,1.8598,1.849,1.8266,1.8008,1.8008,1.8008,1.8008,1.8202,1.8596,1.9044,1.921,2.015,2.1302,2.1239,2.0942,2.059,2.059,2.059,2.0696,2.1233,2.1127,2.0949,2.1653,2.1464,2.1224,2.1762,2.147,2.1108,2.1556,2.1324,2.1151,2.1684,2.1779,2.1917,2.2264,2.2044,2.1874,2.2141,2.1648,2.1341,2.174,2.1521,2.1309,2.1246,2.1246,2.1402,2.1751,2.1802,2.1979,2.2371,2.2407,2.2271,2.1986,2.1971,2.1837,2.146,2.1659,2.176,2.176,2.2188,2.2381,2.2306,2.253,2.2932,2.3471,2.3611,2.401,0.9204,0.9802,1.0354,1.0553,1.0593,1.0512,1.018,1.002,0.9806,0.9385,0.8888,0.0,0.0,0.0,0.0,0.0,0.0,0.0,1.3027,1.3419,1.3778,0.0,1.4409,0.0,1.5889,1.5601,1.5727,0.0,1.5881,1.5375,1.5375,1.5958,1.627,1.627,1.6851,1.7529,1.8226,1.8845,1.9402,1.9854,1.9854,2.0042,2.0319,2.0113,1.9735,1.9166,0.0,1.8616,1.8212,1.8212,1.8212,1.8245,1.8438,1.8921,1.954,1.9639,2.0655,2.197,2.1908,2.1803,2.171,2.171,2.171,2.1772,2.2156,2.2043,2.1904,2.2407,2.2139,2.1901,2.2563,2.2296,2.1931,2.2218,2.2043,2.1865,2.2133,2.231,2.2655,2.3385,2.3298,2.3169,2.3291,2.2861,2.2467,2.2426,2.215,2.1886,2.1679,2.1631,2.172,2.1996,2.2268,2.2558,2.2889,2.3008,2.3017,2.2963,2.2998,2.2954,2.2822,2.2952,2.3027,2.3027,2.3395,2.3567,2.353,2.3765,2.4105,2.4553,2.4623,2.4924,0.95,1.0012,1.0593,1.0593,1.0566,1.0452,1.0127,0.9806,0.9412,0.8864,0.0,0.0,0.7899,0.0,0.9099,0.9769,0.0,1.1696,1.2758,1.3448,1.4253,1.5298,1.5367,1.5811,1.6917,1.6378,1.6268,1.7055,1.6911,1.6753,1.6644,1.7059,1.7336,1.7389,1.8053,1.8938,1.999,2.0419,2.0605,2.0605,2.0644,2.0731,2.0896,2.0518,2.0219,2.0001,1.9606,1.9184,1.8774,1.8774,1.8774,1.8808,1.8998,1.9474,2.0096,2.0096,2.1005,2.2206,2.2094,2.2506,2.3108,2.3108,2.3108,2.3108,2.3108,2.3155,2.3215,2.3215,2.2964,2.2802,2.3401,2.3161,2.2751,2.277,2.2649,2.2525,2.2536,2.2752,2.3231,2.4162,2.4343,2.4311,2.4211,2.4114,2.3833,2.3162,2.2996,2.2759,2.2346,2.2135,2.2082,2.2265,2.2611,2.2919,2.3119,2.3126,2.3336,2.3806,2.3878,2.4096,2.45,2.4574,2.4615,2.4615,2.4874,2.505,2.509,2.5307,2.5433,2.5492,2.5511,2.5499,1.0352,1.0483,1.0593,1.0593,1.0374,1.012,0.9826,0.9345,0.0,0.0,0.0,0.7892,0.7625,0.8466,0.0,0.9756,0.0,0.0,0.0,0.0,1.4977,0.0,0.0,0.0,0.0,0.0,0.0,0.0,0.0,1.8541,1.7916,1.8534,1.9065,1.9401,1.9533,1.9896,2.0488,2.0566,2.0605,2.0605,2.078,2.0867,2.0906,2.0971,2.092,2.0709,2.0635,0.0,2.0236,2.0236,2.0236,2.0236,2.0386,2.0899,2.1565,2.1678,2.2206,2.2914,2.2884,2.2975,2.3108,2.3108,2.3108,2.3108,2.3108,2.3484,2.3927,2.3927,2.4213,2.4661,2.5273,2.4939,2.4597,2.508,2.4388,2.3748,2.4178,2.4264,2.4338,2.4502,2.4603,2.474,2.5112,2.4745,2.4562,2.4963,2.4507,2.3912,2.3414,2.2595,2.2237,2.2655,2.285,2.3057,2.3253,2.336,2.3576,2.3951,2.3981,2.4155,2.4574,2.465,2.4674,2.4674,2.4942,2.5097,2.509,2.536,2.5496,2.5491,2.5495,2.551,1.0694,1.0713,1.0688,1.0624,1.0396,1.0124,0.9863,0.0,0.0,0.0,0.0,0.7761,0.7498,0.0,0.0,0.0,0.0,0.0,0.0,0.0,0.0,0.0,0.0,0.0,0.0,0.0,0.0,0.0,0.0,1.9374,1.8784,1.9558,2.0049,2.0244,2.0254,2.0352,2.0605,2.0605,2.0644,2.078,2.0867,2.1233,2.1814,2.1613,2.1626,2.176,2.1494,0.0,2.0858,2.0858,2.0858,2.0858,2.0942,2.1385,2.2021,2.2082,2.2525,2.3108,2.3108,2.3108,2.3168,2.3514,2.3395,2.3108,2.3108,2.3573,2.4102,2.4102,2.4538,2.5133,2.5743,2.5669,2.5505,2.5839,2.5442,2.5092,2.5413,2.5467,2.5401,2.5291,2.5307,2.5478,2.5939,2.5785,2.5629,2.5709,2.5399,2.4995,2.4541,2.4026,2.3467,2.2877,2.3003,2.3205,2.3289,2.3492,2.371,2.3973,2.4099,2.4293,2.4599,2.4663,2.4706,2.4709,2.4955,2.509,2.509,2.5378,2.5507,2.5499,2.554,2.5557,1.0781,1.0822,1.0839,1.0713,1.0465,1.0178,0.9906,0.9424,0.0,0.0,0.0,0.7657,0.744,0.0,0.0,0.0,0.0,0.0,0.0,0.0,0.0,0.0,0.0,0.0,0.0,0.0,0.0,0.0,0.0,1.9814,1.957,2.0145,2.0458,2.0458,2.0507,2.0497,2.0497,2.0817,2.1059,2.1233,2.1324,2.1858,2.2746,2.2194,2.2197,2.2622,2.2207,0.0,0.0,2.1534,2.1534,2.1534,2.1534,2.1846,2.2298,2.2298,2.2659,2.3108,2.3108,2.3198,2.3395,2.3914,2.375,2.3335,2.3471,2.3972,2.4494,2.4494,2.4936,2.555,2.6136,2.6297,2.6337,2.6361,2.6447,2.6541,2.6486,2.6455,2.6396,2.6225,2.6124,2.6169,2.6537,2.6657,2.6589,2.6297,2.6258,2.6117,2.5717,2.5612,2.5049,2.3624,2.371,2.3797,2.3661,2.3894,2.406,2.4068,2.4229,2.4442,2.4604,2.4668,2.4707,2.4734,2.4981,2.5113,2.5141,2.5385,2.5506,2.5513,2.5583,2.5599,1.0739,1.0842,1.1059,1.1066,1.0581,1.0036,0.9785,0.0,0.0,0.0,0.7629,0.7426,0.7398,0.0,0.0,0.0,0.0,0.0,0.0,0.0,0.0,0.0,0.0,0.0,0.0,0.0,0.0,0.0,1.9416,2.0068,2.0468,2.0146,1.9971,1.9971,2.0149,2.0224,2.0224,2.1549,2.2247,2.2285,2.2644,2.2865,2.2949,2.2592,2.2566,2.2774,2.2738,2.2807,0.0,2.2914,2.2914,2.2914,2.2914,2.2944,2.3005,2.3005,2.3047,2.3108,2.3108,2.3514,2.4002,2.4073,2.4073,2.4118,2.4652,2.5258,2.5729,2.5729,2.6245,2.6922,2.7399,2.761,2.7682,2.7574,2.793,2.81,2.7504,2.7274,2.7191,2.7162,2.6832,2.6537,2.6589,2.6792,2.7068,2.7404,2.7447,2.73,2.6899,2.685,2.6511,2.5699,2.5629,2.5404,2.4787,2.5002,2.4892,2.4321,2.44,2.4545,2.4684,2.47,2.4757,2.4874,2.5024,2.5159,2.5283,2.5422,2.5538,2.5593,2.5596,2.5605,1.0726,1.0975,1.1135,1.0859,1.0405,0.991,0.9597,0.0,0.0,0.8068,0.7788,0.7587,0.7587,0.7867,0.0,0.0,0.0,0.0,0.0,0.0,0.0,0.0,0.0,0.0,0.0,0.0,0.0,0.0,1.9419,1.972,2.0083,1.9986,1.9959,2.0082,1.991,2.0249,2.1099,2.1692,2.2254,2.2764,2.2923,2.3132,2.3336,2.2887,2.2982,2.3503,2.3127,2.3021,0.0,2.3108,2.3108,2.3108,2.3108,2.3108,2.3108,2.3108,2.3365,2.3691,2.3691,2.4105,2.4709,2.5062,2.5245,2.5259,2.5063,2.5495,2.6028,2.6028,2.6551,2.7233,2.769,2.8143,2.8576,2.8792,2.9079,2.9178,2.8739,2.86,2.8307,2.7464,2.7286,2.7198,2.7009,2.7181,2.7507,2.7904,2.7961,2.798,2.8021,2.7882,2.7756,2.7713,2.6694,2.5943,2.5762,2.5978,2.5862,2.518,2.5319,2.5185,2.4718,2.4779,2.4854,2.4891,2.5116,2.5245,2.5296,2.5487,2.5573,2.5599,2.5609,2.5607,1.043,1.0768,1.1004,1.0692,1.0286,0.9859,0.0,0.0,0.829,0.8099,0.7873,0.7691,0.7691,0.7982,0.8385,0.0,0.0,0.0,0.0,0.0,0.0,0.0,0.0,0.0,0.0,0.0,0.0,1.9461,1.9653,1.9847,2.0063,2.0225,2.0244,2.0202,2.0186,2.0642,2.1612,2.2037,2.2573,2.3167,2.327,2.3453,2.3689,2.3142,2.3206,2.3715,2.3283,0.0,0.0,2.3108,2.3108,2.3108,2.3108,2.3215,2.3395,2.3454,2.3884,2.4423,2.4452,2.4879,2.5453,2.5865,2.619,2.6336,2.581,2.6014,2.6431,2.6431,2.7034,2.782,2.8336,2.8919,2.9461,2.9777,2.9946,2.9982,2.9827,2.9706,2.9357,2.8377,2.813,2.8013,2.7769,2.7752,2.789,2.8201,2.8309,2.8453,2.8718,2.8626,2.8651,2.8927,2.777,2.6906,2.6731,2.6972,2.6729,2.5753,2.5906,2.5629,2.4776,2.4861,2.4955,2.498,2.5206,2.5357,2.5398,2.5534,2.5605,2.5605,2.5607,2.5753,0.9716,1.0104,1.0594,1.0594,1.0346,0.9936,0.0,0.895,0.8502,0.7851,0.7698,0.7691,0.7691,0.7982,0.8312,0.0,0.0,0.0,0.0,0.0,0.0,0.0,0.0,0.0,0.0,0.0,0.0,1.9188,2.0207,0.0,2.079,2.1057,2.0885,2.022,2.1019,2.1484,2.1484,2.2864,2.3568,2.3601,2.3862,2.3973,2.3991,2.3371,2.312,2.3108,2.3108,0.0,0.0,2.3108,2.3108,2.3108,2.3108,2.3514,2.4102,2.4234,2.4681,2.5203,2.5342,2.5783,2.6283,2.6283,2.6709,2.7181,2.7181,2.7181,2.7181,2.7181,2.8018,2.902,2.9617,3.0135,3.0468,3.0489,3.0489,3.0531,3.0654,3.0429,3.0212,3.0271,2.9568,2.8991,2.8973,2.8546,2.8246,2.8384,2.8574,2.8743,2.8893,2.9012,2.9086,2.9104,2.9086,2.8688,2.7768,2.7985,2.7475,2.5817,2.5955,2.5706,2.4832,2.4936,2.5065,2.5186,2.533,2.5461,2.5596,2.5592,2.5601,2.5601,2.5595,2.6102,0.9376,0.9775,1.0155,0.9757,0.9574,0.9324,0.8655,0.8429,0.8231,0.7786,0.7691,0.7691,0.7691,0.7778,0.8121,0.8921,0.0,0.0,0.0,0.0,0.0,0.0,0.0,0.0,0.0,0.0,1.8954,1.9573,1.9834,2.0277,2.0974,2.1433,2.1491,2.1097,2.1037,2.1523,2.2521,2.2958,2.3409,2.3882,2.3941,2.3791,2.3371,2.3195,2.3108,0.0,0.0,0.0,0.0,2.3108,2.3108,2.3138,2.3603,2.3972,2.4292,2.4766,2.537,2.596,2.6014,2.6404,2.6919,2.6919,2.7316,2.782,2.782,2.7585,2.7437,2.783,2.8709,2.955,2.975,3.0156,3.0526,3.0609,3.0651,3.0736,3.1103,3.1094,3.0958,3.075,3.0639,3.026,2.9302,2.9161,2.9058,2.8785,2.881,2.8934,2.9214,2.9166,2.9158,2.9283,2.9346,2.9235,2.8897,2.8961,2.8652,2.7746,2.7765,2.7463,2.6692,2.6823,2.6941,2.697,2.7147,2.7267,2.732,2.7304,2.7323,2.7387,2.7374,2.7545,0.88,0.9182,0.9475,0.9112,0.9016,0.8877,0.8326,0.8202,0.8107,0.7764,0.7836,0.7961,0.7961,0.8198,0.8576,0.9206,0.0,0.0,0.0,0.0,0.0,0.0,0.0,0.0,0.0,1.8961,1.9419,2.0226,2.0462,2.0814,2.1428,2.2032,2.227,2.2106,2.1832,2.2114,2.3039,2.3051,2.325,2.3665,2.3665,2.3446,2.3108,2.3108,2.3108,2.3108,0.0,0.0,0.0,2.356,2.3708,2.4018,2.4423,2.4794,2.5119,2.5536,2.6122,2.6721,2.6774,2.7049,2.7372,2.756,2.8002,2.8487,2.8487,2.8271,2.8165,2.8709,2.9332,2.9837,3.0027,3.0321,3.0589,3.0671,3.0733,3.0898,3.1376,3.1585,3.1651,3.1633,3.1629,3.126,3.0073,2.9837,2.9582,2.8979,2.9003,2.9171,2.9382,2.9363,2.9375,2.9522,2.958,2.9608,2.9589,2.9589,2.9325,2.8677,2.8652,2.8336,2.7601,2.7748,2.785,2.7875,2.8055,2.8133,2.8133,2.8145,2.8154,2.8191,2.8208,2.8385,0.0,0.837,0.8648,0.8626,0.8633,0.8568,0.8238,0.8187,0.0,0.7806,0.8106,0.8422,0.8467,0.9031,0.9529,0.9615,0.0,0.0,0.0,0.0,0.0,0.0,0.0,0.0,0.0,1.9823,2.0452,2.1123,2.1776,2.2161,2.2223,2.2849,2.3208,2.317,2.3158,2.3145,2.3108,2.3108,2.3108,2.3108,2.3108,2.3138,2.3168,2.3138,2.3138,0.0,0.0,0.0,0.0,2.435,2.4794,2.5398,2.5453,2.581,2.6336,2.651,2.6919,2.7412,2.7549,2.7625,2.7735,2.8231,2.8732,2.9143,2.9189,2.9166,2.9234,2.9661,2.9815,2.9962,3.0426,3.0651,3.0753,3.0777,3.0878,3.1117,3.1584,3.1915,3.2299,3.2747,3.2535,3.2035,3.1234,3.0631,2.9972,2.9118,2.9277,2.9478,2.9433,2.9589,2.9738,2.9808,2.9816,2.9859,2.9916,2.9916,2.9583,2.8848,2.8852,2.859,2.791,2.8013,2.8115,2.8187,2.832,2.8388,2.8371,2.8381,2.8375,2.8384,2.8386,2.8825,0.7022,0.0,0.8253,0.8004,0.8136,0.8231,0.0,0.8026,0.0,0.0,0.0,0.0,0.0,0.0,0.0,0.0,0.0,0.0,0.0,0.0,0.0,0.0,0.0,0.0,0.0,2.0482,2.1155,2.1803,2.2435,2.3004,2.353,2.4098,2.4199,2.3803,2.3791,2.359,2.3108,2.3108,2.3108,2.3108,2.3108,2.3365,2.3839,2.3335,2.3365,0.0,0.0,0.0,2.435,2.4894,2.5231,2.5453,2.5906,2.6229,2.651,2.7011,2.7346,2.7549,2.76,2.7845,2.828,2.9157,2.9534,2.9705,3.007,2.9919,2.9661,2.9772,3.007,3.0468,3.0982,3.114,3.1259,3.1661,3.1807,3.195,3.2417,3.2567,3.2747,3.3178,3.3186,3.2868,3.2053,3.1937,3.1481,3.0164,3.0262,3.0291,2.9766,2.9789,2.9857,2.9864,2.9975,3.0041,3.0046,2.9956,2.9853,2.9779,2.9825,2.9825,2.9691,2.9877,2.9961,2.999,3.0116,3.0188,3.0185,3.0193,3.0188,3.0195,3.0187,3.0293,0.6526,0.7236,0.7931,0.7735,0.796,0.8195,0.8204,0.0,0.0,0.0,0.0,0.0,0.0,0.0,0.0,0.0,0.0,0.0,0.0,0.0,0.0,0.0,0.0,0.0,0.0,2.1365,2.1834,2.2494,2.3113,2.3634,2.396,2.4519,2.4537,2.4017,2.4004,2.3715,2.3108,2.3108,2.3108,2.3108,2.3108,2.3484,2.4176,2.3839,2.4018,0.0,0.0,0.0,2.5342,2.5728,2.6292,2.6887,2.6875,2.712,2.7486,2.7715,2.787,2.7968,2.8198,2.8591,2.9065,2.9617,2.9962,3.0177,3.0506,3.0405,3.022,3.022,3.0535,3.0942,3.1259,3.1509,3.1751,3.2039,3.2144,3.2299,3.2715,3.2795,3.2908,3.3316,3.3393,3.3169,3.2447,3.2538,3.2317,3.1244,3.1013,3.0855,3.0492,3.0118,2.9913,2.9999,3.0065,3.011,3.0147,3.0083,3.0079,3.018,3.0221,3.0291,3.043,3.0539,3.063,3.0686,3.0757,3.0798,3.0794,3.0794,3.0801,3.0805,3.0801,3.0773,0.645,0.716,0.7821,0.7756,0.8009,0.8378,0.0,0.0,0.0,0.0,0.0,0.0,0.0,0.0,0.0,0.0,0.0,0.0,0.0,0.0,0.0,0.0,0.0,0.0,2.2025,2.2206,2.2494,2.3078,2.3722,2.4117,2.4117,2.4732,2.482,2.4255,2.428,2.4014,2.3414,2.3236,2.3258,2.3424,2.3335,2.3767,2.4595,2.4509,2.4879,2.5536,0.0,0.0,2.6654,2.6761,2.7592,2.8697,2.8139,2.8225,2.8699,2.8516,2.8429,2.8496,2.9012,2.9483,2.9837,2.9903,3.022,3.0589,3.0692,3.0773,3.0818,3.0818,3.1061,3.1355,3.1548,3.1897,3.2213,3.2282,3.2384,3.2553,3.2829,3.2892,3.2988,3.3316,3.3422,3.3288,3.2778,3.2952,3.2926,3.2306,3.1854,3.155,3.1417,3.0677,3.0178,3.03,3.0194,3.014,3.0204,3.0206,3.0241,3.0303,3.0328,3.0414,3.0617,3.0622,3.0678,3.0798,3.0792,3.0801,3.08,3.0793,3.0798,3.08,3.0788,3.0741,0.713,0.7956,0.8448,0.798,0.8289,0.8745,0.0,0.0,0.0,0.0,0.0,0.0,0.0,0.0,0.0,0.0,0.0,0.0,0.0,0.0,0.0,0.0,0.0,2.1937,2.2082,2.2616,2.2975,2.3078,2.4073,2.4662,2.4662,2.5661,2.5984,2.5372,2.553,2.5341,2.4792,2.3829,2.3868,2.4866,2.4481,2.4866,2.5987,2.5453,2.5563,2.6176,0.0,2.6732,2.7384,2.8019,2.8752,2.9457,2.9337,2.9256,2.92,2.9152,2.908,2.9051,2.9528,2.9815,3.0032,3.0426,3.0692,3.0851,3.0871,3.1061,3.1319,3.1432,3.1414,3.1567,3.2299,3.2553,3.2718,3.3117,3.3226,3.3241,3.3286,3.3319,3.3334,3.3378,3.3534,3.3643,3.3608,3.3956,3.4019,3.3283,3.3308,3.3154,3.2469,3.1714,3.1245,3.1195,3.0591,3.0197,3.0204,3.0254,3.0309,3.0381,3.0386,3.0477,3.0678,3.0731,3.0784,3.0798,3.0791,3.0798,3.08,3.0795,3.0799,3.08,3.074,3.0706,0.7062,0.7927,0.8558,0.842,0.9243,1.0247,0.0,0.0,0.0,0.0,0.0,0.0,0.0,0.0,0.0,0.0,0.0,0.0,0.0,0.0,0.0,0.0,0.0,2.2237,2.2628,2.2914,2.3233,2.3547,2.4324,2.4978,2.5365,2.6148,2.6405,2.5948,2.5996,2.5961,2.5756,2.4976,2.4823,2.5315,2.5091,2.5481,2.6404,2.6504,2.6906,2.7551,0.0,2.7806,2.8113,2.8461,2.8996,2.9604,2.9478,2.9602,2.9837,2.9722,2.9801,3.0006,3.0284,3.0431,3.051,3.0733,3.0978,3.1179,3.1257,3.1509,3.1843,3.2161,3.2196,3.2214,3.2651,3.2928,3.3132,3.3349,3.3393,3.3393,3.3393,3.3393,3.3433,3.3578,3.3684,3.3852,3.4183,3.4464,3.4579,3.4349,3.4086,3.3778,3.3397,3.2646,3.2145,3.2107,3.1389,3.0915,3.0945,3.0597,3.0403,3.0501,3.055,3.0625,3.0742,3.0789,3.0792,3.0791,3.0798,3.08,3.08,3.08,3.08,3.0797,3.0732,3.0675,0.7382,0.8145,0.8857,0.0,0.0,0.0,0.0,0.0,0.0,0.0,0.0,0.0,0.0,0.0,0.0,0.0,0.0,0.0,0.0,0.0,0.0,2.2267,2.2329,2.2555,2.3108,2.3168,2.3387,2.3858,2.4513,2.5167,2.5717,2.6387,2.6667,2.64,2.644,2.6403,2.6286,2.599,2.5859,2.5864,2.5755,2.6054,2.6788,2.7283,2.7836,2.8368,2.8368,2.8442,2.8607,2.8607,2.915,3.0014,2.9863,3.0155,3.0648,3.0289,3.0426,3.0753,3.0871,3.0955,3.1058,3.1058,3.1317,3.1641,3.1732,3.2003,3.235,3.2699,3.2829,3.288,3.2941,3.3178,3.3393,3.3393,3.3408,3.3422,3.3422,3.3495,3.3601,3.38,3.3906,3.4128,3.4572,3.4773,3.4936,3.5101,3.4634,3.4273,3.4273,3.3528,3.3005,3.3005,3.2113,3.1476,3.1378,3.08,3.0501,3.0645,3.0698,3.0745,3.0808,3.081,3.0806,3.08,3.08,3.0803,3.0807,3.08,3.0788,3.0773,3.0703,3.0648,0.8897,0.937,0.9796,1.0934,0.0,0.0,0.0,0.0,0.0,0.0,0.0,0.0,0.0,0.0,0.0,0.0,0.0,0.0,0.0,0.0,2.2975,2.3005,2.3035,2.3108,2.3373,2.3373,2.3445,2.3633,2.4631,2.5289,2.5329,2.6377,2.6963,2.6952,2.713,2.6913,2.6312,2.6446,2.6763,2.7258,2.6814,2.693,2.7524,2.7569,2.7609,2.766,2.766,2.8034,2.8607,2.8607,2.9645,3.1278,3.1259,3.1498,3.1774,3.0938,3.0753,3.0892,3.0892,3.1196,3.1545,3.1545,3.186,3.2248,3.2248,3.2485,3.2763,3.2795,3.3068,3.3349,3.3364,3.3378,3.3393,3.3393,3.3452,3.3477,3.3477,3.3739,3.3959,3.3985,3.4291,3.4582,3.4763,3.4945,3.5091,3.5185,3.5144,3.5114,3.5114,3.4407,3.3918,3.3918,3.2519,3.1341,3.071,3.0626,3.0649,3.0789,3.0796,3.0791,3.0796,3.0798,3.0806,3.08,3.08,3.0809,3.0798,3.0795,3.0771,3.0704,3.0642,3.0591,0.8875,0.997,1.0935,1.1062,0.0,0.0,0.0,0.0,0.0,0.0,0.0,0.0,0.0,0.0,0.0,0.0,0.0,0.0,0.0,2.33,2.333,2.3407,2.3407,2.3437,2.3509,2.3852,2.4246,2.4629,2.5403,2.5875,2.5934,2.6329,2.6419,2.6131,2.6193,2.611,2.588,2.5948,2.6084,2.629,2.6105,2.6154,2.6378,2.7225,2.76,2.764,2.8349,2.8809,2.9063,2.9344,2.9887,3.0563,3.0949,3.1179,3.1281,3.0994,3.0915,3.0995,3.1295,3.1507,3.1695,3.195,3.2299,3.2601,3.2601,3.286,3.3178,3.3178,3.3286,3.3393,3.3393,3.353,3.3643,3.3643,3.3826,3.4006,3.4006,3.4105,3.4249,3.4461,3.4612,3.4793,3.5009,3.5107,3.5168,3.5201,3.5209,3.5209,3.5209,3.4923,3.4787,3.4856,3.3996,3.2885,3.1582,3.1512,3.132,3.0822,3.0792,3.081,3.0798,3.0807,3.0806,3.08,3.08,3.0781,3.0749,3.0741,3.0706,3.0631,3.061,3.0589,0.9203,1.0414,1.1593,0.0,0.0,0.0,0.0,0.0,0.0,0.0,0.0,0.0,0.0,0.0,0.0,0.0,0.0,0.0,2.3433,2.3463,2.3569,2.3852,2.3868,2.3985,2.4205,2.4595,2.5013,2.5418,2.6019,2.6386,2.6414,2.6594,2.6575,2.6229,2.602,2.5802,2.5598,2.5379,2.5196,2.4971,2.5108,2.5333,2.5644,2.6681,2.7176,2.7216,2.8165,2.8581,2.8621,2.9234,2.9822,3.043,3.101,3.1267,3.1251,3.1076,3.1078,3.1257,3.1601,3.1842,3.2092,3.2368,3.27,3.2988,3.2988,3.3178,3.3393,3.3422,3.3477,3.3545,3.3591,3.3684,3.3815,3.3931,3.4152,3.4334,3.4334,3.4412,3.4551,3.4783,3.4889,3.4982,3.5157,3.5209,3.5209,3.5209,3.5209,3.5209,3.5209,3.5246,3.5235,3.5126,3.475,3.3944,3.2567,3.2232,3.1856,3.125,3.0948,3.0806,3.0806,3.0796,3.0793,3.08,3.0799,3.0771,3.0706,3.0672,3.0633,3.0609,3.0595,3.0741,1.0179,1.0737,0.0,0.0,0.0,0.0,0.0,0.0,0.0,0.0,0.0,0.0,0.0,0.0,0.0,0.0,0.0,0.0,2.3599,2.3628,2.3822,2.4423,2.4509,2.4794,2.5536,2.5618,2.5673,2.5783,2.6363,2.6709,2.6695,2.7265,2.7585,2.757,2.6941,2.6273,2.5615,2.4933,2.4261,2.3631,2.4078,2.4752,2.5585,2.6001,2.6212,2.6234,2.6769,2.7005,2.7089,2.796,2.9453,3.1243,3.1795,3.2039,3.2001,3.1264,3.1295,3.1695,3.1714,3.2196,3.2795,3.2795,3.3083,3.3393,3.3393,3.3393,3.3408,3.3495,3.3648,3.3834,3.3967,3.391,3.3893,3.4242,3.4357,3.4412,3.4412,3.4663,3.4889,3.4889,3.5063,3.5209,3.5209,3.5209,3.5209,3.5209,3.5209,3.5209,3.5209,3.5316,3.516,3.4575,3.4516,3.4216,3.3472,3.2617,3.213,3.211,3.1309,3.082,3.08,3.0801,3.0794,3.0799,3.0799,3.0765,3.0706,3.0633,3.0605,3.0602,3.0621,3.1043,1.0043,1.1348,0.0,0.0,0.0,0.0,0.0,0.0,0.0,0.0,0.0,0.0,0.0,0.0,0.0,0.0,0.0,2.3734,2.4292,2.4379,2.4624,2.5315,2.5398,2.5508,2.5728,2.6122,2.6404,2.6431,2.6982,2.7138,2.6639,2.6812,2.6686,2.6213,2.6004,2.5809,2.5615,2.4933,2.4679,2.478,2.4508,2.4471,2.4704,2.5648,2.6068,2.612,2.7169,2.762,2.7725,2.8829,2.9672,3.0359,3.1033,3.1369,3.1475,3.1496,3.1582,3.1769,3.2282,3.2617,3.286,3.3129,3.3331,3.3466,3.3466,3.3491,3.3534,3.3563,3.3748,3.3986,3.4225,3.4398,3.4529,3.4632,3.4813,3.4963,3.4963,3.5044,3.5107,3.5107,3.5149,3.5209,3.5209,3.5209,3.5209,3.5209,3.5209,3.5227,3.5331,3.5498,3.5557,3.5425,3.55,3.5217,3.4392,3.4081,3.3671,3.3046,3.2772,3.2091,3.0924,3.0837,3.0779,3.0729,3.0681,3.0642,3.0633,3.0617,3.06,3.0616,3.1183,3.156,1.1006,0.0,0.0,0.0,0.0,0.0,0.0,0.0,0.0,0.0,0.0,0.0,0.0,0.0,0.0,0.0,2.408,2.4567,2.5063,2.5147,2.5398,2.6095,2.6149,2.6256,2.6481,2.6852,2.7074,2.7074,2.7382,2.742,2.7031,2.7001,2.6821,2.6408,2.6138,2.6083,2.6265,2.5629,2.5586,2.6076,2.5893,2.5627,2.5353,2.5739,2.5921,2.5972,2.6965,2.7555,2.7928,2.8643,2.9256,2.9746,3.0185,3.0692,3.1172,3.1391,3.176,3.2214,3.265,3.2923,3.3111,3.336,3.3495,3.3534,3.3534,3.3563,3.3633,3.3766,3.3967,3.4232,3.4518,3.4774,3.4963,3.4963,3.5089,3.5209,3.5209,3.5209,3.5209,3.5209,3.5218,3.5234,3.5234,3.5242,3.5239,3.5239,3.5293,3.5371,3.5504,3.5645,3.5771,3.5863,3.5958,3.5797,3.5252,3.4901,3.4471,3.3944,3.3594,3.2939,3.1894,3.1816,3.1761,3.1685,3.1644,3.1616,3.1579,3.1579,3.1579,3.1599,3.2082,3.2507,0.0,0.0,0.0,0.0,0.0,0.0,0.0,0.0,0.0,0.0,0.0,0.0,0.0,0.0,0.0,0.0,2.5364,2.5673,2.5864,2.5864,2.6122,2.6695,2.6788,2.6997,2.7549,2.76,2.76,2.76,2.76,2.76,2.76,2.7635,2.766,2.7685,2.7124,2.7057,2.7496,2.6893,2.6882,2.7459,2.777,2.7633,2.7041,2.6315,2.5936,2.5923,2.64,2.7028,2.7705,2.7808,2.8407,2.93,2.9403,3.0109,3.1092,3.1125,3.1848,3.2795,3.2842,3.3142,3.3509,3.3509,3.3549,3.3619,3.3619,3.3633,3.3712,3.4023,3.4279,3.4518,3.4831,3.5054,3.5209,3.5209,3.5209,3.5209,3.5209,3.5209,3.5209,3.5209,3.5261,3.5312,3.5293,3.5304,3.5296,3.533,3.5418,3.5541,3.5683,3.5767,3.5858,3.5988,3.5992,3.5992,3.5992,3.5271,3.4824,3.4824,3.4069,3.3592,3.3525,3.3372,3.3271,3.3195,3.3188,3.3156,3.3107,3.3107,3.3107,3.3107,3.3184,3.3629,0.0,0.0,0.0,0.0,0.0,0.0,0.0,0.0,0.0,0.0,0.0,0.0,0.0,0.0,0.0,2.5613,2.5699,2.5933,2.6457,2.651,2.6721,2.7331,2.7423,2.7473,2.76,2.76,2.76,2.76,2.76,0.0,2.76,2.7953,2.8198,2.8295,2.8514,2.8744,2.8958,2.8287,2.8196,0.0,2.8299,2.8224,2.8358,2.764,2.7006,2.6505,2.6624,2.6776,2.6996,2.7844,2.832,2.8627,2.9447,3.0326,3.1125,3.14,3.2038,3.2842,3.322,3.3419,3.3506,3.3563,3.3615,3.3671,3.3671,3.3855,3.4086,3.4161,3.4461,3.4821,3.4879,3.5054,3.5209,3.5209,3.5209,3.5209,3.5209,3.5209,3.5218,3.5269,3.5285,3.53,3.5293,3.53,3.5333,3.5438,3.5482,3.5576,3.5748,3.5849,3.5907,3.5989,3.5992,3.5992,3.5992,3.5823,3.5729,3.5729,3.5507,3.5324,3.5264,3.3996,3.3261,3.3192,3.3145,3.3113,3.3107,3.3107,3.3107,3.3126,3.3808,3.4185,0.0,0.0,0.0,0.0,0.0,0.0,0.0,0.0,0.0,0.0,0.0,0.0,0.0,0.0,0.0,2.6654,2.6654,2.6759,2.71,2.7126,2.7255,2.756,2.76,2.76,2.76,2.76,0.0,0.0,0.0,2.7735,2.8033,2.8271,2.8567,2.8919,2.9164,2.9435,2.9717,2.9389,2.945,2.9938,2.9673,2.9499,2.9389,2.8665,2.8127,2.7791,2.7385,2.7318,2.7486,2.7684,2.794,2.8265,2.8823,2.9642,3.0553,3.1105,3.1837,3.2652,3.3274,3.3534,3.3605,3.3647,3.3684,3.3753,3.3753,3.3959,3.4221,3.4333,3.462,3.4908,3.5028,3.5115,3.5209,3.5209,3.5209,3.5209,3.5234,3.5253,3.5269,3.5289,3.5331,3.5354,3.535,3.5397,3.5464,3.5531,3.5631,3.5733,3.583,3.5907,3.5953,3.5991,3.5992,3.5994,3.5999,3.6002,3.6005,3.6008,3.5976,3.5913,3.5846,3.498,3.4468,3.4405,3.4356,3.435,3.435,3.435,3.435,3.4345,3.4784,3.4961,0.0,0.0,0.0,0.0,0.0,0.0,0.0,0.0,0.0,0.0,0.0,0.0,0.0,0.0,0.0,2.757,2.76,2.76,2.76,0.0,0.0,0.0,0.0,0.0,0.0,0.0,0.0,0.0,0.0,2.7968,2.8463,2.8677,2.9012,2.954,2.9629,2.987,3.0288,3.0293,3.0539,3.1035,3.1035,3.0771,3.0277,2.967,2.9247,2.8959,2.8163,2.7998,2.8248,2.7571,2.7607,2.8116,2.817,2.8846,2.9888,3.0572,3.1465,3.2411,3.3084,3.3478,3.3698,3.3712,3.3753,3.382,3.3873,3.4061,3.4298,3.4497,3.4744,3.4992,3.5168,3.5209,3.5218,3.5218,3.5226,3.5234,3.5285,3.5293,3.5289,3.5308,3.5374,3.5442,3.545,3.5531,3.5625,3.5645,3.5795,3.5894,3.5921,3.5974,3.5992,3.5992,3.5994,3.5998,3.6004,3.6006,3.6009,3.5992,3.5995,3.5955,3.588,3.5812,3.5753,3.569,3.5704,3.5704,3.5704,3.5704,3.5684,3.5679,3.5637,3.5601,0.0,0.0,0.0,0.0,0.0,0.0,0.0,0.0,0.0,0.0,0.0,0.0,0.0,0.0,0.0,0.0,0.0,0.0,0.0,0.0,0.0,0.0,0.0,0.0,0.0,0.0,0.0,0.0,2.8091,2.8415,2.8503,2.9384,2.9995,3.0166,3.0559,3.0858,3.1055,3.1055,3.1075,3.1171,3.1171,3.112,3.1055,3.0937,3.0211,2.8959,2.8163,2.7998,2.8265,2.7818,2.7811,2.8143,2.8482,2.9134,2.9899,3.0072,3.1081,3.2411,3.257,3.3104,3.3712,3.3766,3.3775,3.3842,3.4074,3.4291,3.4508,3.4773,3.4991,3.5176,3.5182,3.5234,3.5277,3.5277,3.5289,3.5285,3.5293,3.5297,3.5315,3.5372,3.5496,3.5588,3.564,3.5668,3.5725,3.5837,3.588,3.5926,3.5983,3.5989,3.5992,3.5992,3.5999,3.6003,3.6004,3.5991,3.5994,3.5994,3.5953,3.5889,3.5827,3.5739,3.5706,3.5709,3.5704,3.5704,3.5704,3.5704,3.5673,3.5612,3.5606,3.5577,0.0,0.0,0.0,0.0,0.0,0.0,0.0,0.0,0.0,0.0,0.0,0.0,0.0,0.0,0.0,0.0,0.0,0.0,0.0,0.0,0.0,0.0,0.0,0.0,0.0,0.0,0.0,0.0,2.7242,2.7682,2.8238,2.8725,2.9151,2.956,2.9768,2.9918,2.9974,3.0378,3.0784,3.119,3.1389,3.1487,3.1487,3.1712,3.1239,3.0194,2.9618,2.9317,2.9212,2.8827,2.8599,2.8507,2.8682,2.898,2.9344,2.9818,3.0768,3.1879,3.2513,3.3283,3.3992,3.4148,3.4189,3.4201,3.4337,3.4537,3.4753,3.486,3.5046,3.5209,3.5253,3.5277,3.5293,3.5297,3.5335,3.5357,3.5361,3.5369,3.54,3.5502,3.5593,3.5669,3.5689,3.5756,3.5837,3.5886,3.5934,3.5976,3.5991,3.5992,3.5994,3.5999,3.6002,3.6006,3.5991,3.5994,3.5995,3.5996,3.5975,3.5925,3.5853,3.5783,3.5729,3.5698,3.5697,3.5704,3.5704,3.5648,3.5637,3.5601,3.5571,3.5534,0.0,0.0,0.0,0.0,0.0,0.0,0.0,0.0,0.0,0.0,0.0,0.0,0.0,0.0,0.0,0.0,0.0,0.0,0.0,0.0,0.0,0.0,0.0,0.0,0.0,0.0,0.0,0.0,2.6838,2.7305,2.8073,2.8249,2.8534,2.8975,2.8993,2.8993,2.8993,2.9736,3.0436,3.1059,3.1497,3.175,3.1896,3.2196,3.2039,3.1492,3.0992,3.0658,3.0462,2.9966,2.9498,2.9107,2.9132,2.9016,2.8895,2.9521,3.0461,3.1538,3.2341,3.3354,3.4309,3.4453,3.4508,3.4518,3.4572,3.4734,3.4917,3.4992,3.5107,3.5242,3.5293,3.5308,3.5324,3.5335,3.5372,3.5439,3.5439,3.5429,3.549,3.5604,3.5691,3.5756,3.5774,3.5861,3.5929,3.5929,3.5976,3.5992,3.5992,3.5994,3.5998,3.6004,3.6006,3.5991,3.5995,3.5995,3.5996,3.5996,3.5976,3.593,3.5884,3.5819,3.5751,3.5702,3.5707,3.5704,3.5704,3.5637,3.5601,3.5589,3.5534,3.5502,0.0,0.0,0.0,0.0,0.0,0.0,0.0,0.0,0.0,0.0,0.0,0.0,0.0,0.0,0.0,0.0,0.0,0.0,0.0,0.0,0.0,0.0,0.0,0.0,0.0,0.0,0.0,0.0,2.7697,2.8037,2.8112,2.8645,2.8956,2.8993,2.8993,2.8993,2.8993,2.9736,3.0279,3.0644,3.135,3.1932,3.2368,3.2385,3.2401,3.2399,3.1589,3.146,3.1753,3.1024,3.0428,2.9934,3.0009,2.9564,2.8905,2.9007,3.0208,3.1775,3.1842,3.3011,3.4486,3.4497,3.4508,3.4551,3.4793,3.4889,3.4953,3.5209,3.5289,3.53,3.5308,3.535,3.5379,3.5386,3.5453,3.55,3.55,3.5547,3.5609,3.5672,3.5797,3.5902,3.5962,3.5989,3.5989,3.5989,3.5991,3.5992,3.5992,3.6,3.6004,3.6004,3.5992,3.5995,3.5995,3.5996,3.5996,3.5996,3.5948,3.5882,3.5819,3.5748,3.5702,3.5695,3.5709,3.5704,3.5704,3.5637,3.5608,3.5598,3.5528,3.5509,0.0,0.0,0.0,0.0,0.0,0.0,0.0,0.0,0.0,0.0,0.0,0.0,0.0,0.0,0.0,0.0,0.0,0.0,0.0,0.0,0.0,0.0,0.0,0.0,0.0,0.0,0.0,0.0,0.0,2.6919,2.7188,2.7416,2.752,2.752,2.752,2.774,2.823,2.8483,2.9036,2.9834,3.0872,3.1596,3.2052,3.277,3.3172,3.3255,3.2969,3.2509,3.1964,3.1923,3.1503,3.0845,3.0357,2.999,2.9757,2.9946,3.0783,3.1927,3.2736,3.377,3.4783,3.4908,3.4954,3.4972,3.5107,3.5168,3.5174,3.5262,3.53,3.5315,3.5357,3.5379,3.5412,3.5453,3.5522,3.5558,3.5558,3.5614,3.5696,3.5801,3.5902,3.5978,3.5991,3.5992,3.6187,3.6755,3.6368,3.6195,3.6761,3.6357,3.6009,3.5992,3.5994,3.5995,3.5996,3.5996,3.5976,3.5948,3.59,3.5847,3.5748,3.5714,3.5693,3.5709,3.5668,3.5637,3.5637,3.5608,3.5578,3.5547,3.5502,3.5427,0.0,0.0,0.0,0.0,0.0,0.0,0.0,0.0,0.0,0.0,0.0,0.0,0.0,0.0,0.0,0.0,0.0,0.0,0.0,0.0,0.0,0.0,0.0,0.0,0.0,0.0,0.0,0.0,0.0,0.0,2.6691,2.6691,2.6691,2.6691,2.6691,2.6945,2.7418,2.7793,2.8408,2.9292,3.0418,3.1339,3.2061,3.2823,3.3378,3.3739,3.3739,3.3286,3.2627,3.2839,3.2488,3.1715,3.0925,3.0448,3.0227,3.0502,3.1155,3.2075,3.3289,3.4262,3.5028,3.5185,3.5226,3.5234,3.5293,3.5316,3.5331,3.5323,3.5357,3.5372,3.542,3.5427,3.5441,3.5515,3.5564,3.5629,3.5684,3.5741,3.5794,3.588,3.5949,3.5992,3.5992,3.5995,3.6191,3.6778,3.6374,3.6201,3.6787,3.6362,3.5993,3.5995,3.5995,3.5996,3.5996,3.5975,3.5951,3.5896,3.5851,3.5783,3.5702,3.5683,3.5669,3.5673,3.5626,3.5583,3.5571,3.5572,3.5528,3.5509,3.5501,3.5383,0.0,0.0,0.0,0.0,0.0,0.0,0.0,0.0,0.0,0.0,0.0,0.0,0.0,0.0,0.0,0.0,0.0,0.0,0.0,0.0,0.0,0.0,0.0,0.0,0.0,0.0,0.0,0.0,2.6691,2.6691,2.6691,2.6691,2.6691,2.6691,2.6708,2.6708,2.6725,2.7756,2.8524,2.9003,2.9985,3.1167,3.2423,3.2477,3.2957,3.377,3.3788,3.3807,3.3807,3.3807,3.3348,3.2546,3.1715,3.0938,3.0276,3.055,3.126,3.2269,3.3364,3.4388,3.5218,3.5277,3.5293,3.53,3.53,3.5357,3.5405,3.5405,3.5453,3.55,3.55,3.55,3.5521,3.5579,3.5593,3.5655,3.5862,3.5892,3.5892,3.5892,3.5968,3.5992,3.5992,3.6,3.6004,3.6024,3.6048,3.603,3.603,3.6032,3.6034,3.5995,3.5996,3.5996,3.5996,3.5948,3.5895,3.5893,3.5762,3.5693,3.5693,3.5639,3.5601,3.5601,3.559,3.556,3.5509,3.5509,3.5509,3.5509,3.5494,3.5369,1.0905,0.0,0.0,0.0,0.0,0.0,0.0,0.0,0.0,0.0,0.0,0.0,0.0,0.0,0.0,0.0,0.0,0.0,0.0,0.0,0.0,0.0,0.0,0.0,0.0,0.0,0.0,0.0,2.6691,2.6691,2.6691,2.6691,2.6691,2.6691,2.694,2.7084,2.7131,2.7681,2.8126,2.8506,2.9362,3.013,3.0802,3.1965,3.2664,3.2949,3.355,3.3807,3.3807,3.3807,3.3678,3.333,3.1935,3.1347,3.1332,3.1597,3.1949,3.2559,3.4268,3.5046,3.5277,3.5297,3.5293,3.532,3.5357,3.5398,3.5412,3.546,3.5493,3.55,3.55,3.55,3.5521,3.5579,3.5645,3.5713,3.5872,3.5938,3.5978,3.5978,3.5986,3.5994,3.6,3.6003,3.62,3.6847,3.6949,3.6931,3.6931,3.6933,3.6699,3.6074,3.5996,3.5996,3.5996,3.5948,3.5884,3.5836,3.5755,3.5678,3.5629,3.5604,3.5595,3.559,3.556,3.5522,3.5509,3.5509,3.5496,3.5494,3.5198,3.4964,0.0,0.0,0.0,0.0,0.0,0.0,0.0,1.5359,0.0,0.0,0.0,0.0,0.0,0.0,0.0,0.0,0.0,0.0,0.0,0.0,0.0,0.0,0.0,0.0,0.0,2.6691,2.6691,2.6691,2.6691,2.6691,2.6691,2.6691,2.6758,2.6907,2.7116,2.7319,2.7517,2.7833,2.8112,2.8355,2.8959,2.9568,3.0161,3.112,3.192,3.2619,3.3096,3.3495,3.3807,3.3807,3.3807,3.3673,3.252,3.1922,3.1786,3.2493,3.2637,3.2712,3.4636,3.53,3.5297,3.5323,3.533,3.5338,3.542,3.5446,3.5453,3.5493,3.55,3.55,3.55,3.5528,3.5565,3.563,3.5709,3.5811,3.5909,3.5963,3.5996,3.5992,3.5995,3.5999,3.6003,3.6008,3.6166,3.6675,3.6756,3.6757,3.6757,3.6758,3.6562,3.6055,3.5996,3.5996,3.5953,3.5893,3.5834,3.5756,3.5704,3.563,3.5606,3.5577,3.5559,3.556,3.5522,3.5502,3.5502,3.5502,3.5508,3.5493,3.5166,3.4927,0.0,0.0,0.0,0.0,0.0,0.0,1.478,1.5063,1.5231,0.0,0.0,0.0,0.0,0.0,0.0,0.0,0.0,0.0,0.0,0.0,0.0,0.0,0.0,0.0,2.6573,2.6573,2.6607,2.6691,2.6691,2.6691,2.6691,2.6741,2.6907,2.7213,2.7334,2.7545,2.7851,2.8192,2.8407,2.8471,2.8773,2.9307,3.0081,3.0173,3.1035,3.2472,3.2564,3.3073,3.3807,3.3807,3.382,3.3781,3.3222,3.2504,3.1941,3.3214,3.3197,3.2806,3.466,3.5304,3.5323,3.5398,3.5412,3.542,3.5474,3.55,3.55,3.55,3.55,3.5507,3.5501,3.5559,3.562,3.5709,3.5807,3.5924,3.5986,3.6,3.6002,3.5996,3.6001,3.6005,3.6006,3.5992,3.5995,3.5995,3.6074,3.6113,3.6016,3.6074,3.6113,3.6016,3.5996,3.5954,3.5917,3.5836,3.5756,3.5698,3.5639,3.5601,3.5595,3.5521,3.5509,3.5502,3.5501,3.55,3.55,3.55,3.5493,3.5453,3.5258,3.5063,1.4401,1.4275,1.4223,0.0,0.0,0.0,1.3087,1.3953,1.4962,0.0,0.0,0.0,0.0,0.0,0.0,0.0,0.0,0.0,0.0,0.0,0.0,0.0,0.0,0.0,2.5761,2.5812,2.6065,2.6657,2.6691,2.6691,2.6691,2.6956,2.7165,2.7272,2.7747,2.8116,2.829,2.862,2.8827,2.8875,2.894,2.9067,2.9262,2.9898,3.0723,3.1659,3.232,3.3073,3.3807,3.3807,3.3921,3.4049,3.3294,3.2695,3.2381,3.3332,3.3285,3.2984,3.4767,3.5391,3.5379,3.546,3.5486,3.5474,3.55,3.55,3.55,3.55,3.55,3.5508,3.5564,3.559,3.564,3.5824,3.588,3.5926,3.5995,3.6003,3.6005,3.6008,3.6009,3.5991,3.5993,3.5994,3.5995,3.5996,3.6601,3.6797,3.6094,3.6601,3.6777,3.6074,3.5951,3.5901,3.5895,3.5797,3.571,3.5691,3.5629,3.5583,3.5509,3.5515,3.5489,3.5494,3.5507,3.55,3.55,3.55,3.5417,3.525,3.5054,3.486,1.5618,1.5283,1.5055,1.51,0.0,0.0,0.0,0.0,1.489,0.0,0.0,0.0,0.0,0.0,0.0,0.0,0.0,0.0,0.0,0.0,0.0,0.0,0.0,0.0,2.5017,2.505,2.5202,2.5574,2.593,2.6248,2.6439,2.6957,2.7426,2.7791,2.8125,2.8407,2.8645,2.8851,2.897,2.9005,2.9005,2.9005,2.9005,2.9427,3.0265,3.1415,3.1825,3.2687,3.3802,3.3935,3.416,3.4357,3.3956,3.3238,3.2562,3.398,3.3792,3.3081,3.4803,3.542,3.5453,3.5493,3.55,3.55,3.55,3.55,3.55,3.55,3.5515,3.5565,3.559,3.567,3.5784,3.5883,3.594,3.5963,3.5985,3.6009,3.5991,3.5993,3.5994,3.5995,3.5995,3.5995,3.5996,3.5996,3.6367,3.6484,3.6055,3.6387,3.6464,3.5991,3.5922,3.5861,3.5814,3.5737,3.5697,3.5654,3.5587,3.554,3.549,3.5509,3.5501,3.55,3.55,3.55,3.55,3.55,3.5446,3.5346,3.5141,3.4945,0.0,0.0,0.0,0.0,0.0,1.5139,0.0,0.0,0.0,0.0,0.0,0.0,0.0,0.0,0.0,0.0,0.0,0.0,0.0,0.0,0.0,0.0,0.0,0.0,2.4051,2.4085,2.4203,2.4506,2.4857,2.5331,2.5949,2.6797,2.7518,2.8065,2.8343,2.8633,2.8917,2.8964,2.9005,2.9005,2.9005,2.9005,2.9005,2.9005,2.9811,3.1238,3.1397,3.2318,3.3727,3.4127,3.4434,3.4675,3.4675,3.3885,3.2939,3.4688,3.4405,3.3371,3.4882,3.5453,3.55,3.55,3.55,3.55,3.55,3.55,3.5507,3.5515,3.5565,3.5618,3.564,3.5788,3.5899,3.5919,3.597,3.6007,3.5991,3.5993,3.5995,3.5995,3.5996,3.5996,3.5995,3.5996,3.5996,3.5996,3.5996,3.5996,3.5996,3.5996,3.5953,3.5917,3.5882,3.5821,3.5702,3.5697,3.5654,3.5575,3.554,3.5502,3.5496,3.5501,3.55,3.55,3.55,3.55,3.55,3.5453,3.5439,3.5432,3.5234,3.5037,0.0,0.0,0.0,0.0,1.7306,0.0,0.0,0.0,0.0,0.0,0.0,0.0,0.0,0.0,0.0,0.0,0.0,0.0,0.0,0.0,0.0,0.0,0.0,0.0,0.0,2.255,2.312,2.4484,2.367,2.3738,2.5142,2.6424,2.7179,2.7313,2.8318,2.8893,2.8994,2.8994,2.9005,2.9005,2.9005,2.9005,2.9005,2.9005,2.9598,3.0639,3.1426,3.2351,3.3417,3.422,3.4715,3.4953,3.4953,3.4538,3.4033,3.5026,3.4812,3.4199,3.5147,3.5493,3.55,3.55,3.55,3.55,3.55,3.55,3.5508,3.5575,3.5596,3.5635,3.5817,3.5889,3.5919,3.5974,3.5987,3.5991,3.5994,3.5995,3.5995,3.5996,3.5996,3.5996,3.5996,3.5996,3.5996,3.5996,3.5996,3.5996,3.5996,3.5951,3.5918,3.5895,3.5783,3.571,3.5691,3.5644,3.5575,3.5528,3.5496,3.5489,3.5507,3.55,3.55,3.55,3.55,3.55,3.55,3.5324,3.5234,3.5234,3.5028,3.4831,0.0,0.0,0.0,0.0,0.0,0.0,1.5971,0.0,1.6055,0.0,0.0,0.0,0.0,0.0,0.0,0.0,0.0,0.0,0.0,0.0,0.0,0.0,0.0,0.0,0.0,0.0,0.0,0.0,2.2302,2.2696,2.405,2.5606,2.6796,2.7528,2.8009,2.8498,2.9005,2.9005,2.9005,2.8987,2.8539,2.8607,2.9163,2.8682,2.9291,3.0698,3.1112,3.2056,3.3351,3.3895,3.4507,3.5069,3.5231,3.4798,3.4209,3.5126,3.4916,3.4321,3.5192,3.55,3.55,3.55,3.55,3.5514,3.554,3.5558,3.556,3.5636,3.5714,3.5788,3.588,3.5935,3.5978,3.599,3.5993,3.5994,3.5996,3.5996,3.5996,3.5996,3.5996,3.5996,3.5996,3.5996,3.5996,3.5996,3.5996,3.5995,3.595,3.5922,3.5878,3.578,3.5741,3.5691,3.5703,3.5648,3.5584,3.556,3.5515,3.5501,3.55,3.55,3.55,3.55,3.55,3.55,3.55,3.5417,3.525,3.5028,3.4831,3.4678,2.004,0.0,0.0,0.0,0.0,0.0,0.0,0.0,0.0,0.0,0.0,0.0,0.0,0.0,0.0,0.0,0.0,0.0,0.0,0.0,0.0,0.0,0.0,0.0,0.0,0.0,0.0,0.0,0.0,2.1474,2.3012,2.4622,2.6118,2.7438,2.7688,2.8191,2.8987,2.9005,2.9005,2.8987,2.846,2.859,2.9285,2.877,2.9279,3.0574,3.0884,3.1835,3.3222,3.3685,3.4415,3.5223,3.5424,3.4929,3.4242,3.5166,3.5103,3.4641,3.5269,3.55,3.55,3.55,3.5508,3.5541,3.559,3.5616,3.5659,3.5732,3.5814,3.591,3.5921,3.5962,3.5993,3.5994,3.5995,3.5995,3.5996,3.5996,3.5996,3.5996,3.5996,3.5996,3.5996,3.5996,3.5996,3.5996,3.5996,3.5975,3.5918,3.5887,3.5831,3.5714,3.5687,3.5679,3.5673,3.5616,3.5579,3.5566,3.5534,3.5596,3.5827,3.5827,3.5827,3.5827,3.5827,3.5712,3.55,3.5395,3.5193,3.4908,3.4751,3.4615,0.0,0.0,0.0,1.8751,0.0,0.0,0.0,0.0,1.776,0.0,0.0,0.0,0.0,0.0,0.0,0.0,0.0,0.0,0.0,0.0,0.0,0.0,0.0,0.0,0.0,0.0,0.0,0.0,1.9335,0.0,2.2203,2.3553,2.4987,2.6583,2.7383,2.8191,2.8987,2.9005,2.9005,2.9005,2.9177,2.9275,2.9304,2.9533,2.9758,2.9972,3.0901,3.1909,3.2973,3.3754,3.4639,3.5493,3.55,3.4968,3.4295,3.5173,3.5481,3.5462,3.5481,3.55,3.55,3.55,3.5534,3.5607,3.56,3.5644,3.5712,3.5868,3.5906,3.5916,3.5986,3.5993,3.5995,3.5995,3.5996,3.5996,3.5996,3.5996,3.5996,3.5996,3.5996,3.5996,3.5996,3.5996,3.5996,3.5996,3.5996,3.5975,3.5918,3.5843,3.5788,3.5706,3.5635,3.5595,3.5604,3.5528,3.5489,3.5507,3.55,3.5846,3.6635,3.6654,3.6654,3.6654,3.6654,3.6269,3.55,3.5107,3.4898,3.4908,3.4879,3.466,0.0,0.0,2.3157,2.057,0.0,0.0,0.0,0.0,0.0,0.0,0.0,0.0,0.0,0.0,0.0,0.0,0.0,0.0,0.0,0.0,0.0,0.0,0.0,0.0,0.0,0.0,0.0,0.0,1.9626,0.0,0.0,2.3332,2.4447,2.4997,2.6319,2.7383,2.8209,2.873,2.9067,2.9195,2.8724,2.8923,2.9676,2.9239,2.9456,3.018,3.0508,3.15,3.2916,3.3192,3.4166,3.55,3.55,3.4968,3.4321,3.5173,3.5135,3.4718,3.5308,3.55,3.5507,3.5495,3.5558,3.5616,3.5709,3.5775,3.5841,3.594,3.5969,3.5972,3.5995,3.5996,3.5996,3.5996,3.5996,3.5996,3.5996,3.6445,3.6855,3.6855,3.7324,3.7715,3.7715,3.7715,3.7519,3.6953,3.6813,3.6777,3.6703,3.6644,3.658,3.6501,3.646,3.669,3.7212,3.6697,3.633,3.6295,3.5788,3.5865,3.6673,3.6692,3.6962,3.7546,3.7565,3.743,3.7161,3.6313,3.5826,3.5676,3.4967,3.4476,2.4286,2.4433,0.0,2.2004,2.1472,0.0,1.8459,0.0,0.0,0.0,0.0,0.0,0.0,0.0,0.0,0.0,0.0,0.0,0.0,0.0,0.0,0.0,0.0,0.0,0.0,0.0,1.7978,1.9028,1.9377,0.0,0.0,0.0,2.4043,2.4622,2.5915,2.6998,2.7787,2.8684,2.9174,2.9324,2.8923,2.917,2.9916,2.9479,2.9646,3.0311,3.0656,3.1591,3.2916,3.3231,3.4218,3.5462,3.5154,3.4699,3.4321,3.5173,3.5135,3.4737,3.5308,3.5521,3.554,3.5552,3.5611,3.5722,3.581,3.5888,3.5942,3.5994,3.5996,3.5996,3.5996,3.5996,3.5996,3.5996,3.5996,3.6074,3.6406,3.6894,3.7383,3.7695,3.8223,3.8594,3.8594,3.8573,3.8376,3.7809,3.7681,3.7632,3.7543,3.7475,3.741,3.7377,3.7321,3.7385,3.7577,3.6837,3.6316,3.6269,3.5788,3.6,3.7123,3.7161,3.7565,3.845,3.845,3.812,3.7425,3.6661,3.6179,3.5941,3.5169,3.4734]}]]